ftp/pub/palmer/observations_modified/2019/November/AR191120_AWS2.txt

Download

Sample DateTime	Unit Id	WS Avg 2min	WD Avg 2min	WGS 10min	WGD 10min	Air Temp	Rel Humidity	Dew Point	Pyranometer	Quantum	Air Pressure	Snow Level	Rainfall	PW Current	Visibility	CBase 1	CBase 2	CBase 3	Vert Vis
2019/11/20 00:00:00	AWS2	6.18	2	7.15	8	M	M	M	NA	NA	975.7	NA	NA		M	NA	NA	NA	NA
2019/11/20 00:01:00	AWS2	6.32	360	7.15	8	M	M	M	NA	NA	975.9	NA	NA		M	NA	NA	NA	NA
2019/11/20 00:02:00	AWS2	6.36	359	7.15	8	M	M	M	NA	NA	976.9	NA	NA		M	NA	NA	NA	NA
2019/11/20 00:03:00	AWS2	6.63	359	7.25	8	M	M	M	NA	NA	975.9	NA	NA		M	NA	NA	NA	NA
2019/11/20 00:04:00	AWS2	6.70	355	7.25	8	M	M	M	NA	NA	975.7	NA	NA		M	NA	NA	NA	NA
2019/11/20 00:05:00	AWS2	6.21	354	7.25	8	M	M	M	NA	NA	976.2	NA	NA		M	NA	NA	NA	NA
2019/11/20 00:06:00	AWS2	5.98	359	7.25	8	M	M	M	NA	NA	976.2	NA	NA		M	NA	NA	NA	NA
2019/11/20 00:07:00	AWS2	6.13	1	7.25	8	M	M	M	NA	NA	974.3	NA	NA		M	NA	NA	NA	NA
2019/11/20 00:08:00	AWS2	6.46	1	8.95	6	M	M	M	NA	NA	975.9	NA	NA		M	NA	NA	NA	NA
2019/11/20 00:09:00	AWS2	7.08	0	8.95	6	M	M	M	NA	NA	975.5	NA	NA		M	NA	NA	NA	NA
2019/11/20 00:10:00	AWS2	7.29	357	8.95	6	M	M	M	NA	NA	976.4	NA	NA		M	NA	NA	NA	NA
2019/11/20 00:11:00	AWS2	7.15	356	8.95	6	M	M	M	NA	NA	976.1	NA	NA		M	NA	NA	NA	NA
2019/11/20 00:12:00	AWS2	7.37	2	8.95	6	M	M	M	NA	NA	976.3	NA	NA		M	NA	NA	NA	NA
2019/11/20 00:13:00	AWS2	7.60	5	8.95	6	M	M	M	NA	NA	976.5	NA	NA		M	NA	NA	NA	NA
2019/11/20 00:14:00	AWS2	7.45	4	8.95	6	M	M	M	NA	NA	976.4	NA	NA		M	NA	NA	NA	NA
2019/11/20 00:15:00	AWS2	7.20	3	8.95	6	M	M	M	NA	NA	976.3	NA	NA		M	NA	NA	NA	NA
2019/11/20 00:16:00	AWS2	7.51	359	8.95	6	M	M	M	NA	NA	975.3	NA	NA		M	NA	NA	NA	NA
2019/11/20 00:17:00	AWS2	8.09	3	8.95	6	M	M	M	NA	NA	975.8	NA	NA		M	NA	NA	NA	NA
2019/11/20 00:18:00	AWS2	7.75	2	8.90	11	M	M	M	NA	NA	975.0	NA	NA		M	NA	NA	NA	NA
2019/11/20 00:19:00	AWS2	7.33	358	8.90	11	M	M	M	NA	NA	975.9	NA	NA		M	NA	NA	NA	NA
2019/11/20 00:20:00	AWS2	7.40	356	8.90	11	M	M	M	NA	NA	975.4	NA	NA		M	NA	NA	NA	NA
2019/11/20 00:21:00	AWS2	7.62	359	8.90	11	M	M	M	NA	NA	976.0	NA	NA		M	NA	NA	NA	NA
2019/11/20 00:22:00	AWS2	7.62	2	8.90	11	M	M	M	NA	NA	976.1	NA	NA		M	NA	NA	NA	NA
2019/11/20 00:23:00	AWS2	7.47	359	8.90	11	M	M	M	NA	NA	977.3	NA	NA		M	NA	NA	NA	NA
2019/11/20 00:24:00	AWS2	7.72	355	8.90	11	M	M	M	NA	NA	975.5	NA	NA		M	NA	NA	NA	NA
2019/11/20 00:25:00	AWS2	7.75	355	8.90	11	M	M	M	NA	NA	975.8	NA	NA		M	NA	NA	NA	NA
2019/11/20 00:26:00	AWS2	7.74	358	8.90	11	M	M	M	NA	NA	976.4	NA	NA		M	NA	NA	NA	NA
2019/11/20 00:27:00	AWS2	7.50	1	8.54	8	M	M	M	NA	NA	976.3	NA	NA		M	NA	NA	NA	NA
2019/11/20 00:28:00	AWS2	7.23	1	8.54	8	M	M	M	NA	NA	974.4	NA	NA		M	NA	NA	NA	NA
2019/11/20 00:29:00	AWS2	7.58	358	8.54	8	M	M	M	NA	NA	975.9	NA	NA		M	NA	NA	NA	NA
2019/11/20 00:30:00	AWS2	7.56	359	8.54	8	M	M	M	NA	NA	976.7	NA	NA		M	NA	NA	NA	NA
2019/11/20 00:31:00	AWS2	7.18	6	8.54	8	M	M	M	NA	NA	974.9	NA	NA		M	NA	NA	NA	NA
2019/11/20 00:32:00	AWS2	7.20	8	8.54	8	M	M	M	NA	NA	975.3	NA	NA		M	NA	NA	NA	NA
2019/11/20 00:33:00	AWS2	7.38	7	8.54	8	M	M	M	NA	NA	976.2	NA	NA		M	NA	NA	NA	NA
2019/11/20 00:34:00	AWS2	7.06	5	8.54	8	M	M	M	NA	NA	976.0	NA	NA		M	NA	NA	NA	NA
2019/11/20 00:35:00	AWS2	6.71	5	8.54	8	M	M	M	NA	NA	977.2	NA	NA		M	NA	NA	NA	NA
2019/11/20 00:36:00	AWS2	6.94	7	8.49	352	M	M	M	NA	NA	976.4	NA	NA		M	NA	NA	NA	NA
2019/11/20 00:37:00	AWS2	7.34	6	8.49	352	M	M	M	NA	NA	976.5	NA	NA		M	NA	NA	NA	NA
2019/11/20 00:38:00	AWS2	7.62	5	8.49	6	M	M	M	NA	NA	976.1	NA	NA		M	NA	NA	NA	NA
2019/11/20 00:39:00	AWS2	7.47	6	8.49	6	M	M	M	NA	NA	976.6	NA	NA		M	NA	NA	NA	NA
2019/11/20 00:40:00	AWS2	7.03	5	8.49	6	M	M	M	NA	NA	976.1	NA	NA		M	NA	NA	NA	NA
2019/11/20 00:41:00	AWS2	6.85	2	8.49	6	M	M	M	NA	NA	974.0	NA	NA		M	NA	NA	NA	NA
2019/11/20 00:42:00	AWS2	6.94	5	8.49	6	M	M	M	NA	NA	976.0	NA	NA		M	NA	NA	NA	NA
2019/11/20 00:43:00	AWS2	7.37	8	8.49	6	M	M	M	NA	NA	975.9	NA	NA		M	NA	NA	NA	NA
2019/11/20 00:44:00	AWS2	7.50	9	8.49	6	M	M	M	NA	NA	975.6	NA	NA		M	NA	NA	NA	NA
2019/11/20 00:45:00	AWS2	7.09	6	8.49	6	M	M	M	NA	NA	974.7	NA	NA		M	NA	NA	NA	NA
2019/11/20 00:46:00	AWS2	6.76	6	8.49	6	M	M	M	NA	NA	974.8	NA	NA		M	NA	NA	NA	NA
2019/11/20 00:47:00	AWS2	6.70	6	8.49	6	M	M	M	NA	NA	975.7	NA	NA		M	NA	NA	NA	NA
2019/11/20 00:48:01	AWS2	6.70	6	8.08	11	M	M	M	NA	NA	976.6	NA	NA		M	NA	NA	NA	NA
2019/11/20 00:49:01	AWS2	6.58	8	8.08	11	M	M	M	NA	NA	975.9	NA	NA		M	NA	NA	NA	NA
2019/11/20 00:50:01	AWS2	6.62	8	8.08	11	M	M	M	NA	NA	976.4	NA	NA		M	NA	NA	NA	NA
2019/11/20 00:51:01	AWS2	7.15	8	8.54	6	M	M	M	NA	NA	975.2	NA	NA		M	NA	NA	NA	NA
2019/11/20 00:52:01	AWS2	7.75	7	8.54	6	M	M	M	NA	NA	976.0	NA	NA		M	NA	NA	NA	NA
2019/11/20 00:53:01	AWS2	7.51	5	8.54	6	M	M	M	NA	NA	975.5	NA	NA		M	NA	NA	NA	NA
2019/11/20 00:54:01	AWS2	7.07	4	8.54	6	M	M	M	NA	NA	976.3	NA	NA		M	NA	NA	NA	NA
2019/11/20 00:55:01	AWS2	7.40	5	8.75	4	M	M	M	NA	NA	976.0	NA	NA		M	NA	NA	NA	NA
2019/11/20 00:56:01	AWS2	8.01	5	8.95	11	M	M	M	NA	NA	976.4	NA	NA		M	NA	NA	NA	NA
2019/11/20 00:57:01	AWS2	8.00	1	8.95	11	M	M	M	NA	NA	976.2	NA	NA		M	NA	NA	NA	NA
2019/11/20 00:58:01	AWS2	7.69	357	8.95	11	M	M	M	NA	NA	976.5	NA	NA		M	NA	NA	NA	NA
2019/11/20 00:59:01	AWS2	7.48	358	8.95	11	M	M	M	NA	NA	976.1	NA	NA		M	NA	NA	NA	NA
2019/11/20 01:00:01	AWS2	7.65	5	8.95	11	M	M	M	NA	NA	975.8	NA	NA		M	NA	NA	NA	NA
2019/11/20 01:01:01	AWS2	7.84	5	8.95	11	M	M	M	NA	NA	975.8	NA	NA		M	NA	NA	NA	NA
2019/11/20 01:02:01	AWS2	7.53	4	8.95	11	M	M	M	NA	NA	976.1	NA	NA		M	NA	NA	NA	NA
2019/11/20 01:03:01	AWS2	7.42	5	8.95	11	M	M	M	NA	NA	975.5	NA	NA		M	NA	NA	NA	NA
2019/11/20 01:04:01	AWS2	8.02	5	9.47	2	M	M	M	NA	NA	975.6	NA	NA		M	NA	NA	NA	NA
2019/11/20 01:05:01	AWS2	8.48	3	9.47	2	M	M	M	NA	NA	975.8	NA	NA		M	NA	NA	NA	NA
2019/11/20 01:06:01	AWS2	8.41	3	9.47	2	M	M	M	NA	NA	975.4	NA	NA		M	NA	NA	NA	NA
2019/11/20 01:07:01	AWS2	8.32	6	9.47	2	M	M	M	NA	NA	975.4	NA	NA		M	NA	NA	NA	NA
2019/11/20 01:08:01	AWS2	8.46	6	9.47	2	M	M	M	NA	NA	975.5	NA	NA		M	NA	NA	NA	NA
2019/11/20 01:09:01	AWS2	8.29	7	9.47	2	M	M	M	NA	NA	975.7	NA	NA		M	NA	NA	NA	NA
2019/11/20 01:10:01	AWS2	7.70	6	9.47	2	M	M	M	NA	NA	976.1	NA	NA		M	NA	NA	NA	NA
2019/11/20 01:11:01	AWS2	7.63	4	9.47	2	M	M	M	NA	NA	975.3	NA	NA		M	NA	NA	NA	NA
2019/11/20 01:12:01	AWS2	8.13	5	9.47	2	M	M	M	NA	NA	976.4	NA	NA		M	NA	NA	NA	NA
2019/11/20 01:13:01	AWS2	8.35	7	9.47	2	M	M	M	NA	NA	975.7	NA	NA		M	NA	NA	NA	NA
2019/11/20 01:14:01	AWS2	7.87	8	9.36	1	M	M	M	NA	NA	976.1	NA	NA		M	NA	NA	NA	NA
2019/11/20 01:15:01	AWS2	7.36	7	9.36	1	M	M	M	NA	NA	975.6	NA	NA		M	NA	NA	NA	NA
2019/11/20 01:16:01	AWS2	7.74	5	9.36	1	M	M	M	NA	NA	974.2	NA	NA		M	NA	NA	NA	NA
2019/11/20 01:17:01	AWS2	7.95	5	9.36	1	M	M	M	NA	NA	976.3	NA	NA		M	NA	NA	NA	NA
2019/11/20 01:18:01	AWS2	7.70	3	9.36	1	M	M	M	NA	NA	975.3	NA	NA		M	NA	NA	NA	NA
2019/11/20 01:19:01	AWS2	8.02	3	9.36	1	M	M	M	NA	NA	975.9	NA	NA		M	NA	NA	NA	NA
2019/11/20 01:20:01	AWS2	7.95	4	9.36	1	M	M	M	NA	NA	976.1	NA	NA		M	NA	NA	NA	NA
2019/11/20 01:21:01	AWS2	7.98	358	9.36	1	M	M	M	NA	NA	975.9	NA	NA		M	NA	NA	NA	NA
2019/11/20 01:22:01	AWS2	8.59	357	9.98	8	M	M	M	NA	NA	974.9	NA	NA		M	NA	NA	NA	NA
2019/11/20 01:23:01	AWS2	9.02	6	9.98	8	M	M	M	NA	NA	975.0	NA	NA		M	NA	NA	NA	NA
2019/11/20 01:24:01	AWS2	8.85	7	9.98	8	M	M	M	NA	NA	976.0	NA	NA		M	NA	NA	NA	NA
2019/11/20 01:25:01	AWS2	8.92	6	10.34	11	M	M	M	NA	NA	975.2	NA	NA		M	NA	NA	NA	NA
2019/11/20 01:26:01	AWS2	9.21	6	10.34	11	M	M	M	NA	NA	976.0	NA	NA		M	NA	NA	NA	NA
2019/11/20 01:27:01	AWS2	9.13	7	10.34	11	M	M	M	NA	NA	975.9	NA	NA		M	NA	NA	NA	NA
2019/11/20 01:28:01	AWS2	9.02	8	10.34	11	M	M	M	NA	NA	976.5	NA	NA		M	NA	NA	NA	NA
2019/11/20 01:29:01	AWS2	8.90	8	10.34	11	M	M	M	NA	NA	976.5	NA	NA		M	NA	NA	NA	NA
2019/11/20 01:30:01	AWS2	9.04	10	10.34	11	M	M	M	NA	NA	975.3	NA	NA		M	NA	NA	NA	NA
2019/11/20 01:31:01	AWS2	8.97	8	10.34	11	M	M	M	NA	NA	975.4	NA	NA		M	NA	NA	NA	NA
2019/11/20 01:32:01	AWS2	8.68	9	10.34	11	M	M	M	NA	NA	975.3	NA	NA		M	NA	NA	NA	NA
2019/11/20 01:33:01	AWS2	8.78	10	10.34	11	M	M	M	NA	NA	976.2	NA	NA		M	NA	NA	NA	NA
2019/11/20 01:34:01	AWS2	8.90	7	10.65	3	M	M	M	NA	NA	975.2	NA	NA		M	NA	NA	NA	NA
2019/11/20 01:35:01	AWS2	9.00	4	10.80	1	M	M	M	NA	NA	975.5	NA	NA		M	NA	NA	NA	NA
2019/11/20 01:36:01	AWS2	9.39	6	10.80	1	M	M	M	NA	NA	975.3	NA	NA		M	NA	NA	NA	NA
2019/11/20 01:37:01	AWS2	9.18	10	10.80	1	M	M	M	NA	NA	975.0	NA	NA		M	NA	NA	NA	NA
2019/11/20 01:38:01	AWS2	8.57	8	10.80	1	M	M	M	NA	NA	975.6	NA	NA		M	NA	NA	NA	NA
2019/11/20 01:39:01	AWS2	8.42	8	10.80	1	M	M	M	NA	NA	975.8	NA	NA		M	NA	NA	NA	NA
2019/11/20 01:40:01	AWS2	8.99	9	10.80	1	M	M	M	NA	NA	974.9	NA	NA		M	NA	NA	NA	NA
2019/11/20 01:41:01	AWS2	9.73	10	10.80	1	M	M	M	NA	NA	975.5	NA	NA		M	NA	NA	NA	NA
2019/11/20 01:42:01	AWS2	9.29	12	10.80	1	M	M	M	NA	NA	975.3	NA	NA		M	NA	NA	NA	NA
2019/11/20 01:43:01	AWS2	9.00	10	10.85	9	M	M	M	NA	NA	974.4	NA	NA		M	NA	NA	NA	NA
2019/11/20 01:44:01	AWS2	9.59	11	10.85	9	M	M	M	NA	NA	976.2	NA	NA		M	NA	NA	NA	NA
2019/11/20 01:45:01	AWS2	9.85	13	10.91	17	M	M	M	NA	NA	975.5	NA	NA		M	NA	NA	NA	NA
2019/11/20 01:46:01	AWS2	9.18	14	10.91	17	M	M	M	NA	NA	976.0	NA	NA		M	NA	NA	NA	NA
2019/11/20 01:47:01	AWS2	8.45	11	10.91	17	M	M	M	NA	NA	975.3	NA	NA		M	NA	NA	NA	NA
2019/11/20 01:48:01	AWS2	8.81	9	11.42	7	M	M	M	NA	NA	974.9	NA	NA		M	NA	NA	NA	NA
2019/11/20 01:49:01	AWS2	9.92	12	11.57	9	M	M	M	NA	NA	974.8	NA	NA		M	NA	NA	NA	NA
2019/11/20 01:50:01	AWS2	10.73	13	11.68	15	M	M	M	NA	NA	974.7	NA	NA		M	NA	NA	NA	NA
2019/11/20 01:51:01	AWS2	10.02	11	11.68	15	M	M	M	NA	NA	975.3	NA	NA		M	NA	NA	NA	NA
2019/11/20 01:52:01	AWS2	9.49	13	11.68	15	M	M	M	NA	NA	975.9	NA	NA		M	NA	NA	NA	NA
2019/11/20 01:53:01	AWS2	10.42	16	12.14	20	M	M	M	NA	NA	975.6	NA	NA		M	NA	NA	NA	NA
2019/11/20 01:54:01	AWS2	10.61	13	12.14	20	M	M	M	NA	NA	976.1	NA	NA		M	NA	NA	NA	NA
2019/11/20 01:55:01	AWS2	9.72	9	12.14	20	M	M	M	NA	NA	975.1	NA	NA		M	NA	NA	NA	NA
2019/11/20 01:56:01	AWS2	9.24	7	12.14	20	M	M	M	NA	NA	975.9	NA	NA		M	NA	NA	NA	NA
2019/11/20 01:57:01	AWS2	9.05	8	12.14	20	M	M	M	NA	NA	974.5	NA	NA		M	NA	NA	NA	NA
2019/11/20 01:58:01	AWS2	8.97	10	12.14	20	M	M	M	NA	NA	975.1	NA	NA		M	NA	NA	NA	NA
2019/11/20 01:59:01	AWS2	9.08	12	12.14	20	M	M	M	NA	NA	975.7	NA	NA		M	NA	NA	NA	NA
2019/11/20 02:00:01	AWS2	9.18	14	12.14	20	M	M	M	NA	NA	975.5	NA	NA		M	NA	NA	NA	NA
2019/11/20 02:01:01	AWS2	8.66	11	12.14	20	M	M	M	NA	NA	974.6	NA	NA		M	NA	NA	NA	NA
2019/11/20 02:02:01	AWS2	8.41	10	12.14	20	M	M	M	NA	NA	975.3	NA	NA		M	NA	NA	NA	NA
2019/11/20 02:03:01	AWS2	8.69	12	11.11	10	M	M	M	NA	NA	975.0	NA	NA		M	NA	NA	NA	NA
2019/11/20 02:04:01	AWS2	8.71	11	10.19	9	M	M	M	NA	NA	974.7	NA	NA		M	NA	NA	NA	NA
2019/11/20 02:05:01	AWS2	9.18	8	10.19	8	M	M	M	NA	NA	975.7	NA	NA		M	NA	NA	NA	NA
2019/11/20 02:06:01	AWS2	9.68	8	11.11	6	M	M	M	NA	NA	974.6	NA	NA		M	NA	NA	NA	NA
2019/11/20 02:07:01	AWS2	9.71	10	11.11	6	M	M	M	NA	NA	974.1	NA	NA		M	NA	NA	NA	NA
2019/11/20 02:08:01	AWS2	9.13	9	11.11	6	M	M	M	NA	NA	975.2	NA	NA		M	NA	NA	NA	NA
2019/11/20 02:09:01	AWS2	9.13	12	11.11	6	M	M	M	NA	NA	974.7	NA	NA		M	NA	NA	NA	NA
2019/11/20 02:10:01	AWS2	9.80	15	11.11	15	M	M	M	NA	NA	974.4	NA	NA		M	NA	NA	NA	NA
2019/11/20 02:11:01	AWS2	9.36	11	11.11	15	M	M	M	NA	NA	975.6	NA	NA		M	NA	NA	NA	NA
2019/11/20 02:12:01	AWS2	8.11	9	11.11	15	M	M	M	NA	NA	975.2	NA	NA		M	NA	NA	NA	NA
2019/11/20 02:13:01	AWS2	7.91	9	11.11	15	M	M	M	NA	NA	975.9	NA	NA		M	NA	NA	NA	NA
2019/11/20 02:14:01	AWS2	9.05	8	11.32	6	M	M	M	NA	NA	975.1	NA	NA		M	NA	NA	NA	NA
2019/11/20 02:15:01	AWS2	9.73	8	11.32	6	M	M	M	NA	NA	974.6	NA	NA		M	NA	NA	NA	NA
2019/11/20 02:16:01	AWS2	9.70	12	11.32	6	M	M	M	NA	NA	973.9	NA	NA		M	NA	NA	NA	NA
2019/11/20 02:17:01	AWS2	10.07	15	11.32	6	M	M	M	NA	NA	974.8	NA	NA		M	NA	NA	NA	NA
2019/11/20 02:18:01	AWS2	9.96	11	11.32	6	M	M	M	NA	NA	975.0	NA	NA		M	NA	NA	NA	NA
2019/11/20 02:19:01	AWS2	9.75	9	11.32	6	M	M	M	NA	NA	974.3	NA	NA		M	NA	NA	NA	NA
2019/11/20 02:20:01	AWS2	9.30	10	11.32	6	M	M	M	NA	NA	975.1	NA	NA		M	NA	NA	NA	NA
2019/11/20 02:21:01	AWS2	8.61	14	11.32	6	M	M	M	NA	NA	975.0	NA	NA		M	NA	NA	NA	NA
2019/11/20 02:22:01	AWS2	8.98	16	11.32	6	M	M	M	NA	NA	975.3	NA	NA		M	NA	NA	NA	NA
2019/11/20 02:23:01	AWS2	9.92	14	11.57	10	M	M	M	NA	NA	973.4	NA	NA		M	NA	NA	NA	NA
2019/11/20 02:24:01	AWS2	10.46	14	11.68	14	M	M	M	NA	NA	974.0	NA	NA		M	NA	NA	NA	NA
2019/11/20 02:25:01	AWS2	9.86	15	11.68	14	M	M	M	NA	NA	973.9	NA	NA		M	NA	NA	NA	NA
2019/11/20 02:26:01	AWS2	9.25	12	11.68	14	M	M	M	NA	NA	974.6	NA	NA		M	NA	NA	NA	NA
2019/11/20 02:27:01	AWS2	9.15	9	11.68	14	M	M	M	NA	NA	975.3	NA	NA		M	NA	NA	NA	NA
2019/11/20 02:28:01	AWS2	8.52	14	11.68	14	M	M	M	NA	NA	974.7	NA	NA		M	NA	NA	NA	NA
2019/11/20 02:29:01	AWS2	8.50	17	11.68	14	M	M	M	NA	NA	974.8	NA	NA		M	NA	NA	NA	NA
2019/11/20 02:30:01	AWS2	8.96	19	11.68	14	M	M	M	NA	NA	975.1	NA	NA		M	NA	NA	NA	NA
2019/11/20 02:31:01	AWS2	9.02	16	11.68	14	M	M	M	NA	NA	973.7	NA	NA		M	NA	NA	NA	NA
2019/11/20 02:32:01	AWS2	9.43	14	11.68	14	M	M	M	NA	NA	975.1	NA	NA		M	NA	NA	NA	NA
2019/11/20 02:33:01	AWS2	9.81	13	11.68	14	M	M	M	NA	NA	974.1	NA	NA		M	NA	NA	NA	NA
2019/11/20 02:34:01	AWS2	9.54	15	10.91	19	M	M	M	NA	NA	974.1	NA	NA		M	NA	NA	NA	NA
2019/11/20 02:35:01	AWS2	9.57	20	10.91	19	M	M	M	NA	NA	975.2	NA	NA		M	NA	NA	NA	NA
2019/11/20 02:36:01	AWS2	10.19	21	11.11	24	M	M	M	NA	NA	974.3	NA	NA		M	NA	NA	NA	NA
2019/11/20 02:37:01	AWS2	10.32	20	11.11	24	M	M	M	NA	NA	974.7	NA	NA		M	NA	NA	NA	NA
2019/11/20 02:38:01	AWS2	10.13	19	11.11	24	M	M	M	NA	NA	974.6	NA	NA		M	NA	NA	NA	NA
2019/11/20 02:39:01	AWS2	9.69	21	11.11	24	M	M	M	NA	NA	974.5	NA	NA		M	NA	NA	NA	NA
2019/11/20 02:40:01	AWS2	9.70	20	11.11	24	M	M	M	NA	NA	975.1	NA	NA		M	NA	NA	NA	NA
2019/11/20 02:41:01	AWS2	9.61	16	11.11	24	M	M	M	NA	NA	974.9	NA	NA		M	NA	NA	NA	NA
2019/11/20 02:42:01	AWS2	9.12	19	11.11	24	M	M	M	NA	NA	974.5	NA	NA		M	NA	NA	NA	NA
2019/11/20 02:43:01	AWS2	9.33	20	11.11	24	M	M	M	NA	NA	974.3	NA	NA		M	NA	NA	NA	NA
2019/11/20 02:44:01	AWS2	9.68	16	11.11	24	M	M	M	NA	NA	974.6	NA	NA		M	NA	NA	NA	NA
2019/11/20 02:45:01	AWS2	9.54	16	11.11	24	M	M	M	NA	NA	974.7	NA	NA		M	NA	NA	NA	NA
2019/11/20 02:46:01	AWS2	8.82	21	11.01	20	M	M	M	NA	NA	974.0	NA	NA		M	NA	NA	NA	NA
2019/11/20 02:47:01	AWS2	9.01	25	10.80	14	M	M	M	NA	NA	974.7	NA	NA		M	NA	NA	NA	NA
2019/11/20 02:48:01	AWS2	9.53	27	10.80	14	M	M	M	NA	NA	974.0	NA	NA		M	NA	NA	NA	NA
2019/11/20 02:49:01	AWS2	9.09	28	10.80	14	M	M	M	NA	NA	974.3	NA	NA		M	NA	NA	NA	NA
2019/11/20 02:50:01	AWS2	8.53	25	10.55	12	M	M	M	NA	NA	974.8	NA	NA		M	NA	NA	NA	NA
2019/11/20 02:51:01	AWS2	8.56	20	10.55	12	M	M	M	NA	NA	974.1	NA	NA		M	NA	NA	NA	NA
2019/11/20 02:52:01	AWS2	8.46	21	10.55	12	M	M	M	NA	NA	974.8	NA	NA		M	NA	NA	NA	NA
2019/11/20 02:53:01	AWS2	8.07	24	10.44	18	M	M	M	NA	NA	974.2	NA	NA		M	NA	NA	NA	NA
2019/11/20 02:54:01	AWS2	7.34	25	10.24	21	M	M	M	NA	NA	974.5	NA	NA		M	NA	NA	NA	NA
2019/11/20 02:55:01	AWS2	6.56	27	10.24	21	M	M	M	NA	NA	973.8	NA	NA		M	NA	NA	NA	NA
2019/11/20 02:56:01	AWS2	7.23	29	10.24	21	M	M	M	NA	NA	974.1	NA	NA		M	NA	NA	NA	NA
2019/11/20 02:57:01	AWS2	8.05	28	10.03	32	M	M	M	NA	NA	974.8	NA	NA		M	NA	NA	NA	NA
2019/11/20 02:58:01	AWS2	8.34	28	9.41	15	M	M	M	NA	NA	974.3	NA	NA		M	NA	NA	NA	NA
2019/11/20 02:59:01	AWS2	8.67	31	9.41	15	M	M	M	NA	NA	974.8	NA	NA		M	NA	NA	NA	NA
2019/11/20 03:00:01	AWS2	8.46	30	9.41	29	M	M	M	NA	NA	975.0	NA	NA		M	NA	NA	NA	NA
2019/11/20 03:01:01	AWS2	8.45	27	9.57	26	M	M	M	NA	NA	974.2	NA	NA		M	NA	NA	NA	NA
2019/11/20 03:02:01	AWS2	8.59	26	9.57	26	M	M	M	NA	NA	974.6	NA	NA		M	NA	NA	NA	NA
2019/11/20 03:03:01	AWS2	8.15	26	9.57	26	M	M	M	NA	NA	975.8	NA	NA		M	NA	NA	NA	NA
2019/11/20 03:04:01	AWS2	7.67	28	9.57	26	M	M	M	NA	NA	975.0	NA	NA		M	NA	NA	NA	NA
2019/11/20 03:05:01	AWS2	7.80	25	9.57	26	M	M	M	NA	NA	974.6	NA	NA		M	NA	NA	NA	NA
2019/11/20 03:06:01	AWS2	7.76	26	9.57	26	M	M	M	NA	NA	974.3	NA	NA		M	NA	NA	NA	NA
2019/11/20 03:07:01	AWS2	7.59	27	9.57	26	M	M	M	NA	NA	975.3	NA	NA		M	NA	NA	NA	NA
2019/11/20 03:08:01	AWS2	7.65	23	9.57	26	M	M	M	NA	NA	974.8	NA	NA		M	NA	NA	NA	NA
2019/11/20 03:09:01	AWS2	8.11	24	9.62	22	M	M	M	NA	NA	974.7	NA	NA		M	NA	NA	NA	NA
2019/11/20 03:10:01	AWS2	8.18	27	9.62	22	M	M	M	NA	NA	974.8	NA	NA		M	NA	NA	NA	NA
2019/11/20 03:11:01	AWS2	7.86	28	9.62	22	M	M	M	NA	NA	974.3	NA	NA		M	NA	NA	NA	NA
2019/11/20 03:12:01	AWS2	7.84	29	9.62	22	M	M	M	NA	NA	975.5	NA	NA		M	NA	NA	NA	NA
2019/11/20 03:13:01	AWS2	7.58	28	9.62	22	M	M	M	NA	NA	975.2	NA	NA		M	NA	NA	NA	NA
2019/11/20 03:14:01	AWS2	7.95	24	9.62	22	M	M	M	NA	NA	974.8	NA	NA		M	NA	NA	NA	NA
2019/11/20 03:15:01	AWS2	8.12	23	9.62	22	M	M	M	NA	NA	974.3	NA	NA		M	NA	NA	NA	NA
2019/11/20 03:16:01	AWS2	7.91	25	9.62	22	M	M	M	NA	NA	974.9	NA	NA		M	NA	NA	NA	NA
2019/11/20 03:17:01	AWS2	7.29	26	9.62	22	M	M	M	NA	NA	975.0	NA	NA		M	NA	NA	NA	NA
2019/11/20 03:18:01	AWS2	7.05	29	9.62	22	M	M	M	NA	NA	975.6	NA	NA		M	NA	NA	NA	NA
2019/11/20 03:19:01	AWS2	7.82	32	9.26	28	M	M	M	NA	NA	974.8	NA	NA		M	NA	NA	NA	NA
2019/11/20 03:20:01	AWS2	7.74	29	9.26	28	M	M	M	NA	NA	974.4	NA	NA		M	NA	NA	NA	NA
2019/11/20 03:21:00	AWS2	7.40	27	9.11	30	M	M	M	NA	NA	974.3	NA	NA		M	NA	NA	NA	NA
2019/11/20 03:22:01	AWS2	7.90	28	9.11	30	M	M	M	NA	NA	974.6	NA	NA		M	NA	NA	NA	NA
2019/11/20 03:23:00	AWS2	8.28	28	9.11	30	M	M	M	NA	NA	973.9	NA	NA		M	NA	NA	NA	NA
2019/11/20 03:24:01	AWS2	7.88	27	9.11	30	M	M	M	NA	NA	974.0	NA	NA		M	NA	NA	NA	NA
2019/11/20 03:25:01	AWS2	7.01	27	9.11	30	M	M	M	NA	NA	974.2	NA	NA		M	NA	NA	NA	NA
2019/11/20 03:26:01	AWS2	6.58	30	9.11	30	M	M	M	NA	NA	975.3	NA	NA		M	NA	NA	NA	NA
2019/11/20 03:27:00	AWS2	7.17	33	9.11	30	M	M	M	NA	NA	974.4	NA	NA		M	NA	NA	NA	NA
2019/11/20 03:28:01	AWS2	7.39	32	9.11	30	M	M	M	NA	NA	975.1	NA	NA		M	NA	NA	NA	NA
2019/11/20 03:29:01	AWS2	7.02	33	8.90	29	M	M	M	NA	NA	974.1	NA	NA		M	NA	NA	NA	NA
2019/11/20 03:30:01	AWS2	7.05	31	8.90	29	M	M	M	NA	NA	973.7	NA	NA		M	NA	NA	NA	NA
2019/11/20 03:31:00	AWS2	7.42	29	8.90	29	M	M	M	NA	NA	974.3	NA	NA		M	NA	NA	NA	NA
2019/11/20 03:32:01	AWS2	8.07	32	9.77	34	M	M	M	NA	NA	973.9	NA	NA		M	NA	NA	NA	NA
2019/11/20 03:33:00	AWS2	8.08	34	9.77	34	M	M	M	NA	NA	974.1	NA	NA		M	NA	NA	NA	NA
2019/11/20 03:34:01	AWS2	8.00	35	9.77	34	M	M	M	NA	NA	974.0	NA	NA		M	NA	NA	NA	NA
2019/11/20 03:35:00	AWS2	7.96	35	9.77	34	M	M	M	NA	NA	974.8	NA	NA		M	NA	NA	NA	NA
2019/11/20 03:36:00	AWS2	7.75	34	9.77	34	M	M	M	NA	NA	973.7	NA	NA		M	NA	NA	NA	NA
2019/11/20 03:37:00	AWS2	7.27	36	9.77	34	M	M	M	NA	NA	973.2	NA	NA		M	NA	NA	NA	NA
2019/11/20 03:38:01	AWS2	7.34	37	9.77	34	M	M	M	NA	NA	973.9	NA	NA		M	NA	NA	NA	NA
2019/11/20 03:39:00	AWS2	7.61	37	9.77	34	M	M	M	NA	NA	973.8	NA	NA		M	NA	NA	NA	NA
2019/11/20 03:40:01	AWS2	7.91	41	9.77	34	M	M	M	NA	NA	972.4	NA	NA		M	NA	NA	NA	NA
2019/11/20 03:41:00	AWS2	8.41	41	9.77	34	M	M	M	NA	NA	973.5	NA	NA		M	NA	NA	NA	NA
2019/11/20 03:42:01	AWS2	8.24	38	9.67	40	M	M	M	NA	NA	973.8	NA	NA		M	NA	NA	NA	NA
2019/11/20 03:43:00	AWS2	8.10	41	9.67	40	M	M	M	NA	NA	973.9	NA	NA		M	NA	NA	NA	NA
2019/11/20 03:44:00	AWS2	8.49	44	10.19	53	M	M	M	NA	NA	972.8	NA	NA		M	NA	NA	NA	NA
2019/11/20 03:45:00	AWS2	8.66	40	10.19	53	M	M	M	NA	NA	973.3	NA	NA		M	NA	NA	NA	NA
2019/11/20 03:46:01	AWS2	8.29	38	10.19	53	M	M	M	NA	NA	973.7	NA	NA		M	NA	NA	NA	NA
2019/11/20 03:47:00	AWS2	7.98	40	10.19	53	M	M	M	NA	NA	973.2	NA	NA		M	NA	NA	NA	NA
2019/11/20 03:48:00	AWS2	7.49	40	10.19	53	M	M	M	NA	NA	974.2	NA	NA		M	NA	NA	NA	NA
2019/11/20 03:49:00	AWS2	7.80	42	10.19	53	M	M	M	NA	NA	973.0	NA	NA		M	NA	NA	NA	NA
2019/11/20 03:50:00	AWS2	8.53	43	10.19	53	M	M	M	NA	NA	973.4	NA	NA		M	NA	NA	NA	NA
2019/11/20 03:51:00	AWS2	8.31	43	10.19	53	M	M	M	NA	NA	973.6	NA	NA		M	NA	NA	NA	NA
2019/11/20 03:52:00	AWS2	7.94	42	10.19	53	M	M	M	NA	NA	974.7	NA	NA		M	NA	NA	NA	NA
2019/11/20 03:53:00	AWS2	8.02	44	10.19	53	M	M	M	NA	NA	972.8	NA	NA		M	NA	NA	NA	NA
2019/11/20 03:54:01	AWS2	8.08	44	9.88	37	M	M	M	NA	NA	972.4	NA	NA		M	NA	NA	NA	NA
2019/11/20 03:55:00	AWS2	7.99	42	9.88	37	M	M	M	NA	NA	974.0	NA	NA		M	NA	NA	NA	NA
2019/11/20 03:56:00	AWS2	8.16	43	9.88	37	M	M	M	NA	NA	973.0	NA	NA		M	NA	NA	NA	NA
2019/11/20 03:57:00	AWS2	8.36	43	9.88	37	M	M	M	NA	NA	973.0	NA	NA		M	NA	NA	NA	NA
2019/11/20 03:58:00	AWS2	7.91	43	9.88	37	M	M	M	NA	NA	974.0	NA	NA		M	NA	NA	NA	NA
2019/11/20 03:59:00	AWS2	7.55	42	9.83	30	M	M	M	NA	NA	973.0	NA	NA		M	NA	NA	NA	NA
2019/11/20 04:00:00	AWS2	7.53	40	9.41	40	M	M	M	NA	NA	973.2	NA	NA		M	NA	NA	NA	NA
2019/11/20 04:01:00	AWS2	7.20	40	9.41	40	M	M	M	NA	NA	973.9	NA	NA		M	NA	NA	NA	NA
2019/11/20 04:02:00	AWS2	7.17	42	9.41	40	M	M	M	NA	NA	M	NA	NA		M	NA	NA	NA	NA
2019/11/20 04:03:00	AWS2	7.68	37	9.21	40	M	M	M	NA	NA	974.1	NA	NA		M	NA	NA	NA	NA
2019/11/20 04:04:00	AWS2	7.69	36	9.21	40	M	M	M	NA	NA	973.1	NA	NA		M	NA	NA	NA	NA
2019/11/20 04:05:00	AWS2	7.05	36	9.11	45	M	M	M	NA	NA	974.1	NA	NA		M	NA	NA	NA	NA
2019/11/20 04:06:00	AWS2	7.20	32	9.11	45	M	M	M	NA	NA	973.2	NA	NA		M	NA	NA	NA	NA
2019/11/20 04:07:00	AWS2	8.48	31	11.47	35	M	M	M	NA	NA	974.3	NA	NA		M	NA	NA	NA	NA
2019/11/20 04:08:00	AWS2	9.69	32	11.47	35	M	M	M	NA	NA	972.7	NA	NA		M	NA	NA	NA	NA
2019/11/20 04:09:00	AWS2	9.91	33	11.47	35	M	M	M	NA	NA	973.2	NA	NA		M	NA	NA	NA	NA
2019/11/20 04:10:00	AWS2	9.39	36	11.47	35	M	M	M	NA	NA	975.3	NA	NA		M	NA	NA	NA	NA
2019/11/20 04:11:00	AWS2	9.13	35	11.47	35	M	M	M	NA	NA	973.1	NA	NA		M	NA	NA	NA	NA
2019/11/20 04:12:00	AWS2	8.80	36	11.47	35	M	M	M	NA	NA	972.4	NA	NA		M	NA	NA	NA	NA
2019/11/20 04:13:00	AWS2	8.13	38	11.47	35	M	M	M	NA	NA	972.6	NA	NA		M	NA	NA	NA	NA
2019/11/20 04:14:00	AWS2	8.62	37	11.47	35	M	M	M	NA	NA	972.4	NA	NA		M	NA	NA	NA	NA
2019/11/20 04:15:00	AWS2	8.88	41	11.47	35	M	M	M	NA	NA	973.3	NA	NA		M	NA	NA	NA	NA
2019/11/20 04:16:00	AWS2	8.89	42	11.47	35	M	M	M	NA	NA	973.2	NA	NA		M	NA	NA	NA	NA
2019/11/20 04:17:00	AWS2	9.26	41	11.27	26	M	M	M	NA	NA	973.1	NA	NA		M	NA	NA	NA	NA
2019/11/20 04:18:00	AWS2	8.63	38	10.80	31	M	M	M	NA	NA	973.4	NA	NA		M	NA	NA	NA	NA
2019/11/20 04:19:00	AWS2	8.05	36	10.65	33	M	M	M	NA	NA	973.3	NA	NA		M	NA	NA	NA	NA
2019/11/20 04:20:00	AWS2	7.86	37	10.65	33	M	M	M	NA	NA	973.4	NA	NA		M	NA	NA	NA	NA
2019/11/20 04:21:00	AWS2	8.00	37	10.65	33	M	M	M	NA	NA	972.8	NA	NA		M	NA	NA	NA	NA
2019/11/20 04:22:00	AWS2	7.99	33	10.65	33	M	M	M	NA	NA	974.1	NA	NA		M	NA	NA	NA	NA
2019/11/20 04:23:00	AWS2	7.13	35	10.65	33	M	M	M	NA	NA	973.7	NA	NA		M	NA	NA	NA	NA
2019/11/20 04:24:00	AWS2	6.94	39	10.65	33	M	M	M	NA	NA	973.4	NA	NA		M	NA	NA	NA	NA
2019/11/20 04:25:00	AWS2	7.53	37	10.55	47	M	M	M	NA	NA	973.5	NA	NA		M	NA	NA	NA	NA
2019/11/20 04:26:00	AWS2	7.52	38	10.55	47	M	M	M	NA	NA	973.0	NA	NA		M	NA	NA	NA	NA
2019/11/20 04:27:00	AWS2	7.30	39	9.77	30	M	M	M	NA	NA	971.9	NA	NA		M	NA	NA	NA	NA
2019/11/20 04:28:00	AWS2	7.77	38	9.77	30	M	M	M	NA	NA	973.1	NA	NA		M	NA	NA	NA	NA
2019/11/20 04:29:00	AWS2	8.15	33	10.75	16	M	M	M	NA	NA	973.2	NA	NA		M	NA	NA	NA	NA
2019/11/20 04:30:00	AWS2	8.13	27	10.75	16	M	M	M	NA	NA	973.6	NA	NA		M	NA	NA	NA	NA
2019/11/20 04:31:00	AWS2	7.88	29	10.75	16	M	M	M	NA	NA	972.5	NA	NA		M	NA	NA	NA	NA
2019/11/20 04:32:00	AWS2	7.29	32	10.75	16	M	M	M	NA	NA	972.9	NA	NA		M	NA	NA	NA	NA
2019/11/20 04:33:00	AWS2	7.85	33	10.75	16	M	M	M	NA	NA	973.1	NA	NA		M	NA	NA	NA	NA
2019/11/20 04:34:00	AWS2	9.26	33	10.85	36	M	M	M	NA	NA	973.1	NA	NA		M	NA	NA	NA	NA
2019/11/20 04:35:00	AWS2	8.85	35	10.85	36	M	M	M	NA	NA	972.6	NA	NA		M	NA	NA	NA	NA
2019/11/20 04:36:00	AWS2	8.82	32	11.11	30	M	M	M	NA	NA	973.4	NA	NA		M	NA	NA	NA	NA
2019/11/20 04:37:00	AWS2	8.98	26	11.68	21	M	M	M	NA	NA	973.1	NA	NA		M	NA	NA	NA	NA
2019/11/20 04:38:00	AWS2	9.11	25	11.68	21	M	M	M	NA	NA	972.8	NA	NA		M	NA	NA	NA	NA
2019/11/20 04:39:00	AWS2	9.49	27	11.68	21	M	M	M	NA	NA	972.7	NA	NA		M	NA	NA	NA	NA
2019/11/20 04:40:00	AWS2	9.46	29	11.68	21	M	M	M	NA	NA	972.6	NA	NA		M	NA	NA	NA	NA
2019/11/20 04:41:00	AWS2	10.06	30	11.68	21	M	M	M	NA	NA	973.1	NA	NA		M	NA	NA	NA	NA
2019/11/20 04:42:00	AWS2	10.18	30	11.68	21	M	M	M	NA	NA	973.0	NA	NA		M	NA	NA	NA	NA
2019/11/20 04:43:00	AWS2	10.34	28	11.68	21	M	M	M	NA	NA	972.4	NA	NA		M	NA	NA	NA	NA
2019/11/20 04:44:00	AWS2	10.83	29	12.09	28	M	M	M	NA	NA	972.0	NA	NA		M	NA	NA	NA	NA
2019/11/20 04:45:00	AWS2	11.25	30	12.09	29	M	M	M	NA	NA	971.6	NA	NA		M	NA	NA	NA	NA
2019/11/20 04:46:00	AWS2	10.38	31	12.09	29	M	M	M	NA	NA	972.2	NA	NA		M	NA	NA	NA	NA
2019/11/20 04:47:00	AWS2	10.48	31	14.40	29	M	M	M	NA	NA	971.2	NA	NA		M	NA	NA	NA	NA
2019/11/20 04:48:00	AWS2	11.61	28	14.40	29	M	M	M	NA	NA	971.7	NA	NA		M	NA	NA	NA	NA
2019/11/20 04:49:00	AWS2	11.88	27	14.40	29	M	M	M	NA	NA	971.9	NA	NA		M	NA	NA	NA	NA
2019/11/20 04:50:00	AWS2	11.51	27	14.40	29	M	M	M	NA	NA	973.0	NA	NA		M	NA	NA	NA	NA
2019/11/20 04:51:00	AWS2	11.64	25	14.40	29	M	M	M	NA	NA	970.7	NA	NA		M	NA	NA	NA	NA
2019/11/20 04:52:00	AWS2	11.19	24	14.40	29	M	M	M	NA	NA	971.7	NA	NA		M	NA	NA	NA	NA
2019/11/20 04:53:00	AWS2	10.57	27	14.40	29	M	M	M	NA	NA	971.2	NA	NA		M	NA	NA	NA	NA
2019/11/20 04:54:00	AWS2	11.74	27	14.76	23	M	M	M	NA	NA	971.4	NA	NA		M	NA	NA	NA	NA
2019/11/20 04:55:00	AWS2	12.31	28	15.18	29	M	M	M	NA	NA	971.5	NA	NA		M	NA	NA	NA	NA
2019/11/20 04:56:00	AWS2	12.48	25	15.18	29	M	M	M	NA	NA	971.5	NA	NA		M	NA	NA	NA	NA
2019/11/20 04:57:00	AWS2	12.49	21	15.18	29	M	M	M	NA	NA	971.4	NA	NA		M	NA	NA	NA	NA
2019/11/20 04:58:00	AWS2	11.35	24	15.18	29	M	M	M	NA	NA	970.7	NA	NA		M	NA	NA	NA	NA
2019/11/20 04:59:00	AWS2	10.96	27	15.18	29	M	M	M	NA	NA	971.9	NA	NA		M	NA	NA	NA	NA
2019/11/20 05:00:00	AWS2	12.06	21	15.18	29	M	M	M	NA	NA	971.7	NA	NA		M	NA	NA	NA	NA
2019/11/20 05:01:00	AWS2	12.99	21	15.18	29	M	M	M	NA	NA	971.6	NA	NA		M	NA	NA	NA	NA
2019/11/20 05:02:00	AWS2	13.02	21	15.18	29	M	M	M	NA	NA	971.1	NA	NA		M	NA	NA	NA	NA
2019/11/20 05:03:00	AWS2	12.96	22	15.84	23	M	M	M	NA	NA	970.4	NA	NA		M	NA	NA	NA	NA
2019/11/20 05:04:00	AWS2	13.41	25	15.84	23	M	M	M	NA	NA	970.7	NA	NA		M	NA	NA	NA	NA
2019/11/20 05:05:00	AWS2	13.38	24	15.84	23	M	M	M	NA	NA	971.1	NA	NA		M	NA	NA	NA	NA
2019/11/20 05:06:00	AWS2	13.19	25	15.84	23	M	M	M	NA	NA	970.8	NA	NA		M	NA	NA	NA	NA
2019/11/20 05:07:00	AWS2	12.98	26	15.84	23	M	M	M	NA	NA	970.2	NA	NA		M	NA	NA	NA	NA
2019/11/20 05:08:00	AWS2	13.48	24	16.98	17	M	M	M	NA	NA	970.9	NA	NA		M	NA	NA	NA	NA
2019/11/20 05:09:00	AWS2	13.92	25	16.98	17	M	M	M	NA	NA	971.5	NA	NA		M	NA	NA	NA	NA
2019/11/20 05:10:00	AWS2	13.01	26	16.98	17	M	M	M	NA	NA	970.5	NA	NA		M	NA	NA	NA	NA
2019/11/20 05:11:00	AWS2	13.31	25	16.98	17	M	M	M	NA	NA	970.0	NA	NA		M	NA	NA	NA	NA
2019/11/20 05:12:00	AWS2	13.66	24	16.98	17	M	M	M	NA	NA	971.0	NA	NA		M	NA	NA	NA	NA
2019/11/20 05:13:00	AWS2	13.39	26	16.98	17	M	M	M	NA	NA	970.1	NA	NA		M	NA	NA	NA	NA
2019/11/20 05:14:00	AWS2	13.50	26	16.98	17	M	M	M	NA	NA	970.9	NA	NA		M	NA	NA	NA	NA
2019/11/20 05:15:00	AWS2	13.79	22	16.98	17	M	M	M	NA	NA	970.3	NA	NA		M	NA	NA	NA	NA
2019/11/20 05:16:00	AWS2	14.51	19	16.98	17	M	M	M	NA	NA	970.8	NA	NA		M	NA	NA	NA	NA
2019/11/20 05:17:00	AWS2	13.82	20	16.98	17	M	M	M	NA	NA	971.2	NA	NA		M	NA	NA	NA	NA
2019/11/20 05:18:00	AWS2	13.07	24	16.77	17	M	M	M	NA	NA	970.1	NA	NA		M	NA	NA	NA	NA
2019/11/20 05:19:00	AWS2	13.80	22	16.77	17	M	M	M	NA	NA	970.3	NA	NA		M	NA	NA	NA	NA
2019/11/20 05:20:00	AWS2	15.11	19	18.31	12	M	M	M	NA	NA	971.2	NA	NA		M	NA	NA	NA	NA
2019/11/20 05:21:00	AWS2	15.01	20	18.31	12	M	M	M	NA	NA	970.3	NA	NA		M	NA	NA	NA	NA
2019/11/20 05:22:00	AWS2	14.20	22	18.31	12	M	M	M	NA	NA	971.1	NA	NA		M	NA	NA	NA	NA
2019/11/20 05:23:00	AWS2	15.00	23	18.31	12	M	M	M	NA	NA	969.7	NA	NA		M	NA	NA	NA	NA
2019/11/20 05:24:00	AWS2	15.81	21	18.31	12	M	M	M	NA	NA	970.0	NA	NA		M	NA	NA	NA	NA
2019/11/20 05:25:00	AWS2	15.59	20	18.31	12	M	M	M	NA	NA	970.4	NA	NA		M	NA	NA	NA	NA
2019/11/20 05:26:00	AWS2	14.87	19	18.31	12	M	M	M	NA	NA	970.7	NA	NA		M	NA	NA	NA	NA
2019/11/20 05:27:00	AWS2	14.14	19	18.31	12	M	M	M	NA	NA	970.8	NA	NA		M	NA	NA	NA	NA
2019/11/20 05:28:00	AWS2	14.02	20	18.31	12	M	M	M	NA	NA	970.2	NA	NA		M	NA	NA	NA	NA
2019/11/20 05:29:00	AWS2	14.27	17	18.31	12	M	M	M	NA	NA	971.7	NA	NA		M	NA	NA	NA	NA
2019/11/20 05:30:00	AWS2	14.70	18	17.29	27	M	M	M	NA	NA	971.3	NA	NA		M	NA	NA	NA	NA
2019/11/20 05:31:00	AWS2	14.89	17	17.29	27	M	M	M	NA	NA	970.2	NA	NA		M	NA	NA	NA	NA
2019/11/20 05:32:00	AWS2	14.57	14	17.29	27	M	M	M	NA	NA	970.3	NA	NA		M	NA	NA	NA	NA
2019/11/20 05:33:00	AWS2	15.12	17	17.29	27	M	M	M	NA	NA	970.0	NA	NA		M	NA	NA	NA	NA
2019/11/20 05:34:00	AWS2	15.72	17	17.23	19	M	M	M	NA	NA	970.1	NA	NA		M	NA	NA	NA	NA
2019/11/20 05:35:00	AWS2	16.71	14	19.55	10	M	M	M	NA	NA	968.9	NA	NA		M	NA	NA	NA	NA
2019/11/20 05:36:00	AWS2	17.82	17	19.60	19	M	M	M	NA	NA	969.1	NA	NA		M	NA	NA	NA	NA
2019/11/20 05:37:00	AWS2	17.48	18	19.75	20	M	M	M	NA	NA	970.5	NA	NA		M	NA	NA	NA	NA
2019/11/20 05:38:00	AWS2	16.01	18	19.75	20	M	M	M	NA	NA	969.3	NA	NA		M	NA	NA	NA	NA
2019/11/20 05:39:00	AWS2	16.05	19	19.91	19	M	M	M	NA	NA	968.7	NA	NA		M	NA	NA	NA	NA
2019/11/20 05:40:00	AWS2	16.98	18	19.91	19	M	M	M	NA	NA	969.6	NA	NA		M	NA	NA	NA	NA
2019/11/20 05:41:00	AWS2	16.58	15	19.91	19	M	M	M	NA	NA	969.4	NA	NA		M	NA	NA	NA	NA
2019/11/20 05:42:00	AWS2	16.46	15	19.91	19	M	M	M	NA	NA	969.4	NA	NA		M	NA	NA	NA	NA
2019/11/20 05:43:00	AWS2	16.14	18	19.91	19	M	M	M	NA	NA	969.1	NA	NA		M	NA	NA	NA	NA
2019/11/20 05:44:00	AWS2	14.62	19	19.91	19	M	M	M	NA	NA	969.8	NA	NA		M	NA	NA	NA	NA
2019/11/20 05:45:00	AWS2	14.19	18	19.91	19	M	M	M	NA	NA	970.4	NA	NA		M	NA	NA	NA	NA
2019/11/20 05:46:00	AWS2	15.89	20	19.91	19	M	M	M	NA	NA	970.2	NA	NA		M	NA	NA	NA	NA
2019/11/20 05:47:00	AWS2	15.99	22	19.91	19	M	M	M	NA	NA	969.7	NA	NA		M	NA	NA	NA	NA
2019/11/20 05:48:00	AWS2	15.30	21	19.91	19	M	M	M	NA	NA	969.4	NA	NA		M	NA	NA	NA	NA
2019/11/20 05:49:00	AWS2	15.77	22	19.45	9	M	M	M	NA	NA	969.0	NA	NA		M	NA	NA	NA	NA
2019/11/20 05:50:00	AWS2	16.04	22	19.45	9	M	M	M	NA	NA	968.5	NA	NA		M	NA	NA	NA	NA
2019/11/20 05:51:00	AWS2	16.26	18	19.45	9	M	M	M	NA	NA	969.7	NA	NA		M	NA	NA	NA	NA
2019/11/20 05:52:00	AWS2	16.70	18	19.45	9	M	M	M	NA	NA	969.2	NA	NA		M	NA	NA	NA	NA
2019/11/20 05:53:00	AWS2	17.28	17	19.55	4	M	M	M	NA	NA	968.3	NA	NA		M	NA	NA	NA	NA
2019/11/20 05:54:00	AWS2	16.16	15	19.55	4	M	M	M	NA	NA	970.4	NA	NA		M	NA	NA	NA	NA
2019/11/20 05:55:00	AWS2	15.01	18	19.55	4	M	M	M	NA	NA	969.4	NA	NA		M	NA	NA	NA	NA
2019/11/20 05:56:00	AWS2	15.18	19	19.55	4	M	M	M	NA	NA	969.6	NA	NA		M	NA	NA	NA	NA
2019/11/20 05:57:00	AWS2	15.96	22	19.55	4	M	M	M	NA	NA	969.5	NA	NA		M	NA	NA	NA	NA
2019/11/20 05:58:00	AWS2	15.91	22	19.55	4	M	M	M	NA	NA	969.0	NA	NA		M	NA	NA	NA	NA
2019/11/20 05:59:00	AWS2	15.04	21	19.55	4	M	M	M	NA	NA	969.2	NA	NA		M	NA	NA	NA	NA
2019/11/20 06:00:00	AWS2	16.25	16	19.55	19	M	M	M	NA	NA	969.1	NA	NA		M	NA	NA	NA	NA
2019/11/20 06:01:00	AWS2	17.43	16	19.55	19	M	M	M	NA	NA	968.7	NA	NA		M	NA	NA	NA	NA
2019/11/20 06:02:00	AWS2	17.04	21	19.55	19	M	M	M	NA	NA	967.3	NA	NA		M	NA	NA	NA	NA
2019/11/20 06:03:00	AWS2	16.23	21	19.55	19	M	M	M	NA	NA	969.5	NA	NA		M	NA	NA	NA	NA
2019/11/20 06:04:00	AWS2	16.31	22	19.55	19	M	M	M	NA	NA	968.5	NA	NA		M	NA	NA	NA	NA
2019/11/20 06:05:00	AWS2	16.52	21	19.55	19	M	M	M	NA	NA	968.7	NA	NA		M	NA	NA	NA	NA
2019/11/20 06:06:00	AWS2	16.41	21	19.55	19	M	M	M	NA	NA	968.4	NA	NA		M	NA	NA	NA	NA
2019/11/20 06:07:00	AWS2	16.14	21	19.55	19	M	M	M	NA	NA	968.6	NA	NA		M	NA	NA	NA	NA
2019/11/20 06:08:00	AWS2	15.70	19	19.55	19	M	M	M	NA	NA	967.6	NA	NA		M	NA	NA	NA	NA
2019/11/20 06:09:00	AWS2	16.20	21	19.55	19	M	M	M	NA	NA	968.4	NA	NA		M	NA	NA	NA	NA
2019/11/20 06:10:00	AWS2	15.92	21	19.29	18	M	M	M	NA	NA	968.2	NA	NA		M	NA	NA	NA	NA
2019/11/20 06:11:00	AWS2	14.24	18	19.03	13	M	M	M	NA	NA	969.7	NA	NA		M	NA	NA	NA	NA
2019/11/20 06:12:00	AWS2	13.95	20	19.03	13	M	M	M	NA	NA	969.3	NA	NA		M	NA	NA	NA	NA
2019/11/20 06:13:00	AWS2	14.50	20	19.03	13	M	M	M	NA	NA	967.9	NA	NA		M	NA	NA	NA	NA
2019/11/20 06:14:00	AWS2	15.15	20	19.03	13	M	M	M	NA	NA	968.3	NA	NA		M	NA	NA	NA	NA
2019/11/20 06:15:00	AWS2	15.44	21	19.03	13	M	M	M	NA	NA	968.3	NA	NA		M	NA	NA	NA	NA
2019/11/20 06:16:00	AWS2	15.79	23	19.03	13	M	M	M	NA	NA	967.3	NA	NA		M	NA	NA	NA	NA
2019/11/20 06:17:00	AWS2	15.01	22	19.03	13	M	M	M	NA	NA	968.6	NA	NA		M	NA	NA	NA	NA
2019/11/20 06:18:00	AWS2	14.90	24	18.73	29	M	M	M	NA	NA	968.0	NA	NA		M	NA	NA	NA	NA
2019/11/20 06:19:00	AWS2	16.08	25	18.57	20	M	M	M	NA	NA	967.6	NA	NA		M	NA	NA	NA	NA
2019/11/20 06:20:00	AWS2	16.75	22	18.67	18	M	M	M	NA	NA	967.7	NA	NA		M	NA	NA	NA	NA
2019/11/20 06:21:00	AWS2	16.93	24	18.67	18	M	M	M	NA	NA	968.2	NA	NA		M	NA	NA	NA	NA
2019/11/20 06:22:00	AWS2	15.19	22	18.67	18	M	M	M	NA	NA	968.5	NA	NA		M	NA	NA	NA	NA
2019/11/20 06:23:00	AWS2	15.22	21	18.67	18	M	M	M	NA	NA	968.4	NA	NA		M	NA	NA	NA	NA
2019/11/20 06:24:00	AWS2	16.50	26	19.50	23	M	M	M	NA	NA	967.9	NA	NA		M	NA	NA	NA	NA
2019/11/20 06:25:00	AWS2	16.11	23	19.50	23	M	M	M	NA	NA	969.3	NA	NA		M	NA	NA	NA	NA
2019/11/20 06:26:00	AWS2	14.94	22	19.50	23	M	M	M	NA	NA	967.7	NA	NA		M	NA	NA	NA	NA
2019/11/20 06:27:00	AWS2	15.68	22	19.50	23	M	M	M	NA	NA	968.2	NA	NA		M	NA	NA	NA	NA
2019/11/20 06:28:00	AWS2	16.85	20	19.50	23	M	M	M	NA	NA	968.8	NA	NA		M	NA	NA	NA	NA
2019/11/20 06:29:00	AWS2	16.43	21	19.60	12	M	M	M	NA	NA	969.0	NA	NA		M	NA	NA	NA	NA
2019/11/20 06:30:00	AWS2	15.71	19	19.60	12	M	M	M	NA	NA	968.6	NA	NA		M	NA	NA	NA	NA
2019/11/20 06:31:00	AWS2	15.96	20	19.60	12	M	M	M	NA	NA	968.4	NA	NA		M	NA	NA	NA	NA
2019/11/20 06:32:00	AWS2	16.11	21	19.60	12	M	M	M	NA	NA	969.2	NA	NA		M	NA	NA	NA	NA
2019/11/20 06:33:00	AWS2	15.74	19	19.60	12	M	M	M	NA	NA	968.9	NA	NA		M	NA	NA	NA	NA
2019/11/20 06:34:00	AWS2	14.92	24	19.60	12	M	M	M	NA	NA	969.8	NA	NA		M	NA	NA	NA	NA
2019/11/20 06:35:00	AWS2	14.20	27	19.60	12	M	M	M	NA	NA	968.8	NA	NA		M	NA	NA	NA	NA
2019/11/20 06:36:00	AWS2	14.21	26	19.60	12	M	M	M	NA	NA	968.7	NA	NA		M	NA	NA	NA	NA
2019/11/20 06:37:00	AWS2	13.92	24	19.60	12	M	M	M	NA	NA	969.1	NA	NA		M	NA	NA	NA	NA
2019/11/20 06:38:00	AWS2	14.44	19	19.60	12	M	M	M	NA	NA	969.5	NA	NA		M	NA	NA	NA	NA
2019/11/20 06:39:00	AWS2	14.20	16	18.42	19	M	M	M	NA	NA	969.2	NA	NA		M	NA	NA	NA	NA
2019/11/20 06:40:01	AWS2	15.59	18	20.47	13	M	M	M	NA	NA	967.7	NA	NA		M	NA	NA	NA	NA
2019/11/20 06:41:00	AWS2	18.02	19	21.20	28	M	M	M	NA	NA	968.6	NA	NA		M	NA	NA	NA	NA
2019/11/20 06:42:01	AWS2	17.49	18	21.20	28	M	M	M	NA	NA	968.8	NA	NA		M	NA	NA	NA	NA
2019/11/20 06:43:00	AWS2	17.29	20	21.20	28	M	M	M	NA	NA	968.7	NA	NA		M	NA	NA	NA	NA
2019/11/20 06:44:01	AWS2	17.59	22	21.20	28	M	M	M	NA	NA	968.5	NA	NA		M	NA	NA	NA	NA
2019/11/20 06:45:00	AWS2	16.20	19	21.20	28	M	M	M	NA	NA	969.7	NA	NA		M	NA	NA	NA	NA
2019/11/20 06:46:00	AWS2	14.84	18	21.20	28	M	M	M	NA	NA	971.1	NA	NA		M	NA	NA	NA	NA
2019/11/20 06:47:00	AWS2	14.90	20	21.20	28	M	M	M	NA	NA	968.7	NA	NA		M	NA	NA	NA	NA
2019/11/20 06:48:01	AWS2	15.28	23	21.20	28	M	M	M	NA	NA	968.0	NA	NA		M	NA	NA	NA	NA
2019/11/20 06:49:00	AWS2	16.04	19	21.20	28	M	M	M	NA	NA	968.0	NA	NA		M	NA	NA	NA	NA
2019/11/20 06:50:00	AWS2	16.70	15	21.20	28	M	M	M	NA	NA	967.5	NA	NA		M	NA	NA	NA	NA
2019/11/20 06:51:00	AWS2	16.67	16	20.63	16	M	M	M	NA	NA	967.9	NA	NA		M	NA	NA	NA	NA
2019/11/20 06:52:00	AWS2	16.48	17	20.63	16	M	M	M	NA	NA	967.5	NA	NA		M	NA	NA	NA	NA
2019/11/20 06:53:00	AWS2	17.26	18	21.61	21	M	M	M	NA	NA	966.9	NA	NA		M	NA	NA	NA	NA
2019/11/20 06:54:00	AWS2	18.68	17	21.61	21	M	M	M	NA	NA	966.9	NA	NA		M	NA	NA	NA	NA
2019/11/20 06:55:00	AWS2	18.66	16	21.61	21	M	M	M	NA	NA	966.7	NA	NA		M	NA	NA	NA	NA
2019/11/20 06:56:00	AWS2	18.49	15	21.61	21	M	M	M	NA	NA	967.8	NA	NA		M	NA	NA	NA	NA
2019/11/20 06:57:00	AWS2	18.28	15	21.61	21	M	M	M	NA	NA	967.1	NA	NA		M	NA	NA	NA	NA
2019/11/20 06:58:00	AWS2	18.29	15	21.61	21	M	M	M	NA	NA	967.4	NA	NA		M	NA	NA	NA	NA
2019/11/20 06:59:00	AWS2	16.23	11	21.61	21	M	M	M	NA	NA	968.6	NA	NA		M	NA	NA	NA	NA
2019/11/20 07:00:00	AWS2	14.00	8	21.61	21	M	M	M	NA	NA	968.4	NA	NA		M	NA	NA	NA	NA
2019/11/20 07:01:00	AWS2	14.61	9	21.61	21	M	M	M	NA	NA	968.0	NA	NA		M	NA	NA	NA	NA
2019/11/20 07:02:00	AWS2	14.39	11	21.61	21	M	M	M	NA	NA	967.8	NA	NA		M	NA	NA	NA	NA
2019/11/20 07:03:00	AWS2	13.46	11	21.35	10	M	M	M	NA	NA	968.9	NA	NA		M	NA	NA	NA	NA
2019/11/20 07:04:00	AWS2	13.63	11	21.35	10	M	M	M	NA	NA	968.0	NA	NA		M	NA	NA	NA	NA
2019/11/20 07:05:00	AWS2	15.78	9	21.35	10	M	M	M	NA	NA	967.0	NA	NA		M	NA	NA	NA	NA
2019/11/20 07:06:00	AWS2	15.25	4	21.35	10	M	M	M	NA	NA	969.0	NA	NA		M	NA	NA	NA	NA
2019/11/20 07:07:00	AWS2	11.39	355	21.35	10	M	M	M	NA	NA	969.0	NA	NA		M	NA	NA	NA	NA
2019/11/20 07:08:00	AWS2	8.46	346	18.98	19	M	M	M	NA	NA	969.6	NA	NA		M	NA	NA	NA	NA
2019/11/20 07:09:00	AWS2	8.46	349	18.98	19	M	M	M	NA	NA	969.8	NA	NA		M	NA	NA	NA	NA
2019/11/20 07:10:00	AWS2	9.46	356	18.98	19	M	M	M	NA	NA	968.8	NA	NA		M	NA	NA	NA	NA
2019/11/20 07:11:00	AWS2	9.95	356	18.98	19	M	M	M	NA	NA	970.0	NA	NA		M	NA	NA	NA	NA
2019/11/20 07:12:00	AWS2	9.95	352	18.98	19	M	M	M	NA	NA	969.5	NA	NA		M	NA	NA	NA	NA
2019/11/20 07:13:00	AWS2	8.84	352	18.98	19	M	M	M	NA	NA	969.2	NA	NA		M	NA	NA	NA	NA
2019/11/20 07:14:00	AWS2	7.59	344	18.98	19	M	M	M	NA	NA	969.6	NA	NA		M	NA	NA	NA	NA
2019/11/20 07:15:00	AWS2	8.21	344	14.76	8	M	M	M	NA	NA	968.6	NA	NA		M	NA	NA	NA	NA
2019/11/20 07:16:00	AWS2	8.03	351	12.35	9	M	M	M	NA	NA	968.6	NA	NA		M	NA	NA	NA	NA
2019/11/20 07:17:00	AWS2	7.41	350	11.88	351	M	M	M	NA	NA	968.8	NA	NA		M	NA	NA	NA	NA
2019/11/20 07:18:00	AWS2	8.47	355	11.88	351	M	M	M	NA	NA	967.6	NA	NA		M	NA	NA	NA	NA
2019/11/20 07:19:00	AWS2	8.78	351	11.88	351	M	M	M	NA	NA	969.0	NA	NA		M	NA	NA	NA	NA
2019/11/20 07:20:00	AWS2	8.17	349	11.88	351	M	M	M	NA	NA	968.7	NA	NA		M	NA	NA	NA	NA
2019/11/20 07:21:00	AWS2	7.74	354	10.80	348	M	M	M	NA	NA	968.8	NA	NA		M	NA	NA	NA	NA
2019/11/20 07:22:00	AWS2	7.51	351	10.55	354	M	M	M	NA	NA	969.0	NA	NA		M	NA	NA	NA	NA
2019/11/20 07:23:00	AWS2	6.31	337	10.49	348	M	M	M	NA	NA	968.8	NA	NA		M	NA	NA	NA	NA
2019/11/20 07:24:00	AWS2	5.70	325	10.49	348	M	M	M	NA	NA	969.5	NA	NA		M	NA	NA	NA	NA
2019/11/20 07:25:00	AWS2	5.99	330	10.13	353	M	M	M	NA	NA	969.1	NA	NA		M	NA	NA	NA	NA
2019/11/20 07:26:00	AWS2	5.92	315	10.13	353	M	M	M	NA	NA	969.5	NA	NA		M	NA	NA	NA	NA
2019/11/20 07:27:00	AWS2	5.45	303	10.13	353	M	M	M	NA	NA	970.1	NA	NA		M	NA	NA	NA	NA
2019/11/20 07:28:00	AWS2	5.41	315	10.13	353	M	M	M	NA	NA	968.6	NA	NA		M	NA	NA	NA	NA
2019/11/20 07:29:00	AWS2	6.09	315	9.52	351	M	M	M	NA	NA	969.5	NA	NA		M	NA	NA	NA	NA
2019/11/20 07:30:00	AWS2	6.88	315	9.52	351	M	M	M	NA	NA	969.7	NA	NA		M	NA	NA	NA	NA
2019/11/20 07:31:00	AWS2	7.22	315	8.64	320	M	M	M	NA	NA	969.6	NA	NA		M	NA	NA	NA	NA
2019/11/20 07:32:00	AWS2	7.40	315	8.85	322	M	M	M	NA	NA	968.4	NA	NA		M	NA	NA	NA	NA
2019/11/20 07:33:00	AWS2	6.87	313	8.85	322	M	M	M	NA	NA	969.3	NA	NA		M	NA	NA	NA	NA
2019/11/20 07:34:00	AWS2	6.55	317	8.85	322	M	M	M	NA	NA	969.6	NA	NA		M	NA	NA	NA	NA
2019/11/20 07:35:00	AWS2	6.60	326	8.85	322	M	M	M	NA	NA	970.1	NA	NA		M	NA	NA	NA	NA
2019/11/20 07:36:00	AWS2	6.33	325	8.85	322	M	M	M	NA	NA	969.3	NA	NA		M	NA	NA	NA	NA
2019/11/20 07:37:00	AWS2	6.68	323	8.85	322	M	M	M	NA	NA	968.4	NA	NA		M	NA	NA	NA	NA
2019/11/20 07:38:00	AWS2	7.01	323	8.85	322	M	M	M	NA	NA	969.3	NA	NA		M	NA	NA	NA	NA
2019/11/20 07:39:00	AWS2	6.99	324	8.85	322	M	M	M	NA	NA	969.3	NA	NA		M	NA	NA	NA	NA
2019/11/20 07:40:00	AWS2	6.72	324	8.85	322	M	M	M	NA	NA	970.7	NA	NA		M	NA	NA	NA	NA
2019/11/20 07:41:00	AWS2	6.51	323	8.85	322	M	M	M	NA	NA	969.2	NA	NA		M	NA	NA	NA	NA
2019/11/20 07:42:01	AWS2	6.73	321	7.97	321	M	M	M	NA	NA	969.6	NA	NA		M	NA	NA	NA	NA
2019/11/20 07:43:01	AWS2	6.85	322	7.97	321	M	M	M	NA	NA	970.7	NA	NA		M	NA	NA	NA	NA
2019/11/20 07:44:01	AWS2	6.71	324	7.72	321	M	M	M	NA	NA	969.9	NA	NA		M	NA	NA	NA	NA
2019/11/20 07:45:01	AWS2	6.91	324	7.82	319	M	M	M	NA	NA	970.6	NA	NA		M	NA	NA	NA	NA
2019/11/20 07:46:01	AWS2	7.14	324	7.82	319	M	M	M	NA	NA	970.3	NA	NA		M	NA	NA	NA	NA
2019/11/20 07:47:01	AWS2	6.76	324	7.82	319	M	M	M	NA	NA	969.9	NA	NA		M	NA	NA	NA	NA
2019/11/20 07:48:01	AWS2	6.24	324	7.82	319	M	M	M	NA	NA	970.2	NA	NA		M	NA	NA	NA	NA
2019/11/20 07:49:01	AWS2	5.52	327	7.82	319	M	M	M	NA	NA	970.1	NA	NA		M	NA	NA	NA	NA
2019/11/20 07:50:01	AWS2	5.11	324	7.82	319	M	M	M	NA	NA	970.2	NA	NA		M	NA	NA	NA	NA
2019/11/20 07:51:01	AWS2	5.22	321	7.82	319	M	M	M	NA	NA	970.4	NA	NA		M	NA	NA	NA	NA
2019/11/20 07:52:01	AWS2	5.11	320	7.82	319	M	M	M	NA	NA	971.5	NA	NA		M	NA	NA	NA	NA
2019/11/20 07:53:01	AWS2	5.28	320	7.82	319	M	M	M	NA	NA	969.9	NA	NA		M	NA	NA	NA	NA
2019/11/20 07:54:01	AWS2	5.56	321	7.82	319	M	M	M	NA	NA	970.7	NA	NA		M	NA	NA	NA	NA
2019/11/20 07:55:01	AWS2	5.39	319	7.31	329	M	M	M	NA	NA	970.8	NA	NA		M	NA	NA	NA	NA
2019/11/20 07:56:01	AWS2	5.05	317	7.15	323	M	M	M	NA	NA	970.2	NA	NA		M	NA	NA	NA	NA
2019/11/20 07:57:01	AWS2	4.94	321	6.58	329	M	M	M	NA	NA	970.3	NA	NA		M	NA	NA	NA	NA
2019/11/20 07:58:01	AWS2	5.03	320	6.48	315	M	M	M	NA	NA	970.3	NA	NA		M	NA	NA	NA	NA
2019/11/20 07:59:01	AWS2	4.56	317	6.48	315	M	M	M	NA	NA	970.2	NA	NA		M	NA	NA	NA	NA
2019/11/20 08:00:01	AWS2	3.88	310	6.48	315	M	M	M	NA	NA	970.8	NA	NA		M	NA	NA	NA	NA
2019/11/20 08:01:01	AWS2	3.64	309	6.48	315	M	M	M	NA	NA	970.4	NA	NA		M	NA	NA	NA	NA
2019/11/20 08:02:01	AWS2	3.70	323	6.43	328	M	M	M	NA	NA	971.4	NA	NA		M	NA	NA	NA	NA
2019/11/20 08:03:01	AWS2	4.21	330	7.15	347	M	M	M	NA	NA	970.5	NA	NA		M	NA	NA	NA	NA
2019/11/20 08:04:01	AWS2	4.16	323	7.15	347	M	M	M	NA	NA	970.6	NA	NA		M	NA	NA	NA	NA
2019/11/20 08:05:01	AWS2	3.78	307	7.15	347	M	M	M	NA	NA	971.0	NA	NA		M	NA	NA	NA	NA
2019/11/20 08:06:01	AWS2	3.67	309	7.15	347	M	M	M	NA	NA	970.7	NA	NA		M	NA	NA	NA	NA
2019/11/20 08:07:01	AWS2	3.51	334	7.15	347	M	M	M	NA	NA	970.6	NA	NA		M	NA	NA	NA	NA
2019/11/20 08:08:01	AWS2	3.51	340	7.15	347	M	M	M	NA	NA	970.1	NA	NA		M	NA	NA	NA	NA
2019/11/20 08:09:01	AWS2	4.16	336	7.15	347	M	M	M	NA	NA	970.3	NA	NA		M	NA	NA	NA	NA
2019/11/20 08:10:01	AWS2	4.43	341	7.15	347	M	M	M	NA	NA	970.2	NA	NA		M	NA	NA	NA	NA
2019/11/20 08:11:01	AWS2	3.98	344	7.15	347	M	M	M	NA	NA	970.5	NA	NA		M	NA	NA	NA	NA
2019/11/20 08:12:01	AWS2	4.68	345	7.15	347	M	M	M	NA	NA	971.4	NA	NA		M	NA	NA	NA	NA
2019/11/20 08:13:01	AWS2	4.49	346	6.94	355	M	M	M	NA	NA	970.4	NA	NA		M	NA	NA	NA	NA
2019/11/20 08:14:01	AWS2	3.78	343	6.94	355	M	M	M	NA	NA	970.4	NA	NA		M	NA	NA	NA	NA
2019/11/20 08:15:01	AWS2	3.66	334	6.94	355	M	M	M	NA	NA	970.6	NA	NA		M	NA	NA	NA	NA
2019/11/20 08:16:01	AWS2	3.30	331	6.94	355	M	M	M	NA	NA	970.0	NA	NA		M	NA	NA	NA	NA
2019/11/20 08:17:01	AWS2	3.49	316	6.94	355	M	M	M	NA	NA	970.6	NA	NA		M	NA	NA	NA	NA
2019/11/20 08:18:01	AWS2	3.73	305	6.94	355	M	M	M	NA	NA	970.8	NA	NA		M	NA	NA	NA	NA
2019/11/20 08:19:01	AWS2	3.66	313	6.94	355	M	M	M	NA	NA	970.6	NA	NA		M	NA	NA	NA	NA
2019/11/20 08:20:01	AWS2	3.75	316	6.94	355	M	M	M	NA	NA	970.7	NA	NA		M	NA	NA	NA	NA
2019/11/20 08:21:01	AWS2	4.17	317	6.94	355	M	M	M	NA	NA	969.6	NA	NA		M	NA	NA	NA	NA
2019/11/20 08:22:01	AWS2	4.31	319	5.71	321	M	M	M	NA	NA	970.2	NA	NA		M	NA	NA	NA	NA
2019/11/20 08:23:01	AWS2	4.42	320	5.71	321	M	M	M	NA	NA	970.3	NA	NA		M	NA	NA	NA	NA
2019/11/20 08:24:01	AWS2	4.95	322	5.92	322	M	M	M	NA	NA	969.9	NA	NA		M	NA	NA	NA	NA
2019/11/20 08:25:01	AWS2	5.12	325	5.92	322	M	M	M	NA	NA	970.3	NA	NA		M	NA	NA	NA	NA
2019/11/20 08:26:01	AWS2	5.09	327	5.92	322	M	M	M	NA	NA	971.1	NA	NA		M	NA	NA	NA	NA
2019/11/20 08:27:01	AWS2	4.95	326	5.92	322	M	M	M	NA	NA	970.6	NA	NA		M	NA	NA	NA	NA
2019/11/20 08:28:01	AWS2	5.00	324	5.92	329	M	M	M	NA	NA	970.3	NA	NA		M	NA	NA	NA	NA
2019/11/20 08:29:01	AWS2	5.27	321	5.97	322	M	M	M	NA	NA	970.9	NA	NA		M	NA	NA	NA	NA
2019/11/20 08:30:01	AWS2	5.17	324	5.97	322	M	M	M	NA	NA	970.5	NA	NA		M	NA	NA	NA	NA
2019/11/20 08:31:01	AWS2	4.95	327	5.97	322	M	M	M	NA	NA	971.5	NA	NA		M	NA	NA	NA	NA
2019/11/20 08:32:01	AWS2	4.84	328	5.97	322	M	M	M	NA	NA	969.3	NA	NA		M	NA	NA	NA	NA
2019/11/20 08:33:01	AWS2	4.66	328	5.97	322	M	M	M	NA	NA	971.2	NA	NA		M	NA	NA	NA	NA
2019/11/20 08:34:01	AWS2	4.52	321	6.17	325	M	M	M	NA	NA	970.2	NA	NA		M	NA	NA	NA	NA
2019/11/20 08:35:01	AWS2	4.72	322	6.17	325	M	M	M	NA	NA	970.0	NA	NA		M	NA	NA	NA	NA
2019/11/20 08:36:01	AWS2	4.80	324	6.17	325	M	M	M	NA	NA	970.0	NA	NA		M	NA	NA	NA	NA
2019/11/20 08:37:01	AWS2	4.46	319	6.17	325	M	M	M	NA	NA	971.3	NA	NA		M	NA	NA	NA	NA
2019/11/20 08:38:01	AWS2	4.16	313	6.94	315	M	M	M	NA	NA	970.3	NA	NA		M	NA	NA	NA	NA
2019/11/20 08:39:01	AWS2	4.79	313	7.41	318	M	M	M	NA	NA	970.5	NA	NA		M	NA	NA	NA	NA
2019/11/20 08:40:01	AWS2	5.85	317	7.61	341	M	M	M	NA	NA	969.6	NA	NA		M	NA	NA	NA	NA
2019/11/20 08:41:01	AWS2	6.85	320	8.28	314	M	M	M	NA	NA	970.1	NA	NA		M	NA	NA	NA	NA
2019/11/20 08:42:01	AWS2	7.45	317	8.28	314	M	M	M	NA	NA	969.6	NA	NA		M	NA	NA	NA	NA
2019/11/20 08:43:01	AWS2	7.40	311	8.54	298	M	M	M	NA	NA	969.7	NA	NA		M	NA	NA	NA	NA
2019/11/20 08:44:01	AWS2	7.98	306	9.21	302	M	M	M	NA	NA	970.5	NA	NA		M	NA	NA	NA	NA
2019/11/20 08:45:01	AWS2	8.39	301	9.21	302	M	M	M	NA	NA	969.7	NA	NA		M	NA	NA	NA	NA
2019/11/20 08:46:01	AWS2	8.06	297	9.21	302	M	M	M	NA	NA	970.1	NA	NA		M	NA	NA	NA	NA
2019/11/20 08:47:01	AWS2	8.23	295	9.77	294	M	M	M	NA	NA	969.6	NA	NA		M	NA	NA	NA	NA
2019/11/20 08:48:01	AWS2	8.89	291	10.34	288	M	M	M	NA	NA	970.1	NA	NA		M	NA	NA	NA	NA
2019/11/20 08:49:01	AWS2	9.75	282	12.60	267	M	M	M	NA	NA	969.7	NA	NA		M	NA	NA	NA	NA
2019/11/20 08:50:01	AWS2	11.14	275	12.60	270	M	M	M	NA	NA	970.1	NA	NA		M	NA	NA	NA	NA
2019/11/20 08:51:01	AWS2	11.85	275	12.60	272	M	M	M	NA	NA	971.1	NA	NA		M	NA	NA	NA	NA
2019/11/20 08:52:01	AWS2	11.57	275	12.81	272	M	M	M	NA	NA	970.7	NA	NA		M	NA	NA	NA	NA
2019/11/20 08:53:01	AWS2	11.99	273	13.74	274	M	M	M	NA	NA	970.1	NA	NA		M	NA	NA	NA	NA
2019/11/20 08:54:01	AWS2	12.54	271	14.04	273	M	M	M	NA	NA	970.2	NA	NA		M	NA	NA	NA	NA
2019/11/20 08:55:01	AWS2	11.71	272	14.04	273	M	M	M	NA	NA	970.5	NA	NA		M	NA	NA	NA	NA
2019/11/20 08:56:01	AWS2	11.14	267	14.04	273	M	M	M	NA	NA	970.3	NA	NA		M	NA	NA	NA	NA
2019/11/20 08:57:01	AWS2	12.00	263	14.04	273	M	M	M	NA	NA	971.4	NA	NA		M	NA	NA	NA	NA
2019/11/20 08:58:01	AWS2	12.26	265	14.04	273	M	M	M	NA	NA	971.2	NA	NA		M	NA	NA	NA	NA
2019/11/20 08:59:01	AWS2	12.02	266	14.04	273	M	M	M	NA	NA	970.1	NA	NA		M	NA	NA	NA	NA
2019/11/20 09:00:01	AWS2	11.50	264	14.04	273	M	M	M	NA	NA	970.3	NA	NA		M	NA	NA	NA	NA
2019/11/20 09:01:01	AWS2	11.79	261	14.04	273	M	M	M	NA	NA	970.8	NA	NA		M	NA	NA	NA	NA
2019/11/20 09:02:01	AWS2	12.36	263	14.04	273	M	M	M	NA	NA	971.0	NA	NA		M	NA	NA	NA	NA
2019/11/20 09:03:01	AWS2	12.05	264	14.04	273	M	M	M	NA	NA	970.1	NA	NA		M	NA	NA	NA	NA
2019/11/20 09:04:01	AWS2	12.15	262	13.89	259	M	M	M	NA	NA	970.2	NA	NA		M	NA	NA	NA	NA
2019/11/20 09:05:01	AWS2	13.02	260	14.97	261	M	M	M	NA	NA	970.1	NA	NA		M	NA	NA	NA	NA
2019/11/20 09:06:01	AWS2	12.72	259	14.97	261	M	M	M	NA	NA	970.5	NA	NA		M	NA	NA	NA	NA
2019/11/20 09:07:01	AWS2	12.17	260	14.97	261	M	M	M	NA	NA	970.5	NA	NA		M	NA	NA	NA	NA
2019/11/20 09:08:01	AWS2	11.87	259	14.97	261	M	M	M	NA	NA	969.4	NA	NA		M	NA	NA	NA	NA
2019/11/20 09:09:01	AWS2	11.61	257	14.97	261	M	M	M	NA	NA	968.9	NA	NA		M	NA	NA	NA	NA
2019/11/20 09:10:01	AWS2	12.04	255	14.97	261	M	M	M	NA	NA	969.6	NA	NA		M	NA	NA	NA	NA
2019/11/20 09:11:01	AWS2	12.28	253	14.97	261	M	M	M	NA	NA	969.2	NA	NA		M	NA	NA	NA	NA
2019/11/20 09:12:01	AWS2	12.32	252	14.97	261	M	M	M	NA	NA	970.3	NA	NA		M	NA	NA	NA	NA
2019/11/20 09:13:01	AWS2	12.22	254	14.97	261	M	M	M	NA	NA	967.3	NA	NA		M	NA	NA	NA	NA
2019/11/20 09:14:01	AWS2	11.77	256	14.97	261	M	M	M	NA	NA	969.2	NA	NA		M	NA	NA	NA	NA
2019/11/20 09:15:01	AWS2	11.58	252	14.15	249	M	M	M	NA	NA	968.8	NA	NA		M	NA	NA	NA	NA
2019/11/20 09:16:01	AWS2	13.34	244	16.20	241	M	M	M	NA	NA	968.9	NA	NA		M	NA	NA	NA	NA
2019/11/20 09:17:01	AWS2	14.03	238	16.20	241	M	M	M	NA	NA	969.3	NA	NA		M	NA	NA	NA	NA
2019/11/20 09:18:01	AWS2	13.88	238	16.20	241	M	M	M	NA	NA	969.2	NA	NA		M	NA	NA	NA	NA
2019/11/20 09:19:01	AWS2	13.52	238	16.20	241	M	M	M	NA	NA	970.1	NA	NA		M	NA	NA	NA	NA
2019/11/20 09:20:01	AWS2	13.62	238	16.67	242	M	M	M	NA	NA	969.9	NA	NA		M	NA	NA	NA	NA
2019/11/20 09:21:01	AWS2	14.31	237	16.67	237	M	M	M	NA	NA	969.9	NA	NA		M	NA	NA	NA	NA
2019/11/20 09:22:01	AWS2	14.02	234	16.67	237	M	M	M	NA	NA	969.5	NA	NA		M	NA	NA	NA	NA
2019/11/20 09:23:01	AWS2	14.26	235	16.87	241	M	M	M	NA	NA	969.9	NA	NA		M	NA	NA	NA	NA
2019/11/20 09:24:01	AWS2	14.95	237	16.87	241	M	M	M	NA	NA	970.9	NA	NA		M	NA	NA	NA	NA
2019/11/20 09:25:01	AWS2	14.85	236	16.87	241	M	M	M	NA	NA	970.6	NA	NA		M	NA	NA	NA	NA
2019/11/20 09:26:01	AWS2	14.12	238	16.87	241	M	M	M	NA	NA	971.2	NA	NA		M	NA	NA	NA	NA
2019/11/20 09:27:01	AWS2	14.30	238	16.87	241	M	M	M	NA	NA	970.0	NA	NA		M	NA	NA	NA	NA
2019/11/20 09:28:01	AWS2	14.86	236	16.87	241	M	M	M	NA	NA	970.1	NA	NA		M	NA	NA	NA	NA
2019/11/20 09:29:01	AWS2	13.61	238	16.87	241	M	M	M	NA	NA	970.1	NA	NA		M	NA	NA	NA	NA
2019/11/20 09:30:01	AWS2	13.39	240	16.87	241	M	M	M	NA	NA	971.5	NA	NA		M	NA	NA	NA	NA
2019/11/20 09:31:01	AWS2	13.97	241	16.87	241	M	M	M	NA	NA	969.7	NA	NA		M	NA	NA	NA	NA
2019/11/20 09:32:01	AWS2	13.33	244	16.87	241	M	M	M	NA	NA	969.7	NA	NA		M	NA	NA	NA	NA
2019/11/20 09:33:01	AWS2	13.88	245	16.87	241	M	M	M	NA	NA	970.5	NA	NA		M	NA	NA	NA	NA
2019/11/20 09:34:01	AWS2	13.02	246	16.51	236	M	M	M	NA	NA	970.0	NA	NA		M	NA	NA	NA	NA
2019/11/20 09:35:01	AWS2	12.59	245	16.41	244	M	M	M	NA	NA	971.0	NA	NA		M	NA	NA	NA	NA
2019/11/20 09:36:01	AWS2	14.23	241	16.41	244	M	M	M	NA	NA	970.3	NA	NA		M	NA	NA	NA	NA
2019/11/20 09:37:01	AWS2	14.18	241	16.41	244	M	M	M	NA	NA	969.2	NA	NA		M	NA	NA	NA	NA
2019/11/20 09:38:01	AWS2	13.75	239	16.41	244	M	M	M	NA	NA	969.9	NA	NA		M	NA	NA	NA	NA
2019/11/20 09:39:01	AWS2	14.47	238	16.41	244	M	M	M	NA	NA	971.1	NA	NA		M	NA	NA	NA	NA
2019/11/20 09:40:01	AWS2	14.92	240	16.41	244	M	M	M	NA	NA	971.0	NA	NA		M	NA	NA	NA	NA
2019/11/20 09:41:01	AWS2	14.95	239	17.13	233	M	M	M	NA	NA	970.7	NA	NA		M	NA	NA	NA	NA
2019/11/20 09:42:01	AWS2	13.86	240	17.13	233	M	M	M	NA	NA	971.5	NA	NA		M	NA	NA	NA	NA
2019/11/20 09:43:01	AWS2	13.78	243	17.13	233	M	M	M	NA	NA	971.0	NA	NA		M	NA	NA	NA	NA
2019/11/20 09:44:01	AWS2	14.85	242	17.13	233	M	M	M	NA	NA	969.5	NA	NA		M	NA	NA	NA	NA
2019/11/20 09:45:01	AWS2	14.71	241	17.13	233	M	M	M	NA	NA	969.4	NA	NA		M	NA	NA	NA	NA
2019/11/20 09:46:01	AWS2	14.58	242	17.13	233	M	M	M	NA	NA	970.7	NA	NA		M	NA	NA	NA	NA
2019/11/20 09:47:01	AWS2	13.81	241	17.13	233	M	M	M	NA	NA	970.5	NA	NA		M	NA	NA	NA	NA
2019/11/20 09:48:01	AWS2	13.12	240	17.13	233	M	M	M	NA	NA	970.0	NA	NA		M	NA	NA	NA	NA
2019/11/20 09:49:01	AWS2	13.51	241	17.13	233	M	M	M	NA	NA	970.8	NA	NA		M	NA	NA	NA	NA
2019/11/20 09:50:01	AWS2	13.34	242	17.13	233	M	M	M	NA	NA	971.5	NA	NA		M	NA	NA	NA	NA
2019/11/20 09:51:01	AWS2	12.35	242	16.87	244	M	M	M	NA	NA	970.6	NA	NA		M	NA	NA	NA	NA
2019/11/20 09:52:01	AWS2	12.48	241	16.87	244	M	M	M	NA	NA	970.4	NA	NA		M	NA	NA	NA	NA
2019/11/20 09:53:01	AWS2	12.49	239	16.87	244	M	M	M	NA	NA	970.3	NA	NA		M	NA	NA	NA	NA
2019/11/20 09:54:01	AWS2	12.43	238	16.87	244	M	M	M	NA	NA	971.5	NA	NA		M	NA	NA	NA	NA
2019/11/20 09:55:01	AWS2	12.99	238	16.26	240	M	M	M	NA	NA	971.1	NA	NA		M	NA	NA	NA	NA
2019/11/20 09:56:01	AWS2	13.49	237	16.00	234	M	M	M	NA	NA	971.8	NA	NA		M	NA	NA	NA	NA
2019/11/20 09:57:01	AWS2	13.83	237	16.00	234	M	M	M	NA	NA	971.1	NA	NA		M	NA	NA	NA	NA
2019/11/20 09:58:01	AWS2	14.00	237	16.00	234	M	M	M	NA	NA	971.5	NA	NA		M	NA	NA	NA	NA
2019/11/20 09:59:01	AWS2	13.89	236	16.00	234	M	M	M	NA	NA	971.3	NA	NA		M	NA	NA	NA	NA
2019/11/20 10:00:01	AWS2	14.36	236	16.51	234	M	M	M	NA	NA	970.5	NA	NA		M	NA	NA	NA	NA
2019/11/20 10:01:01	AWS2	13.95	237	16.51	234	M	M	M	NA	NA	970.9	NA	NA		M	NA	NA	NA	NA
2019/11/20 10:02:01	AWS2	12.84	240	16.51	234	M	M	M	NA	NA	971.7	NA	NA		M	NA	NA	NA	NA
2019/11/20 10:03:01	AWS2	13.70	241	16.51	234	M	M	M	NA	NA	970.7	NA	NA		M	NA	NA	NA	NA
2019/11/20 10:04:01	AWS2	14.28	239	16.51	234	M	M	M	NA	NA	970.9	NA	NA		M	NA	NA	NA	NA
2019/11/20 10:05:01	AWS2	13.50	235	16.51	234	M	M	M	NA	NA	971.9	NA	NA		M	NA	NA	NA	NA
2019/11/20 10:06:01	AWS2	12.95	233	16.51	234	M	M	M	NA	NA	971.8	NA	NA		M	NA	NA	NA	NA
2019/11/20 10:07:01	AWS2	13.14	233	16.51	234	M	M	M	NA	NA	972.2	NA	NA		M	NA	NA	NA	NA
2019/11/20 10:08:01	AWS2	13.22	233	16.51	234	M	M	M	NA	NA	972.8	NA	NA		M	NA	NA	NA	NA
2019/11/20 10:09:01	AWS2	14.05	234	16.51	234	M	M	M	NA	NA	970.4	NA	NA		M	NA	NA	NA	NA
2019/11/20 10:10:01	AWS2	13.97	233	15.64	238	M	M	M	NA	NA	971.3	NA	NA		M	NA	NA	NA	NA
2019/11/20 10:11:01	AWS2	12.92	232	15.64	238	M	M	M	NA	NA	972.2	NA	NA		M	NA	NA	NA	NA
2019/11/20 10:12:01	AWS2	12.34	231	15.64	238	M	M	M	NA	NA	972.1	NA	NA		M	NA	NA	NA	NA
2019/11/20 10:13:01	AWS2	12.51	232	15.64	238	M	M	M	NA	NA	971.7	NA	NA		M	NA	NA	NA	NA
2019/11/20 10:14:01	AWS2	12.76	234	15.64	238	M	M	M	NA	NA	972.4	NA	NA		M	NA	NA	NA	NA
2019/11/20 10:15:01	AWS2	13.29	237	17.65	241	M	M	M	NA	NA	972.3	NA	NA		M	NA	NA	NA	NA
2019/11/20 10:16:01	AWS2	15.30	237	18.11	237	M	M	M	NA	NA	972.9	NA	NA		M	NA	NA	NA	NA
2019/11/20 10:17:01	AWS2	16.41	234	18.11	237	M	M	M	NA	NA	971.3	NA	NA		M	NA	NA	NA	NA
2019/11/20 10:18:01	AWS2	16.16	233	18.11	237	M	M	M	NA	NA	971.8	NA	NA		M	NA	NA	NA	NA
2019/11/20 10:19:01	AWS2	14.94	230	18.11	237	M	M	M	NA	NA	971.6	NA	NA		M	NA	NA	NA	NA
2019/11/20 10:20:01	AWS2	14.44	228	18.11	237	M	M	M	NA	NA	972.0	NA	NA		M	NA	NA	NA	NA
2019/11/20 10:21:01	AWS2	14.87	228	18.11	237	M	M	M	NA	NA	972.5	NA	NA		M	NA	NA	NA	NA
2019/11/20 10:22:01	AWS2	14.75	231	18.11	237	M	M	M	NA	NA	972.2	NA	NA		M	NA	NA	NA	NA
2019/11/20 10:23:01	AWS2	14.99	234	18.11	237	M	M	M	NA	NA	973.0	NA	NA		M	NA	NA	NA	NA
2019/11/20 10:24:01	AWS2	14.08	233	18.11	237	M	M	M	NA	NA	973.2	NA	NA		M	NA	NA	NA	NA
2019/11/20 10:25:01	AWS2	12.67	236	18.11	237	M	M	M	NA	NA	971.4	NA	NA		M	NA	NA	NA	NA
2019/11/20 10:26:01	AWS2	14.22	238	17.18	229	M	M	M	NA	NA	971.5	NA	NA		M	NA	NA	NA	NA
2019/11/20 10:27:01	AWS2	15.79	234	17.18	229	M	M	M	NA	NA	972.2	NA	NA		M	NA	NA	NA	NA
2019/11/20 10:28:01	AWS2	15.12	235	17.18	229	M	M	M	NA	NA	973.2	NA	NA		M	NA	NA	NA	NA
2019/11/20 10:29:01	AWS2	14.92	237	17.18	229	M	M	M	NA	NA	973.0	NA	NA		M	NA	NA	NA	NA
2019/11/20 10:30:01	AWS2	14.66	234	17.18	229	M	M	M	NA	NA	973.3	NA	NA		M	NA	NA	NA	NA
2019/11/20 10:31:01	AWS2	14.10	231	17.03	233	M	M	M	NA	NA	973.8	NA	NA		M	NA	NA	NA	NA
2019/11/20 10:32:01	AWS2	13.79	233	17.03	233	M	M	M	NA	NA	973.6	NA	NA		M	NA	NA	NA	NA
2019/11/20 10:33:01	AWS2	13.78	236	17.03	233	M	M	M	NA	NA	972.8	NA	NA		M	NA	NA	NA	NA
2019/11/20 10:34:01	AWS2	14.61	232	17.03	233	M	M	M	NA	NA	972.6	NA	NA		M	NA	NA	NA	NA
2019/11/20 10:35:01	AWS2	14.61	233	17.03	233	M	M	M	NA	NA	973.2	NA	NA		M	NA	NA	NA	NA
2019/11/20 10:36:01	AWS2	14.08	235	17.03	233	M	M	M	NA	NA	974.3	NA	NA		M	NA	NA	NA	NA
2019/11/20 10:37:01	AWS2	13.73	235	16.62	233	M	M	M	NA	NA	973.7	NA	NA		M	NA	NA	NA	NA
2019/11/20 10:38:01	AWS2	12.56	234	16.62	233	M	M	M	NA	NA	973.8	NA	NA		M	NA	NA	NA	NA
2019/11/20 10:39:01	AWS2	12.65	236	16.57	231	M	M	M	NA	NA	972.7	NA	NA		M	NA	NA	NA	NA
2019/11/20 10:40:01	AWS2	12.74	237	15.95	237	M	M	M	NA	NA	972.7	NA	NA		M	NA	NA	NA	NA
2019/11/20 10:41:01	AWS2	13.16	234	15.95	237	M	M	M	NA	NA	972.6	NA	NA		M	NA	NA	NA	NA
2019/11/20 10:42:01	AWS2	14.28	233	15.95	237	M	M	M	NA	NA	973.9	NA	NA		M	NA	NA	NA	NA
2019/11/20 10:43:01	AWS2	14.23	236	16.10	240	M	M	M	NA	NA	972.6	NA	NA		M	NA	NA	NA	NA
2019/11/20 10:44:01	AWS2	13.89	236	16.10	240	M	M	M	NA	NA	974.6	NA	NA		M	NA	NA	NA	NA
2019/11/20 10:45:01	AWS2	14.49	232	17.18	226	M	M	M	NA	NA	973.9	NA	NA		M	NA	NA	NA	NA
2019/11/20 10:46:01	AWS2	14.93	229	17.18	226	M	M	M	NA	NA	973.8	NA	NA		M	NA	NA	NA	NA
2019/11/20 10:47:01	AWS2	13.90	228	17.18	226	M	M	M	NA	NA	974.2	NA	NA		M	NA	NA	NA	NA
2019/11/20 10:48:01	AWS2	12.95	230	17.18	226	M	M	M	NA	NA	974.0	NA	NA		M	NA	NA	NA	NA
2019/11/20 10:49:01	AWS2	13.28	231	17.18	226	M	M	M	NA	NA	973.7	NA	NA		M	NA	NA	NA	NA
2019/11/20 10:50:01	AWS2	13.99	228	17.18	226	M	M	M	NA	NA	973.4	NA	NA		M	NA	NA	NA	NA
2019/11/20 10:51:01	AWS2	13.68	229	17.18	226	M	M	M	NA	NA	973.4	NA	NA		M	NA	NA	NA	NA
2019/11/20 10:52:01	AWS2	13.38	233	17.18	226	M	M	M	NA	NA	972.9	NA	NA		M	NA	NA	NA	NA
2019/11/20 10:53:01	AWS2	13.35	235	17.18	226	M	M	M	NA	NA	973.5	NA	NA		M	NA	NA	NA	NA
2019/11/20 10:54:01	AWS2	13.06	232	17.18	226	M	M	M	NA	NA	974.5	NA	NA		M	NA	NA	NA	NA
2019/11/20 10:55:01	AWS2	12.88	230	15.59	230	M	M	M	NA	NA	973.5	NA	NA		M	NA	NA	NA	NA
2019/11/20 10:56:01	AWS2	13.43	229	15.54	228	M	M	M	NA	NA	973.4	NA	NA		M	NA	NA	NA	NA
2019/11/20 10:57:01	AWS2	12.97	229	15.54	228	M	M	M	NA	NA	973.3	NA	NA		M	NA	NA	NA	NA
2019/11/20 10:58:01	AWS2	12.26	229	15.54	228	M	M	M	NA	NA	973.7	NA	NA		M	NA	NA	NA	NA
2019/11/20 10:59:01	AWS2	11.95	226	15.54	228	M	M	M	NA	NA	974.7	NA	NA		M	NA	NA	NA	NA
2019/11/20 11:00:01	AWS2	11.88	230	15.54	228	M	M	M	NA	NA	974.4	NA	NA		M	NA	NA	NA	NA
2019/11/20 11:01:01	AWS2	12.45	237	15.54	228	M	M	M	NA	NA	974.2	NA	NA		M	NA	NA	NA	NA
2019/11/20 11:02:01	AWS2	12.30	235	15.54	228	M	M	M	NA	NA	974.7	NA	NA		M	NA	NA	NA	NA
2019/11/20 11:03:01	AWS2	12.49	231	15.54	228	M	M	M	NA	NA	974.8	NA	NA		M	NA	NA	NA	NA
2019/11/20 11:04:01	AWS2	12.73	230	15.54	228	M	M	M	NA	NA	975.7	NA	NA		M	NA	NA	NA	NA
2019/11/20 11:05:01	AWS2	12.67	228	15.54	228	M	M	M	NA	NA	974.0	NA	NA		M	NA	NA	NA	NA
2019/11/20 11:06:01	AWS2	12.20	232	14.76	237	M	M	M	NA	NA	974.5	NA	NA		M	NA	NA	NA	NA
2019/11/20 11:07:01	AWS2	11.17	232	14.76	237	M	M	M	NA	NA	973.9	NA	NA		M	NA	NA	NA	NA
2019/11/20 11:08:01	AWS2	10.10	230	14.76	237	M	M	M	NA	NA	975.2	NA	NA		M	NA	NA	NA	NA
2019/11/20 11:09:00	AWS2	9.32	230	14.76	237	M	M	M	NA	NA	975.2	NA	NA		M	NA	NA	NA	NA
2019/11/20 11:10:01	AWS2	10.78	234	14.51	242	M	M	M	NA	NA	974.7	NA	NA		M	NA	NA	NA	NA
2019/11/20 11:11:01	AWS2	12.35	238	14.51	242	M	M	M	NA	NA	974.3	NA	NA		M	NA	NA	NA	NA
2019/11/20 11:12:01	AWS2	11.97	236	14.51	242	M	M	M	NA	NA	974.5	NA	NA		M	NA	NA	NA	NA
2019/11/20 11:13:00	AWS2	11.65	234	14.51	242	M	M	M	NA	NA	974.4	NA	NA		M	NA	NA	NA	NA
2019/11/20 11:14:01	AWS2	12.72	233	16.77	235	M	M	M	NA	NA	975.5	NA	NA		M	NA	NA	NA	NA
2019/11/20 11:15:01	AWS2	14.15	233	16.77	235	M	M	M	NA	NA	974.4	NA	NA		M	NA	NA	NA	NA
2019/11/20 11:16:01	AWS2	13.48	232	16.77	235	M	M	M	NA	NA	975.2	NA	NA		M	NA	NA	NA	NA
2019/11/20 11:17:00	AWS2	12.27	229	16.77	235	M	M	M	NA	NA	975.2	NA	NA		M	NA	NA	NA	NA
2019/11/20 11:18:01	AWS2	11.68	228	16.77	235	M	M	M	NA	NA	975.3	NA	NA		M	NA	NA	NA	NA
2019/11/20 11:19:00	AWS2	10.97	231	16.77	235	M	M	M	NA	NA	975.8	NA	NA		M	NA	NA	NA	NA
2019/11/20 11:20:00	AWS2	11.85	232	16.77	235	M	M	M	NA	NA	975.9	NA	NA		M	NA	NA	NA	NA
2019/11/20 11:21:01	AWS2	12.76	233	16.77	235	M	M	M	NA	NA	974.8	NA	NA		M	NA	NA	NA	NA
2019/11/20 11:22:01	AWS2	12.72	236	16.77	235	M	M	M	NA	NA	975.2	NA	NA		M	NA	NA	NA	NA
2019/11/20 11:23:01	AWS2	13.23	236	16.77	235	M	M	M	NA	NA	975.1	NA	NA		M	NA	NA	NA	NA
2019/11/20 11:24:01	AWS2	13.70	233	16.36	231	M	M	M	NA	NA	974.9	NA	NA		M	NA	NA	NA	NA
2019/11/20 11:25:01	AWS2	13.08	231	15.43	234	M	M	M	NA	NA	976.1	NA	NA		M	NA	NA	NA	NA
2019/11/20 11:26:01	AWS2	12.53	232	15.43	234	M	M	M	NA	NA	974.8	NA	NA		M	NA	NA	NA	NA
2019/11/20 11:27:01	AWS2	12.59	236	15.43	234	M	M	M	NA	NA	974.6	NA	NA		M	NA	NA	NA	NA
2019/11/20 11:28:01	AWS2	12.13	239	15.43	234	M	M	M	NA	NA	974.8	NA	NA		M	NA	NA	NA	NA
2019/11/20 11:29:01	AWS2	11.61	240	15.43	234	M	M	M	NA	NA	973.4	NA	NA		M	NA	NA	NA	NA
2019/11/20 11:30:01	AWS2	10.90	240	15.43	234	M	M	M	NA	NA	974.3	NA	NA		M	NA	NA	NA	NA
2019/11/20 11:31:01	AWS2	11.37	239	15.43	234	M	M	M	NA	NA	975.6	NA	NA		M	NA	NA	NA	NA
2019/11/20 11:32:01	AWS2	12.10	237	15.43	234	M	M	M	NA	NA	974.1	NA	NA		M	NA	NA	NA	NA
2019/11/20 11:33:01	AWS2	12.02	239	15.18	236	M	M	M	NA	NA	973.5	NA	NA		M	NA	NA	NA	NA
2019/11/20 11:34:01	AWS2	12.35	239	13.89	240	M	M	M	NA	NA	974.0	NA	NA		M	NA	NA	NA	NA
2019/11/20 11:35:01	AWS2	12.23	238	13.89	240	M	M	M	NA	NA	974.2	NA	NA		M	NA	NA	NA	NA
2019/11/20 11:36:01	AWS2	11.54	239	13.89	240	M	M	M	NA	NA	974.6	NA	NA		M	NA	NA	NA	NA
2019/11/20 11:37:01	AWS2	10.68	239	13.89	240	M	M	M	NA	NA	973.5	NA	NA		M	NA	NA	NA	NA
2019/11/20 11:38:01	AWS2	11.05	239	13.89	240	M	M	M	NA	NA	973.9	NA	NA		M	NA	NA	NA	NA
2019/11/20 11:39:01	AWS2	10.73	240	13.89	240	M	M	M	NA	NA	974.0	NA	NA		M	NA	NA	NA	NA
2019/11/20 11:40:01	AWS2	9.97	238	13.89	240	M	M	M	NA	NA	974.3	NA	NA		M	NA	NA	NA	NA
2019/11/20 11:41:01	AWS2	10.54	237	13.84	243	M	M	M	NA	NA	974.2	NA	NA		M	NA	NA	NA	NA
2019/11/20 11:42:01	AWS2	11.01	240	13.84	243	M	M	M	NA	NA	975.1	NA	NA		M	NA	NA	NA	NA
2019/11/20 11:43:01	AWS2	10.11	243	13.38	239	M	M	M	NA	NA	975.1	NA	NA		M	NA	NA	NA	NA
2019/11/20 11:44:01	AWS2	10.13	241	12.81	246	M	M	M	NA	NA	975.6	NA	NA		M	NA	NA	NA	NA
2019/11/20 11:45:01	AWS2	10.91	236	13.12	229	M	M	M	NA	NA	975.3	NA	NA		M	NA	NA	NA	NA
2019/11/20 11:46:01	AWS2	11.68	236	14.15	234	M	M	M	NA	NA	974.1	NA	NA		M	NA	NA	NA	NA
2019/11/20 11:47:01	AWS2	11.89	236	14.15	234	M	M	M	NA	NA	975.1	NA	NA		M	NA	NA	NA	NA
2019/11/20 11:48:01	AWS2	10.83	235	14.15	234	M	M	M	NA	NA	974.3	NA	NA		M	NA	NA	NA	NA
2019/11/20 11:49:01	AWS2	10.95	236	14.15	234	M	M	M	NA	NA	974.7	NA	NA		M	NA	NA	NA	NA
2019/11/20 11:50:01	AWS2	10.97	238	14.15	234	M	M	M	NA	NA	974.2	NA	NA		M	NA	NA	NA	NA
2019/11/20 11:51:01	AWS2	10.46	237	14.15	234	M	M	M	NA	NA	974.7	NA	NA		M	NA	NA	NA	NA
2019/11/20 11:52:01	AWS2	10.53	237	14.15	234	M	M	M	NA	NA	973.8	NA	NA		M	NA	NA	NA	NA
2019/11/20 11:53:01	AWS2	11.02	236	14.15	234	M	M	M	NA	NA	975.2	NA	NA		M	NA	NA	NA	NA
2019/11/20 11:54:01	AWS2	11.08	232	14.15	234	M	M	M	NA	NA	974.6	NA	NA		M	NA	NA	NA	NA
2019/11/20 11:55:01	AWS2	10.95	231	14.15	234	M	M	M	NA	NA	974.9	NA	NA		M	NA	NA	NA	NA
2019/11/20 11:56:01	AWS2	10.61	229	12.91	234	M	M	M	NA	NA	976.2	NA	NA		M	NA	NA	NA	NA
2019/11/20 11:57:01	AWS2	10.01	227	12.50	240	M	M	M	NA	NA	974.5	NA	NA		M	NA	NA	NA	NA
2019/11/20 11:58:01	AWS2	9.97	227	12.50	240	M	M	M	NA	NA	973.6	NA	NA		M	NA	NA	NA	NA
2019/11/20 11:59:01	AWS2	9.82	227	12.50	240	M	M	M	NA	NA	974.7	NA	NA		M	NA	NA	NA	NA
2019/11/20 12:00:01	AWS2	9.34	228	12.50	240	M	M	M	NA	NA	975.4	NA	NA		M	NA	NA	NA	NA
2019/11/20 12:01:01	AWS2	9.93	231	12.35	227	M	M	M	NA	NA	974.1	NA	NA		M	NA	NA	NA	NA
2019/11/20 12:02:01	AWS2	10.36	233	12.35	227	M	M	M	NA	NA	974.6	NA	NA		M	NA	NA	NA	NA
2019/11/20 12:03:01	AWS2	10.10	233	12.35	227	M	M	M	NA	NA	974.6	NA	NA		M	NA	NA	NA	NA
2019/11/20 12:04:01	AWS2	9.95	234	11.99	233	M	M	M	NA	NA	975.7	NA	NA		M	NA	NA	NA	NA
2019/11/20 12:05:01	AWS2	9.76	230	11.88	233	M	M	M	NA	NA	975.1	NA	NA		M	NA	NA	NA	NA
2019/11/20 12:06:01	AWS2	9.23	228	11.88	233	M	M	M	NA	NA	974.8	NA	NA		M	NA	NA	NA	NA
2019/11/20 12:07:01	AWS2	8.37	229	11.88	233	M	M	M	NA	NA	975.0	NA	NA		M	NA	NA	NA	NA
2019/11/20 12:08:01	AWS2	7.90	233	11.88	233	M	M	M	NA	NA	974.6	NA	NA		M	NA	NA	NA	NA
2019/11/20 12:09:01	AWS2	8.34	234	11.88	233	M	M	M	NA	NA	974.8	NA	NA		M	NA	NA	NA	NA
2019/11/20 12:10:01	AWS2	9.06	230	11.88	233	M	M	M	NA	NA	975.2	NA	NA		M	NA	NA	NA	NA
2019/11/20 12:11:01	AWS2	8.71	230	11.37	228	M	M	M	NA	NA	974.6	NA	NA		M	NA	NA	NA	NA
2019/11/20 12:12:01	AWS2	8.89	232	11.37	228	M	M	M	NA	NA	975.7	NA	NA		M	NA	NA	NA	NA
2019/11/20 12:13:01	AWS2	9.87	231	11.37	228	M	M	M	NA	NA	974.3	NA	NA		M	NA	NA	NA	NA
2019/11/20 12:14:01	AWS2	9.71	233	10.91	233	M	M	M	NA	NA	974.8	NA	NA		M	NA	NA	NA	NA
2019/11/20 12:15:00	AWS2	9.60	237	10.91	233	M	M	M	NA	NA	974.2	NA	NA		M	NA	NA	NA	NA
2019/11/20 12:16:01	AWS2	10.10	235	11.63	234	M	M	M	NA	NA	975.1	NA	NA		M	NA	NA	NA	NA
2019/11/20 12:17:00	AWS2	9.46	230	11.63	234	M	M	M	NA	NA	973.4	NA	NA		M	NA	NA	NA	NA
2019/11/20 12:18:01	AWS2	8.73	228	11.63	234	M	M	M	NA	NA	974.1	NA	NA		M	NA	NA	NA	NA
2019/11/20 12:19:01	AWS2	8.89	231	11.63	234	M	M	M	NA	NA	974.0	NA	NA		M	NA	NA	NA	NA
2019/11/20 12:20:01	AWS2	9.23	234	11.63	234	M	M	M	NA	NA	974.4	NA	NA		M	NA	NA	NA	NA
2019/11/20 12:21:01	AWS2	8.49	236	11.63	234	M	M	M	NA	NA	974.6	NA	NA		M	NA	NA	NA	NA
2019/11/20 12:22:00	AWS2	7.14	239	11.63	234	M	M	M	NA	NA	974.6	NA	NA		M	NA	NA	NA	NA
2019/11/20 12:23:00	AWS2	8.11	236	11.63	234	M	M	M	NA	NA	974.0	NA	NA		M	NA	NA	NA	NA
2019/11/20 12:24:01	AWS2	8.79	231	11.63	234	M	M	M	NA	NA	973.9	NA	NA		M	NA	NA	NA	NA
2019/11/20 12:25:00	AWS2	8.03	231	11.63	234	M	M	M	NA	NA	974.6	NA	NA		M	NA	NA	NA	NA
2019/11/20 12:26:01	AWS2	7.73	235	10.03	228	M	M	M	NA	NA	974.4	NA	NA		M	NA	NA	NA	NA
2019/11/20 12:27:01	AWS2	7.50	235	10.03	228	M	M	M	NA	NA	973.5	NA	NA		M	NA	NA	NA	NA
2019/11/20 12:28:01	AWS2	7.65	235	10.03	228	M	M	M	NA	NA	973.8	NA	NA		M	NA	NA	NA	NA
2019/11/20 12:29:00	AWS2	8.47	238	10.03	228	M	M	M	NA	NA	975.2	NA	NA		M	NA	NA	NA	NA
2019/11/20 12:30:00	AWS2	8.93	240	10.19	247	M	M	M	NA	NA	973.7	NA	NA		M	NA	NA	NA	NA
2019/11/20 12:31:00	AWS2	8.32	238	10.19	247	M	M	M	NA	NA	974.2	NA	NA		M	NA	NA	NA	NA
2019/11/20 12:32:00	AWS2	7.63	235	10.19	247	M	M	M	NA	NA	975.4	NA	NA		M	NA	NA	NA	NA
2019/11/20 12:33:00	AWS2	7.36	231	10.19	247	M	M	M	NA	NA	974.6	NA	NA		M	NA	NA	NA	NA
2019/11/20 12:34:01	AWS2	7.31	234	10.19	247	M	M	M	NA	NA	972.9	NA	NA		M	NA	NA	NA	NA
2019/11/20 12:35:01	AWS2	7.99	238	10.19	247	M	M	M	NA	NA	974.4	NA	NA		M	NA	NA	NA	NA
2019/11/20 12:36:01	AWS2	8.54	239	10.19	247	M	M	M	NA	NA	975.8	NA	NA		M	NA	NA	NA	NA
2019/11/20 12:37:01	AWS2	8.76	237	10.19	247	M	M	M	NA	NA	974.0	NA	NA		M	NA	NA	NA	NA
2019/11/20 12:38:00	AWS2	8.77	234	10.19	247	M	M	M	NA	NA	975.1	NA	NA		M	NA	NA	NA	NA
2019/11/20 12:39:00	AWS2	8.09	233	10.19	247	M	M	M	NA	NA	974.6	NA	NA		M	NA	NA	NA	NA
2019/11/20 12:40:00	AWS2	6.94	234	9.98	237	M	M	M	NA	NA	974.1	NA	NA		M	NA	NA	NA	NA
2019/11/20 12:41:00	AWS2	7.28	238	9.98	237	M	M	M	NA	NA	974.6	NA	NA		M	NA	NA	NA	NA
2019/11/20 12:42:01	AWS2	8.38	239	9.98	237	M	M	M	NA	NA	974.7	NA	NA		M	NA	NA	NA	NA
2019/11/20 12:43:00	AWS2	8.43	235	9.98	226	M	M	M	NA	NA	974.9	NA	NA		M	NA	NA	NA	NA
2019/11/20 12:44:01	AWS2	8.08	234	9.98	226	M	M	M	NA	NA	974.8	NA	NA		M	NA	NA	NA	NA
2019/11/20 12:45:00	AWS2	8.22	232	9.98	226	M	M	M	NA	NA	974.2	NA	NA		M	NA	NA	NA	NA
2019/11/20 12:46:01	AWS2	8.60	233	9.98	226	M	M	M	NA	NA	973.8	NA	NA		M	NA	NA	NA	NA
2019/11/20 12:47:00	AWS2	8.27	237	9.98	226	M	M	M	NA	NA	976.0	NA	NA		M	NA	NA	NA	NA
2019/11/20 12:48:00	AWS2	8.38	239	9.98	226	M	M	M	NA	NA	973.9	NA	NA		M	NA	NA	NA	NA
2019/11/20 12:49:00	AWS2	8.68	237	9.98	236	M	M	M	NA	NA	973.9	NA	NA		M	NA	NA	NA	NA
2019/11/20 12:50:00	AWS2	8.93	235	9.98	236	M	M	M	NA	NA	976.1	NA	NA		M	NA	NA	NA	NA
2019/11/20 12:51:00	AWS2	9.36	236	10.55	236	M	M	M	NA	NA	973.4	NA	NA		M	NA	NA	NA	NA
2019/11/20 12:52:00	AWS2	9.26	232	10.55	236	M	M	M	NA	NA	974.3	NA	NA		M	NA	NA	NA	NA
2019/11/20 12:53:01	AWS2	8.97	231	10.55	236	M	M	M	NA	NA	973.9	NA	NA		M	NA	NA	NA	NA
2019/11/20 12:54:01	AWS2	9.41	231	10.60	232	M	M	M	NA	NA	975.2	NA	NA		M	NA	NA	NA	NA
2019/11/20 12:55:00	AWS2	9.08	232	10.60	232	M	M	M	NA	NA	975.0	NA	NA		M	NA	NA	NA	NA
2019/11/20 12:56:00	AWS2	8.46	228	10.60	232	M	M	M	NA	NA	974.5	NA	NA		M	NA	NA	NA	NA
2019/11/20 12:57:01	AWS2	8.89	227	10.60	232	M	M	M	NA	NA	974.4	NA	NA		M	NA	NA	NA	NA
2019/11/20 12:58:01	AWS2	8.58	228	10.60	232	M	M	M	NA	NA	974.5	NA	NA		M	NA	NA	NA	NA
2019/11/20 12:59:00	AWS2	8.02	225	10.60	232	M	M	M	NA	NA	976.2	NA	NA		M	NA	NA	NA	NA
2019/11/20 13:00:00	AWS2	7.87	229	10.60	232	M	M	M	NA	NA	974.1	NA	NA		M	NA	NA	NA	NA
2019/11/20 13:01:00	AWS2	6.82	233	10.60	232	M	M	M	NA	NA	976.6	NA	NA		M	NA	NA	NA	NA
2019/11/20 13:02:01	AWS2	6.61	226	10.60	232	M	M	M	NA	NA	974.3	NA	NA		M	NA	NA	NA	NA
2019/11/20 13:03:00	AWS2	7.25	226	10.60	232	M	M	M	NA	NA	976.6	NA	NA		M	NA	NA	NA	NA
2019/11/20 13:04:00	AWS2	7.18	234	10.44	220	M	M	M	NA	NA	975.5	NA	NA		M	NA	NA	NA	NA
2019/11/20 13:05:00	AWS2	6.40	236	10.44	220	M	M	M	NA	NA	974.1	NA	NA		M	NA	NA	NA	NA
2019/11/20 13:06:01	AWS2	5.77	233	10.44	220	M	M	M	NA	NA	974.8	NA	NA		M	NA	NA	NA	NA
2019/11/20 13:07:00	AWS2	5.98	230	9.31	229	M	M	M	NA	NA	974.3	NA	NA		M	NA	NA	NA	NA
2019/11/20 13:08:01	AWS2	5.69	233	8.90	224	M	M	M	NA	NA	975.4	NA	NA		M	NA	NA	NA	NA
2019/11/20 13:09:01	AWS2	5.99	238	8.23	237	M	M	M	NA	NA	975.5	NA	NA		M	NA	NA	NA	NA
2019/11/20 13:10:01	AWS2	7.45	239	8.80	245	M	M	M	NA	NA	974.9	NA	NA		M	NA	NA	NA	NA
2019/11/20 13:11:01	AWS2	7.41	243	8.80	245	M	M	M	NA	NA	974.4	NA	NA		M	NA	NA	NA	NA
2019/11/20 13:12:01	AWS2	6.98	245	8.80	245	M	M	M	NA	NA	974.5	NA	NA		M	NA	NA	NA	NA
2019/11/20 13:13:01	AWS2	7.19	238	8.80	245	M	M	M	NA	NA	976.4	NA	NA		M	NA	NA	NA	NA
2019/11/20 13:14:01	AWS2	7.39	234	8.80	245	M	M	M	NA	NA	975.5	NA	NA		M	NA	NA	NA	NA
2019/11/20 13:15:01	AWS2	7.38	237	8.80	245	M	M	M	NA	NA	975.6	NA	NA		M	NA	NA	NA	NA
2019/11/20 13:16:01	AWS2	6.83	237	8.80	245	M	M	M	NA	NA	975.0	NA	NA		M	NA	NA	NA	NA
2019/11/20 13:17:01	AWS2	6.18	236	8.80	245	M	M	M	NA	NA	975.7	NA	NA		M	NA	NA	NA	NA
2019/11/20 13:18:01	AWS2	6.02	232	8.80	245	M	M	M	NA	NA	975.9	NA	NA		M	NA	NA	NA	NA
2019/11/20 13:19:01	AWS2	6.54	231	8.80	245	M	M	M	NA	NA	974.9	NA	NA		M	NA	NA	NA	NA
2019/11/20 13:20:01	AWS2	6.79	231	8.33	237	M	M	M	NA	NA	975.0	NA	NA		M	NA	NA	NA	NA
2019/11/20 13:21:01	AWS2	6.76	237	8.33	237	M	M	M	NA	NA	975.9	NA	NA		M	NA	NA	NA	NA
2019/11/20 13:22:01	AWS2	6.59	243	8.08	238	M	M	M	NA	NA	974.8	NA	NA		M	NA	NA	NA	NA
2019/11/20 13:23:01	AWS2	5.89	245	8.08	238	M	M	M	NA	NA	973.8	NA	NA		M	NA	NA	NA	NA
2019/11/20 13:24:01	AWS2	5.37	243	7.82	237	M	M	M	NA	NA	973.9	NA	NA		M	NA	NA	NA	NA
2019/11/20 13:25:01	AWS2	5.47	237	7.56	236	M	M	M	NA	NA	976.0	NA	NA		M	NA	NA	NA	NA
2019/11/20 13:26:01	AWS2	5.77	233	7.56	236	M	M	M	NA	NA	974.7	NA	NA		M	NA	NA	NA	NA
2019/11/20 13:27:01	AWS2	5.95	233	7.56	236	M	M	M	NA	NA	975.1	NA	NA		M	NA	NA	NA	NA
2019/11/20 13:28:01	AWS2	5.44	239	7.56	236	M	M	M	NA	NA	974.3	NA	NA		M	NA	NA	NA	NA
2019/11/20 13:29:01	AWS2	5.65	240	7.51	234	M	M	M	NA	NA	975.4	NA	NA		M	NA	NA	NA	NA
2019/11/20 13:30:01	AWS2	6.49	240	7.51	234	M	M	M	NA	NA	974.6	NA	NA		M	NA	NA	NA	NA
2019/11/20 13:31:01	AWS2	6.24	240	7.51	234	M	M	M	NA	NA	975.0	NA	NA		M	NA	NA	NA	NA
2019/11/20 13:32:01	AWS2	5.76	238	7.51	234	M	M	M	NA	NA	975.6	NA	NA		M	NA	NA	NA	NA
2019/11/20 13:33:01	AWS2	5.72	233	7.51	234	M	M	M	NA	NA	974.3	NA	NA		M	NA	NA	NA	NA
2019/11/20 13:34:01	AWS2	5.84	228	7.51	234	M	M	M	NA	NA	974.7	NA	NA		M	NA	NA	NA	NA
2019/11/20 13:35:01	AWS2	5.38	232	7.51	234	M	M	M	NA	NA	974.4	NA	NA		M	NA	NA	NA	NA
2019/11/20 13:36:01	AWS2	4.63	240	7.51	234	M	M	M	NA	NA	974.1	NA	NA		M	NA	NA	NA	NA
2019/11/20 13:37:00	AWS2	5.07	243	7.51	234	M	M	M	NA	NA	975.0	NA	NA		M	NA	NA	NA	NA
2019/11/20 13:38:01	AWS2	5.34	241	7.51	234	M	M	M	NA	NA	974.2	NA	NA		M	NA	NA	NA	NA
2019/11/20 13:39:01	AWS2	5.34	245	7.25	246	M	M	M	NA	NA	975.7	NA	NA		M	NA	NA	NA	NA
2019/11/20 13:40:01	AWS2	5.96	249	7.05	245	M	M	M	NA	NA	974.5	NA	NA		M	NA	NA	NA	NA
2019/11/20 13:41:01	AWS2	5.98	246	7.05	245	M	M	M	NA	NA	974.3	NA	NA		M	NA	NA	NA	NA
2019/11/20 13:42:01	AWS2	5.98	241	7.05	235	M	M	M	NA	NA	975.1	NA	NA		M	NA	NA	NA	NA
2019/11/20 13:43:01	AWS2	6.27	235	7.05	235	M	M	M	NA	NA	974.2	NA	NA		M	NA	NA	NA	NA
2019/11/20 13:44:01	AWS2	5.82	236	7.05	235	M	M	M	NA	NA	975.7	NA	NA		M	NA	NA	NA	NA
2019/11/20 13:45:01	AWS2	5.43	240	7.15	243	M	M	M	NA	NA	975.7	NA	NA		M	NA	NA	NA	NA
2019/11/20 13:46:00	AWS2	5.92	241	7.15	241	M	M	M	NA	NA	977.3	NA	NA		M	NA	NA	NA	NA
2019/11/20 13:47:00	AWS2	5.69	241	7.15	241	M	M	M	NA	NA	977.8	NA	NA		M	NA	NA	NA	NA
2019/11/20 13:48:00	AWS2	5.20	240	7.15	241	M	M	M	NA	NA	977.7	NA	NA		M	NA	NA	NA	NA
2019/11/20 13:49:00	AWS2	5.22	239	7.15	241	M	M	M	NA	NA	975.4	NA	NA		M	NA	NA	NA	NA
2019/11/20 13:50:01	AWS2	5.16	238	7.15	241	M	M	M	NA	NA	975.2	NA	NA		M	NA	NA	NA	NA
2019/11/20 13:51:00	AWS2	5.07	232	7.15	241	M	M	M	NA	NA	976.1	NA	NA		M	NA	NA	NA	NA
2019/11/20 13:52:00	AWS2	4.88	236	7.15	241	M	M	M	NA	NA	975.5	NA	NA		M	NA	NA	NA	NA
2019/11/20 13:53:00	AWS2	5.55	241	7.31	239	M	M	M	NA	NA	975.0	NA	NA		M	NA	NA	NA	NA
2019/11/20 13:54:00	AWS2	5.91	235	7.31	239	M	M	M	NA	NA	976.1	NA	NA		M	NA	NA	NA	NA
2019/11/20 13:55:00	AWS2	5.79	236	7.31	239	M	M	M	NA	NA	976.5	NA	NA		M	NA	NA	NA	NA
2019/11/20 13:56:01	AWS2	5.86	243	7.31	239	M	M	M	NA	NA	975.9	NA	NA		M	NA	NA	NA	NA
2019/11/20 13:57:00	AWS2	5.66	247	7.31	239	M	M	M	NA	NA	973.9	NA	NA		M	NA	NA	NA	NA
2019/11/20 13:58:00	AWS2	6.03	243	7.31	239	M	M	M	NA	NA	975.4	NA	NA		M	NA	NA	NA	NA
2019/11/20 13:59:01	AWS2	5.75	240	7.31	239	M	M	M	NA	NA	974.7	NA	NA		M	NA	NA	NA	NA
2019/11/20 14:00:00	AWS2	5.03	245	7.31	239	M	M	M	NA	NA	976.2	NA	NA		M	NA	NA	NA	NA
2019/11/20 14:01:01	AWS2	4.92	248	7.31	239	M	M	M	NA	NA	975.7	NA	NA		M	NA	NA	NA	NA
2019/11/20 14:02:01	AWS2	5.78	244	7.31	239	M	M	M	NA	NA	975.7	NA	NA		M	NA	NA	NA	NA
2019/11/20 14:03:00	AWS2	6.41	238	7.10	242	M	M	M	NA	NA	975.8	NA	NA		M	NA	NA	NA	NA
2019/11/20 14:04:01	AWS2	5.80	234	7.10	242	M	M	M	NA	NA	975.9	NA	NA		M	NA	NA	NA	NA
2019/11/20 14:05:00	AWS2	5.26	234	7.10	242	M	M	M	NA	NA	975.8	NA	NA		M	NA	NA	NA	NA
2019/11/20 14:06:01	AWS2	4.74	235	7.10	242	M	M	M	NA	NA	974.5	NA	NA		M	NA	NA	NA	NA
2019/11/20 14:07:01	AWS2	4.48	240	7.10	242	M	M	M	NA	NA	975.3	NA	NA		M	NA	NA	NA	NA
2019/11/20 14:08:01	AWS2	5.26	243	7.00	235	M	M	M	NA	NA	975.0	NA	NA		M	NA	NA	NA	NA
2019/11/20 14:09:00	AWS2	5.61	243	7.00	235	M	M	M	NA	NA	974.2	NA	NA		M	NA	NA	NA	NA
2019/11/20 14:10:00	AWS2	5.45	242	7.00	235	M	M	M	NA	NA	972.8	NA	NA		M	NA	NA	NA	NA
2019/11/20 14:11:01	AWS2	5.88	240	7.00	235	M	M	M	NA	NA	976.6	NA	NA		M	NA	NA	NA	NA
2019/11/20 14:12:00	AWS2	5.69	240	6.79	249	M	M	M	NA	NA	972.4	NA	NA		M	NA	NA	NA	NA
2019/11/20 14:13:00	AWS2	5.28	242	6.79	249	M	M	M	NA	NA	973.9	NA	NA		M	NA	NA	NA	NA
2019/11/20 14:14:00	AWS2	5.55	243	6.79	249	M	M	M	NA	NA	971.1	NA	NA		M	NA	NA	NA	NA
2019/11/20 14:15:00	AWS2	5.57	241	6.79	249	M	M	M	NA	NA	971.3	NA	NA		M	NA	NA	NA	NA
2019/11/20 14:16:00	AWS2	5.54	237	6.79	249	M	M	M	NA	NA	973.2	NA	NA		M	NA	NA	NA	NA
2019/11/20 14:17:00	AWS2	5.80	240	6.79	249	M	M	M	NA	NA	972.7	NA	NA		M	NA	NA	NA	NA
2019/11/20 14:18:00	AWS2	5.64	240	6.74	240	M	M	M	NA	NA	972.5	NA	NA		M	NA	NA	NA	NA
2019/11/20 14:19:01	AWS2	5.13	239	6.74	240	M	M	M	NA	NA	971.8	NA	NA		M	NA	NA	NA	NA
2019/11/20 14:20:00	AWS2	4.64	244	6.74	240	M	M	M	NA	NA	974.8	NA	NA		M	NA	NA	NA	NA
2019/11/20 14:21:00	AWS2	4.42	250	6.74	240	M	M	M	NA	NA	973.9	NA	NA		M	NA	NA	NA	NA
2019/11/20 14:22:01	AWS2	4.72	250	6.74	240	M	M	M	NA	NA	973.3	NA	NA		M	NA	NA	NA	NA
2019/11/20 14:23:00	AWS2	5.51	250	6.74	240	M	M	M	NA	NA	972.4	NA	NA		M	NA	NA	NA	NA
2019/11/20 14:24:00	AWS2	5.80	242	6.74	240	M	M	M	NA	NA	975.0	NA	NA		M	NA	NA	NA	NA
2019/11/20 14:25:00	AWS2	5.48	233	6.74	240	M	M	M	NA	NA	973.3	NA	NA		M	NA	NA	NA	NA
2019/11/20 14:26:00	AWS2	5.52	235	6.74	240	M	M	M	NA	NA	973.3	NA	NA		M	NA	NA	NA	NA
2019/11/20 14:27:00	AWS2	5.47	242	6.58	256	M	M	M	NA	NA	973.9	NA	NA		M	NA	NA	NA	NA
2019/11/20 14:28:00	AWS2	5.62	238	7.31	232	M	M	M	NA	NA	973.8	NA	NA		M	NA	NA	NA	NA
2019/11/20 14:29:00	AWS2	5.80	225	7.31	232	M	M	M	NA	NA	972.7	NA	NA		M	NA	NA	NA	NA
2019/11/20 14:30:00	AWS2	5.66	220	7.31	232	M	M	M	NA	NA	972.2	NA	NA		M	NA	NA	NA	NA
2019/11/20 14:31:00	AWS2	5.84	220	7.31	232	M	M	M	NA	NA	974.7	NA	NA		M	NA	NA	NA	NA
2019/11/20 14:32:01	AWS2	5.68	222	7.31	232	M	M	M	NA	NA	972.5	NA	NA		M	NA	NA	NA	NA
2019/11/20 14:33:00	AWS2	5.56	224	7.31	232	M	M	M	NA	NA	972.1	NA	NA		M	NA	NA	NA	NA
2019/11/20 14:34:00	AWS2	5.27	229	7.31	232	M	M	M	NA	NA	973.6	NA	NA		M	NA	NA	NA	NA
2019/11/20 14:35:00	AWS2	4.69	230	7.31	232	M	M	M	NA	NA	974.4	NA	NA		M	NA	NA	NA	NA
2019/11/20 14:36:00	AWS2	5.13	223	7.31	232	M	M	M	NA	NA	973.4	NA	NA		M	NA	NA	NA	NA
2019/11/20 14:37:00	AWS2	5.98	223	7.46	229	M	M	M	NA	NA	972.0	NA	NA		M	NA	NA	NA	NA
2019/11/20 14:38:00	AWS2	6.43	223	7.46	229	M	M	M	NA	NA	975.7	NA	NA		M	NA	NA	NA	NA
2019/11/20 14:39:00	AWS2	6.65	222	7.46	229	M	M	M	NA	NA	972.9	NA	NA		M	NA	NA	NA	NA
2019/11/20 14:40:00	AWS2	6.19	225	7.46	229	M	M	M	NA	NA	972.0	NA	NA		M	NA	NA	NA	NA
2019/11/20 14:41:00	AWS2	5.34	237	7.46	229	M	M	M	NA	NA	974.9	NA	NA		M	NA	NA	NA	NA
2019/11/20 14:42:00	AWS2	4.88	243	7.46	229	M	M	M	NA	NA	972.4	NA	NA		M	NA	NA	NA	NA
2019/11/20 14:43:00	AWS2	5.40	234	7.46	229	M	M	M	NA	NA	971.4	NA	NA		M	NA	NA	NA	NA
2019/11/20 14:44:00	AWS2	5.68	225	7.46	229	M	M	M	NA	NA	971.3	NA	NA		M	NA	NA	NA	NA
2019/11/20 14:45:00	AWS2	5.78	228	7.46	229	M	M	M	NA	NA	969.8	NA	NA		M	NA	NA	NA	NA
2019/11/20 14:46:00	AWS2	6.04	232	7.46	229	M	M	M	NA	NA	973.8	NA	NA		M	NA	NA	NA	NA
2019/11/20 14:47:00	AWS2	5.60	230	7.15	223	M	M	M	NA	NA	970.9	NA	NA		M	NA	NA	NA	NA
2019/11/20 14:48:00	AWS2	5.56	230	7.15	223	M	M	M	NA	NA	971.2	NA	NA		M	NA	NA	NA	NA
2019/11/20 14:49:00	AWS2	5.63	232	6.89	235	M	M	M	NA	NA	971.7	NA	NA		M	NA	NA	NA	NA
2019/11/20 14:50:00	AWS2	6.17	237	7.72	242	M	M	M	NA	NA	969.4	NA	NA		M	NA	NA	NA	NA
2019/11/20 14:51:00	AWS2	6.42	244	7.72	242	M	M	M	NA	NA	972.8	NA	NA		M	NA	NA	NA	NA
2019/11/20 14:52:00	AWS2	6.38	242	7.72	242	M	M	M	NA	NA	970.1	NA	NA		M	NA	NA	NA	NA
2019/11/20 14:53:00	AWS2	6.47	233	7.72	242	M	M	M	NA	NA	971.8	NA	NA		M	NA	NA	NA	NA
2019/11/20 14:54:00	AWS2	6.11	233	7.72	242	M	M	M	NA	NA	972.2	NA	NA		M	NA	NA	NA	NA
2019/11/20 14:55:00	AWS2	5.83	235	7.72	242	M	M	M	NA	NA	973.9	NA	NA		M	NA	NA	NA	NA
2019/11/20 14:56:00	AWS2	6.01	234	7.72	242	M	M	M	NA	NA	971.2	NA	NA		M	NA	NA	NA	NA
2019/11/20 14:57:00	AWS2	6.08	231	7.72	242	M	M	M	NA	NA	971.5	NA	NA		M	NA	NA	NA	NA
2019/11/20 14:58:01	AWS2	6.48	229	8.44	237	M	M	M	NA	NA	971.7	NA	NA		M	NA	NA	NA	NA
2019/11/20 14:59:00	AWS2	7.07	229	8.44	237	M	M	M	NA	NA	971.6	NA	NA		M	NA	NA	NA	NA
2019/11/20 15:00:00	AWS2	7.19	230	8.44	237	M	M	M	NA	NA	971.1	NA	NA		M	NA	NA	NA	NA
2019/11/20 15:01:00	AWS2	7.07	232	8.44	237	M	M	M	NA	NA	972.3	NA	NA		M	NA	NA	NA	NA
2019/11/20 15:02:00	AWS2	6.76	233	8.44	237	M	M	M	NA	NA	971.1	NA	NA		M	NA	NA	NA	NA
2019/11/20 15:03:00	AWS2	6.46	235	8.44	237	M	M	M	NA	NA	973.9	NA	NA		M	NA	NA	NA	NA
2019/11/20 15:04:00	AWS2	5.83	238	8.44	237	M	M	M	NA	NA	972.7	NA	NA		M	NA	NA	NA	NA
2019/11/20 15:05:00	AWS2	5.83	239	8.44	237	M	M	M	NA	NA	973.7	NA	NA		M	NA	NA	NA	NA
2019/11/20 15:06:00	AWS2	5.57	242	8.44	237	M	M	M	NA	NA	971.8	NA	NA		M	NA	NA	NA	NA
2019/11/20 15:07:00	AWS2	5.48	245	8.44	237	M	M	M	NA	NA	973.3	NA	NA		M	NA	NA	NA	NA
2019/11/20 15:08:00	AWS2	6.39	245	8.18	241	M	M	M	NA	NA	972.0	NA	NA		M	NA	NA	NA	NA
2019/11/20 15:09:00	AWS2	6.52	247	8.18	241	M	M	M	NA	NA	971.7	NA	NA		M	NA	NA	NA	NA
2019/11/20 15:10:00	AWS2	5.77	246	8.18	241	M	M	M	NA	NA	973.0	NA	NA		M	NA	NA	NA	NA
2019/11/20 15:11:00	AWS2	5.86	240	8.18	241	M	M	M	NA	NA	971.3	NA	NA		M	NA	NA	NA	NA
2019/11/20 15:12:00	AWS2	6.45	237	8.18	241	M	M	M	NA	NA	974.1	NA	NA		M	NA	NA	NA	NA
2019/11/20 15:13:00	AWS2	6.42	238	8.18	241	M	M	M	NA	NA	972.9	NA	NA		M	NA	NA	NA	NA
2019/11/20 15:14:00	AWS2	6.40	237	8.18	241	M	M	M	NA	NA	972.3	NA	NA		M	NA	NA	NA	NA
2019/11/20 15:15:00	AWS2	6.17	238	8.18	241	M	M	M	NA	NA	973.3	NA	NA		M	NA	NA	NA	NA
2019/11/20 15:16:00	AWS2	5.81	243	8.18	241	M	M	M	NA	NA	971.6	NA	NA		M	NA	NA	NA	NA
2019/11/20 15:17:00	AWS2	6.07	247	8.18	241	M	M	M	NA	NA	972.3	NA	NA		M	NA	NA	NA	NA
2019/11/20 15:18:00	AWS2	6.67	244	8.18	238	M	M	M	NA	NA	971.5	NA	NA		M	NA	NA	NA	NA
2019/11/20 15:19:00	AWS2	6.66	242	8.18	238	M	M	M	NA	NA	972.4	NA	NA		M	NA	NA	NA	NA
2019/11/20 15:20:00	AWS2	6.80	239	8.18	238	M	M	M	NA	NA	972.2	NA	NA		M	NA	NA	NA	NA
2019/11/20 15:21:00	AWS2	7.40	238	8.28	240	M	M	M	NA	NA	972.9	NA	NA		M	NA	NA	NA	NA
2019/11/20 15:22:00	AWS2	6.66	235	8.28	240	M	M	M	NA	NA	972.8	NA	NA		M	NA	NA	NA	NA
2019/11/20 15:23:00	AWS2	6.48	231	8.28	240	M	M	M	NA	NA	970.0	NA	NA		M	NA	NA	NA	NA
2019/11/20 15:24:00	AWS2	7.18	232	8.28	240	M	M	M	NA	NA	970.9	NA	NA		M	NA	NA	NA	NA
2019/11/20 15:25:00	AWS2	7.15	231	8.28	240	M	M	M	NA	NA	970.9	NA	NA		M	NA	NA	NA	NA
2019/11/20 15:26:00	AWS2	6.89	233	8.28	240	M	M	M	NA	NA	973.1	NA	NA		M	NA	NA	NA	NA
2019/11/20 15:27:00	AWS2	7.02	233	8.28	240	M	M	M	NA	NA	970.6	NA	NA		M	NA	NA	NA	NA
2019/11/20 15:28:00	AWS2	7.11	223	8.28	240	M	M	M	NA	NA	971.4	NA	NA		M	NA	NA	NA	NA
2019/11/20 15:29:00	AWS2	6.97	212	8.28	240	M	M	M	NA	NA	972.8	NA	NA		M	NA	NA	NA	NA
2019/11/20 15:30:00	AWS2	6.47	207	8.28	240	M	M	M	NA	NA	970.4	NA	NA		M	NA	NA	NA	NA
2019/11/20 15:31:00	AWS2	6.19	210	8.18	215	M	M	M	NA	NA	973.5	NA	NA		M	NA	NA	NA	NA
2019/11/20 15:32:00	AWS2	6.22	211	8.18	215	M	M	M	NA	NA	970.4	NA	NA		M	NA	NA	NA	NA
2019/11/20 15:33:00	AWS2	5.77	209	8.18	215	M	M	M	NA	NA	969.2	NA	NA		M	NA	NA	NA	NA
2019/11/20 15:34:00	AWS2	5.75	207	8.18	215	M	M	M	NA	NA	971.3	NA	NA		M	NA	NA	NA	NA
2019/11/20 15:35:00	AWS2	6.15	207	8.18	215	M	M	M	NA	NA	970.9	NA	NA		M	NA	NA	NA	NA
2019/11/20 15:36:00	AWS2	6.21	211	8.18	215	M	M	M	NA	NA	973.7	NA	NA		M	NA	NA	NA	NA
2019/11/20 15:37:00	AWS2	5.69	216	8.18	215	M	M	M	NA	NA	970.3	NA	NA		M	NA	NA	NA	NA
2019/11/20 15:38:00	AWS2	5.48	223	7.82	209	M	M	M	NA	NA	971.0	NA	NA		M	NA	NA	NA	NA
2019/11/20 15:39:00	AWS2	5.82	225	6.94	218	M	M	M	NA	NA	970.3	NA	NA		M	NA	NA	NA	NA
2019/11/20 15:40:00	AWS2	6.36	223	7.05	225	M	M	M	NA	NA	973.2	NA	NA		M	NA	NA	NA	NA
2019/11/20 15:41:00	AWS2	6.75	222	7.72	223	M	M	M	NA	NA	971.4	NA	NA		M	NA	NA	NA	NA
2019/11/20 15:42:00	AWS2	6.71	224	7.72	223	M	M	M	NA	NA	972.0	NA	NA		M	NA	NA	NA	NA
2019/11/20 15:43:00	AWS2	6.90	228	7.87	231	M	M	M	NA	NA	971.0	NA	NA		M	NA	NA	NA	NA
2019/11/20 15:44:00	AWS2	7.46	227	8.54	217	M	M	M	NA	NA	971.8	NA	NA		M	NA	NA	NA	NA
2019/11/20 15:45:00	AWS2	7.38	224	8.54	217	M	M	M	NA	NA	970.3	NA	NA		M	NA	NA	NA	NA
2019/11/20 15:46:00	AWS2	6.47	223	8.54	217	M	M	M	NA	NA	971.9	NA	NA		M	NA	NA	NA	NA
2019/11/20 15:47:00	AWS2	6.50	220	8.54	217	M	M	M	NA	NA	970.4	NA	NA		M	NA	NA	NA	NA
2019/11/20 15:48:00	AWS2	7.25	219	8.54	217	M	M	M	NA	NA	971.8	NA	NA		M	NA	NA	NA	NA
2019/11/20 15:49:00	AWS2	7.41	219	8.59	216	M	M	M	NA	NA	973.0	NA	NA		M	NA	NA	NA	NA
2019/11/20 15:50:00	AWS2	7.90	218	9.31	217	M	M	M	NA	NA	972.9	NA	NA		M	NA	NA	NA	NA
2019/11/20 15:51:00	AWS2	8.18	218	9.31	217	M	M	M	NA	NA	972.8	NA	NA		M	NA	NA	NA	NA
2019/11/20 15:52:00	AWS2	7.92	216	9.31	217	M	M	M	NA	NA	973.5	NA	NA		M	NA	NA	NA	NA
2019/11/20 15:53:00	AWS2	7.55	217	9.31	217	M	M	M	NA	NA	970.3	NA	NA		M	NA	NA	NA	NA
2019/11/20 15:54:00	AWS2	7.14	219	9.31	217	M	M	M	NA	NA	971.4	NA	NA		M	NA	NA	NA	NA
2019/11/20 15:55:00	AWS2	6.80	218	9.31	217	M	M	M	NA	NA	972.3	NA	NA		M	NA	NA	NA	NA
2019/11/20 15:56:00	AWS2	6.19	215	9.31	217	M	M	M	NA	NA	972.4	NA	NA		M	NA	NA	NA	NA
2019/11/20 15:57:00	AWS2	6.02	213	9.31	217	M	M	M	NA	NA	972.0	NA	NA		M	NA	NA	NA	NA
2019/11/20 15:58:00	AWS2	6.41	218	9.31	217	M	M	M	NA	NA	971.6	NA	NA		M	NA	NA	NA	NA
2019/11/20 15:59:00	AWS2	6.92	221	9.31	217	M	M	M	NA	NA	973.1	NA	NA		M	NA	NA	NA	NA
2019/11/20 16:00:00	AWS2	6.67	221	8.54	212	M	M	M	NA	NA	972.9	NA	NA		M	NA	NA	NA	NA
2019/11/20 16:01:00	AWS2	6.32	217	8.54	212	M	M	M	NA	NA	972.1	NA	NA		M	NA	NA	NA	NA
2019/11/20 16:02:00	AWS2	6.96	216	8.59	222	M	M	M	NA	NA	972.6	NA	NA		M	NA	NA	NA	NA
2019/11/20 16:03:00	AWS2	7.17	222	8.59	222	M	M	M	NA	NA	974.1	NA	NA		M	NA	NA	NA	NA
2019/11/20 16:04:00	AWS2	7.49	227	8.69	231	M	M	M	NA	NA	972.3	NA	NA		M	NA	NA	NA	NA
2019/11/20 16:05:00	AWS2	7.89	228	8.69	231	M	M	M	NA	NA	973.2	NA	NA		M	NA	NA	NA	NA
2019/11/20 16:06:00	AWS2	7.50	223	8.69	231	M	M	M	NA	NA	972.6	NA	NA		M	NA	NA	NA	NA
2019/11/20 16:07:00	AWS2	7.53	221	8.69	231	M	M	M	NA	NA	972.9	NA	NA		M	NA	NA	NA	NA
2019/11/20 16:08:00	AWS2	7.69	224	8.69	231	M	M	M	NA	NA	974.3	NA	NA		M	NA	NA	NA	NA
2019/11/20 16:09:00	AWS2	7.51	227	8.69	231	M	M	M	NA	NA	972.0	NA	NA		M	NA	NA	NA	NA
2019/11/20 16:10:00	AWS2	7.55	233	8.69	231	M	M	M	NA	NA	972.6	NA	NA		M	NA	NA	NA	NA
2019/11/20 16:11:00	AWS2	7.55	236	8.69	231	M	M	M	NA	NA	973.1	NA	NA		M	NA	NA	NA	NA
2019/11/20 16:12:00	AWS2	7.42	236	8.69	231	M	M	M	NA	NA	973.2	NA	NA		M	NA	NA	NA	NA
2019/11/20 16:13:00	AWS2	7.47	232	8.69	231	M	M	M	NA	NA	973.8	NA	NA		M	NA	NA	NA	NA
2019/11/20 16:14:00	AWS2	7.45	226	8.59	235	M	M	M	NA	NA	972.9	NA	NA		M	NA	NA	NA	NA
2019/11/20 16:15:00	AWS2	7.60	226	8.59	235	M	M	M	NA	NA	973.5	NA	NA		M	NA	NA	NA	NA
2019/11/20 16:16:00	AWS2	7.26	227	8.59	235	M	M	M	NA	NA	974.1	NA	NA		M	NA	NA	NA	NA
2019/11/20 16:17:00	AWS2	6.94	222	8.59	235	M	M	M	NA	NA	972.6	NA	NA		M	NA	NA	NA	NA
2019/11/20 16:18:00	AWS2	7.30	220	8.59	235	M	M	M	NA	NA	976.0	NA	NA		M	NA	NA	NA	NA
2019/11/20 16:19:00	AWS2	7.36	221	8.59	235	M	M	M	NA	NA	973.9	NA	NA		M	NA	NA	NA	NA
2019/11/20 16:20:00	AWS2	7.01	220	8.59	235	M	M	M	NA	NA	974.5	NA	NA		M	NA	NA	NA	NA
2019/11/20 16:21:00	AWS2	7.12	220	8.59	235	M	M	M	NA	NA	975.0	NA	NA		M	NA	NA	NA	NA
2019/11/20 16:22:00	AWS2	7.15	227	8.49	224	M	M	M	NA	NA	973.1	NA	NA		M	NA	NA	NA	NA
2019/11/20 16:23:00	AWS2	7.00	226	8.49	224	M	M	M	NA	NA	973.3	NA	NA		M	NA	NA	NA	NA
2019/11/20 16:24:00	AWS2	7.62	221	9.11	220	M	M	M	NA	NA	972.5	NA	NA		M	NA	NA	NA	NA
2019/11/20 16:25:00	AWS2	7.77	222	9.11	220	M	M	M	NA	NA	974.3	NA	NA		M	NA	NA	NA	NA
2019/11/20 16:26:00	AWS2	6.96	223	9.11	220	M	M	M	NA	NA	974.3	NA	NA		M	NA	NA	NA	NA
2019/11/20 16:27:00	AWS2	6.52	224	9.11	220	M	M	M	NA	NA	974.1	NA	NA		M	NA	NA	NA	NA
2019/11/20 16:28:00	AWS2	6.49	226	9.11	220	M	M	M	NA	NA	973.8	NA	NA		M	NA	NA	NA	NA
2019/11/20 16:29:00	AWS2	6.49	231	9.11	220	M	M	M	NA	NA	973.5	NA	NA		M	NA	NA	NA	NA
2019/11/20 16:30:00	AWS2	7.07	233	9.11	220	M	M	M	NA	NA	973.7	NA	NA		M	NA	NA	NA	NA
2019/11/20 16:31:00	AWS2	7.60	233	9.11	220	M	M	M	NA	NA	973.1	NA	NA		M	NA	NA	NA	NA
2019/11/20 16:32:00	AWS2	7.84	232	9.11	228	M	M	M	NA	NA	973.2	NA	NA		M	NA	NA	NA	NA
2019/11/20 16:33:00	AWS2	8.06	231	9.11	228	M	M	M	NA	NA	974.9	NA	NA		M	NA	NA	NA	NA
2019/11/20 16:34:00	AWS2	8.32	231	9.11	230	M	M	M	NA	NA	975.2	NA	NA		M	NA	NA	NA	NA
2019/11/20 16:35:00	AWS2	8.91	229	9.98	229	M	M	M	NA	NA	972.3	NA	NA		M	NA	NA	NA	NA
2019/11/20 16:36:00	AWS2	8.41	227	9.98	229	M	M	M	NA	NA	973.3	NA	NA		M	NA	NA	NA	NA
2019/11/20 16:37:00	AWS2	7.36	225	9.98	229	M	M	M	NA	NA	972.1	NA	NA		M	NA	NA	NA	NA
2019/11/20 16:38:00	AWS2	7.01	224	9.98	229	M	M	M	NA	NA	975.5	NA	NA		M	NA	NA	NA	NA
2019/11/20 16:39:00	AWS2	7.28	226	9.98	229	M	M	M	NA	NA	974.5	NA	NA		M	NA	NA	NA	NA
2019/11/20 16:40:00	AWS2	8.49	226	10.19	227	M	M	M	NA	NA	972.9	NA	NA		M	NA	NA	NA	NA
2019/11/20 16:41:00	AWS2	9.25	225	10.19	227	M	M	M	NA	NA	975.4	NA	NA		M	NA	NA	NA	NA
2019/11/20 16:42:00	AWS2	8.77	227	10.19	227	M	M	M	NA	NA	974.3	NA	NA		M	NA	NA	NA	NA
2019/11/20 16:43:00	AWS2	8.28	229	10.19	227	M	M	M	NA	NA	974.0	NA	NA		M	NA	NA	NA	NA
2019/11/20 16:44:00	AWS2	8.91	228	10.19	226	M	M	M	NA	NA	974.5	NA	NA		M	NA	NA	NA	NA
2019/11/20 16:45:00	AWS2	9.17	229	10.19	226	M	M	M	NA	NA	974.8	NA	NA		M	NA	NA	NA	NA
2019/11/20 16:46:00	AWS2	8.38	228	10.19	226	M	M	M	NA	NA	971.5	NA	NA		M	NA	NA	NA	NA
2019/11/20 16:47:00	AWS2	8.35	226	10.19	226	M	M	M	NA	NA	975.1	NA	NA		M	NA	NA	NA	NA
2019/11/20 16:48:00	AWS2	8.42	223	10.19	226	M	M	M	NA	NA	972.8	NA	NA		M	NA	NA	NA	NA
2019/11/20 16:49:00	AWS2	7.78	223	10.19	226	M	M	M	NA	NA	975.3	NA	NA		M	NA	NA	NA	NA
2019/11/20 16:50:00	AWS2	7.02	231	10.19	226	M	M	M	NA	NA	972.8	NA	NA		M	NA	NA	NA	NA
2019/11/20 16:51:00	AWS2	6.64	234	10.19	226	M	M	M	NA	NA	976.1	NA	NA		M	NA	NA	NA	NA
2019/11/20 16:52:00	AWS2	7.76	235	10.70	233	M	M	M	NA	NA	973.7	NA	NA		M	NA	NA	NA	NA
2019/11/20 16:53:00	AWS2	8.61	235	10.70	233	M	M	M	NA	NA	975.9	NA	NA		M	NA	NA	NA	NA
2019/11/20 16:54:00	AWS2	7.97	230	10.70	233	M	M	M	NA	NA	972.2	NA	NA		M	NA	NA	NA	NA
2019/11/20 16:55:00	AWS2	7.61	229	10.70	233	M	M	M	NA	NA	974.4	NA	NA		M	NA	NA	NA	NA
2019/11/20 16:56:00	AWS2	7.02	234	10.70	233	M	M	M	NA	NA	971.8	NA	NA		M	NA	NA	NA	NA
2019/11/20 16:57:00	AWS2	7.21	235	10.70	233	M	M	M	NA	NA	972.1	NA	NA		M	NA	NA	NA	NA
2019/11/20 16:58:00	AWS2	7.98	231	10.70	233	M	M	M	NA	NA	973.9	NA	NA		M	NA	NA	NA	NA
2019/11/20 16:59:00	AWS2	8.09	232	10.70	233	M	M	M	NA	NA	974.3	NA	NA		M	NA	NA	NA	NA
2019/11/20 17:00:00	AWS2	8.18	233	10.70	233	M	M	M	NA	NA	974.3	NA	NA		M	NA	NA	NA	NA
2019/11/20 17:01:00	AWS2	8.13	231	10.70	233	M	M	M	NA	NA	975.0	NA	NA		M	NA	NA	NA	NA
2019/11/20 17:02:00	AWS2	7.73	231	9.67	233	M	M	M	NA	NA	975.5	NA	NA		M	NA	NA	NA	NA
2019/11/20 17:03:00	AWS2	7.25	228	9.26	231	M	M	M	NA	NA	974.4	NA	NA		M	NA	NA	NA	NA
2019/11/20 17:04:00	AWS2	6.70	229	9.26	231	M	M	M	NA	NA	974.1	NA	NA		M	NA	NA	NA	NA
2019/11/20 17:05:00	AWS2	5.94	237	9.26	231	M	M	M	NA	NA	972.8	NA	NA		M	NA	NA	NA	NA
2019/11/20 17:06:00	AWS2	5.83	239	9.26	231	M	M	M	NA	NA	975.0	NA	NA		M	NA	NA	NA	NA
2019/11/20 17:07:00	AWS2	6.66	240	8.85	231	M	M	M	NA	NA	974.5	NA	NA		M	NA	NA	NA	NA
2019/11/20 17:08:00	AWS2	6.92	245	8.85	231	M	M	M	NA	NA	972.5	NA	NA		M	NA	NA	NA	NA
2019/11/20 17:09:00	AWS2	6.57	245	8.69	232	M	M	M	NA	NA	973.6	NA	NA		M	NA	NA	NA	NA
2019/11/20 17:10:00	AWS2	7.02	240	8.69	242	M	M	M	NA	NA	970.6	NA	NA		M	NA	NA	NA	NA
2019/11/20 17:11:00	AWS2	7.16	234	8.69	242	M	M	M	NA	NA	972.7	NA	NA		M	NA	NA	NA	NA
2019/11/20 17:12:00	AWS2	7.41	228	9.11	223	M	M	M	NA	NA	973.8	NA	NA		M	NA	NA	NA	NA
2019/11/20 17:13:00	AWS2	8.57	230	10.08	229	M	M	M	NA	NA	972.7	NA	NA		M	NA	NA	NA	NA
2019/11/20 17:14:00	AWS2	8.64	234	10.08	229	M	M	M	NA	NA	971.6	NA	NA		M	NA	NA	NA	NA
2019/11/20 17:15:00	AWS2	7.52	233	10.08	229	M	M	M	NA	NA	971.5	NA	NA		M	NA	NA	NA	NA
2019/11/20 17:16:00	AWS2	6.70	233	10.08	229	M	M	M	NA	NA	972.7	NA	NA		M	NA	NA	NA	NA
2019/11/20 17:17:00	AWS2	7.38	234	10.08	229	M	M	M	NA	NA	973.4	NA	NA		M	NA	NA	NA	NA
2019/11/20 17:18:00	AWS2	9.36	236	11.27	230	M	M	M	NA	NA	973.7	NA	NA		M	NA	NA	NA	NA
2019/11/20 17:19:00	AWS2	9.98	232	11.27	230	M	M	M	NA	NA	973.0	NA	NA		M	NA	NA	NA	NA
2019/11/20 17:20:00	AWS2	9.68	228	11.27	230	M	M	M	NA	NA	972.6	NA	NA		M	NA	NA	NA	NA
2019/11/20 17:21:00	AWS2	9.52	227	11.27	230	M	M	M	NA	NA	974.7	NA	NA		M	NA	NA	NA	NA
2019/11/20 17:22:00	AWS2	9.29	229	11.27	230	M	M	M	NA	NA	975.5	NA	NA		M	NA	NA	NA	NA
2019/11/20 17:23:00	AWS2	9.05	231	11.27	230	M	M	M	NA	NA	973.0	NA	NA		M	NA	NA	NA	NA
2019/11/20 17:24:00	AWS2	9.23	233	11.27	230	M	M	M	NA	NA	973.1	NA	NA		M	NA	NA	NA	NA
2019/11/20 17:25:00	AWS2	9.54	234	11.27	230	M	M	M	NA	NA	974.8	NA	NA		M	NA	NA	NA	NA
2019/11/20 17:26:00	AWS2	9.13	228	11.27	230	M	M	M	NA	NA	974.7	NA	NA		M	NA	NA	NA	NA
2019/11/20 17:27:00	AWS2	8.56	223	11.27	230	M	M	M	NA	NA	972.0	NA	NA		M	NA	NA	NA	NA
2019/11/20 17:28:00	AWS2	8.30	225	10.65	233	M	M	M	NA	NA	971.4	NA	NA		M	NA	NA	NA	NA
2019/11/20 17:29:00	AWS2	8.47	231	10.65	233	M	M	M	NA	NA	971.1	NA	NA		M	NA	NA	NA	NA
2019/11/20 17:30:00	AWS2	8.65	234	10.65	233	M	M	M	NA	NA	974.0	NA	NA		M	NA	NA	NA	NA
2019/11/20 17:31:00	AWS2	8.85	229	10.65	233	M	M	M	NA	NA	973.6	NA	NA		M	NA	NA	NA	NA
2019/11/20 17:32:00	AWS2	9.22	223	10.44	234	M	M	M	NA	NA	974.2	NA	NA		M	NA	NA	NA	NA
2019/11/20 17:33:00	AWS2	9.13	221	10.44	234	M	M	M	NA	NA	972.6	NA	NA		M	NA	NA	NA	NA
2019/11/20 17:34:00	AWS2	8.61	223	10.34	231	M	M	M	NA	NA	971.6	NA	NA		M	NA	NA	NA	NA
2019/11/20 17:35:00	AWS2	8.71	225	10.24	221	M	M	M	NA	NA	976.0	NA	NA		M	NA	NA	NA	NA
2019/11/20 17:36:00	AWS2	9.26	227	10.24	221	M	M	M	NA	NA	970.4	NA	NA		M	NA	NA	NA	NA
2019/11/20 17:37:00	AWS2	9.77	227	10.75	226	M	M	M	NA	NA	973.1	NA	NA		M	NA	NA	NA	NA
2019/11/20 17:38:00	AWS2	9.93	223	10.75	226	M	M	M	NA	NA	972.0	NA	NA		M	NA	NA	NA	NA
2019/11/20 17:39:00	AWS2	9.83	223	10.75	226	M	M	M	NA	NA	973.6	NA	NA		M	NA	NA	NA	NA
2019/11/20 17:40:00	AWS2	9.24	221	10.75	226	M	M	M	NA	NA	972.6	NA	NA		M	NA	NA	NA	NA
2019/11/20 17:41:00	AWS2	9.22	218	10.75	226	M	M	M	NA	NA	973.1	NA	NA		M	NA	NA	NA	NA
2019/11/20 17:42:00	AWS2	9.72	218	10.75	226	M	M	M	NA	NA	973.7	NA	NA		M	NA	NA	NA	NA
2019/11/20 17:43:00	AWS2	9.03	222	10.75	226	M	M	M	NA	NA	973.1	NA	NA		M	NA	NA	NA	NA
2019/11/20 17:44:00	AWS2	9.42	224	11.88	223	M	M	M	NA	NA	971.1	NA	NA		M	NA	NA	NA	NA
2019/11/20 17:45:00	AWS2	10.44	222	11.88	223	M	M	M	NA	NA	971.4	NA	NA		M	NA	NA	NA	NA
2019/11/20 17:46:00	AWS2	10.03	221	11.88	223	M	M	M	NA	NA	971.7	NA	NA		M	NA	NA	NA	NA
2019/11/20 17:47:00	AWS2	10.06	221	11.88	223	M	M	M	NA	NA	970.6	NA	NA		M	NA	NA	NA	NA
2019/11/20 17:48:00	AWS2	10.11	221	11.88	223	M	M	M	NA	NA	974.8	NA	NA		M	NA	NA	NA	NA
2019/11/20 17:49:00	AWS2	10.05	220	11.88	223	M	M	M	NA	NA	970.9	NA	NA		M	NA	NA	NA	NA
2019/11/20 17:50:00	AWS2	10.08	219	11.88	223	M	M	M	NA	NA	974.4	NA	NA		M	NA	NA	NA	NA
2019/11/20 17:51:00	AWS2	9.69	218	11.88	223	M	M	M	NA	NA	971.5	NA	NA		M	NA	NA	NA	NA
2019/11/20 17:52:00	AWS2	9.35	223	11.88	223	M	M	M	NA	NA	973.8	NA	NA		M	NA	NA	NA	NA
2019/11/20 17:53:00	AWS2	8.99	223	11.88	223	M	M	M	NA	NA	971.6	NA	NA		M	NA	NA	NA	NA
2019/11/20 17:54:00	AWS2	9.29	220	11.83	222	M	M	M	NA	NA	974.3	NA	NA		M	NA	NA	NA	NA
2019/11/20 17:55:00	AWS2	9.54	222	11.21	225	M	M	M	NA	NA	973.5	NA	NA		M	NA	NA	NA	NA
2019/11/20 17:56:00	AWS2	9.72	222	11.21	225	M	M	M	NA	NA	971.7	NA	NA		M	NA	NA	NA	NA
2019/11/20 17:57:00	AWS2	9.31	221	11.21	225	M	M	M	NA	NA	972.7	NA	NA		M	NA	NA	NA	NA
2019/11/20 17:58:00	AWS2	8.64	218	11.21	225	M	M	M	NA	NA	972.0	NA	NA		M	NA	NA	NA	NA
2019/11/20 17:59:00	AWS2	9.19	217	10.80	226	M	M	M	NA	NA	973.2	NA	NA		M	NA	NA	NA	NA
2019/11/20 18:00:00	AWS2	9.71	219	10.80	226	M	M	M	NA	NA	974.1	NA	NA		M	NA	NA	NA	NA
2019/11/20 18:01:00	AWS2	9.59	215	10.80	226	M	M	M	NA	NA	971.8	NA	NA		M	NA	NA	NA	NA
2019/11/20 18:02:00	AWS2	9.25	211	10.70	229	M	M	M	NA	NA	973.1	NA	NA		M	NA	NA	NA	NA
2019/11/20 18:03:00	AWS2	8.46	211	10.70	229	M	M	M	NA	NA	973.1	NA	NA		M	NA	NA	NA	NA
2019/11/20 18:04:00	AWS2	8.34	211	10.70	229	M	M	M	NA	NA	974.3	NA	NA		M	NA	NA	NA	NA
2019/11/20 18:05:00	AWS2	9.18	216	10.65	221	M	M	M	NA	NA	973.7	NA	NA		M	NA	NA	NA	NA
2019/11/20 18:06:00	AWS2	9.23	218	10.65	221	M	M	M	NA	NA	972.3	NA	NA		M	NA	NA	NA	NA
2019/11/20 18:07:00	AWS2	8.82	217	10.65	221	M	M	M	NA	NA	974.0	NA	NA		M	NA	NA	NA	NA
2019/11/20 18:08:00	AWS2	9.14	221	10.65	221	M	M	M	NA	NA	974.8	NA	NA		M	NA	NA	NA	NA
2019/11/20 18:09:00	AWS2	9.74	223	10.75	223	M	M	M	NA	NA	974.0	NA	NA		M	NA	NA	NA	NA
2019/11/20 18:10:00	AWS2	9.03	223	10.75	223	M	M	M	NA	NA	973.1	NA	NA		M	NA	NA	NA	NA
2019/11/20 18:11:00	AWS2	8.84	220	10.75	223	M	M	M	NA	NA	974.2	NA	NA		M	NA	NA	NA	NA
2019/11/20 18:12:00	AWS2	9.50	218	10.75	223	M	M	M	NA	NA	972.6	NA	NA		M	NA	NA	NA	NA
2019/11/20 18:13:00	AWS2	8.93	219	10.75	223	M	M	M	NA	NA	974.8	NA	NA		M	NA	NA	NA	NA
2019/11/20 18:14:00	AWS2	8.43	219	10.75	223	M	M	M	NA	NA	974.3	NA	NA		M	NA	NA	NA	NA
2019/11/20 18:15:00	AWS2	8.54	221	10.75	223	M	M	M	NA	NA	976.1	NA	NA		M	NA	NA	NA	NA
2019/11/20 18:16:00	AWS2	8.75	223	10.75	223	M	M	M	NA	NA	974.0	NA	NA		M	NA	NA	NA	NA
2019/11/20 18:17:00	AWS2	8.39	228	10.75	223	M	M	M	NA	NA	973.3	NA	NA		M	NA	NA	NA	NA
2019/11/20 18:18:00	AWS2	8.62	228	10.75	223	M	M	M	NA	NA	974.3	NA	NA		M	NA	NA	NA	NA
2019/11/20 18:19:00	AWS2	9.60	226	10.60	218	M	M	M	NA	NA	972.7	NA	NA		M	NA	NA	NA	NA
2019/11/20 18:20:00	AWS2	9.75	227	10.60	218	M	M	M	NA	NA	975.8	NA	NA		M	NA	NA	NA	NA
2019/11/20 18:21:00	AWS2	9.50	225	10.44	224	M	M	M	NA	NA	972.4	NA	NA		M	NA	NA	NA	NA
2019/11/20 18:22:00	AWS2	9.24	227	10.44	224	M	M	M	NA	NA	974.4	NA	NA		M	NA	NA	NA	NA
2019/11/20 18:23:00	AWS2	9.39	228	10.44	224	M	M	M	NA	NA	972.5	NA	NA		M	NA	NA	NA	NA
2019/11/20 18:24:00	AWS2	9.24	227	10.44	224	M	M	M	NA	NA	974.7	NA	NA		M	NA	NA	NA	NA
2019/11/20 18:25:00	AWS2	8.73	227	10.44	224	M	M	M	NA	NA	974.8	NA	NA		M	NA	NA	NA	NA
2019/11/20 18:26:00	AWS2	8.33	227	10.44	224	M	M	M	NA	NA	974.2	NA	NA		M	NA	NA	NA	NA
2019/11/20 18:27:00	AWS2	8.22	228	10.44	224	M	M	M	NA	NA	975.6	NA	NA		M	NA	NA	NA	NA
2019/11/20 18:28:00	AWS2	8.69	227	10.39	228	M	M	M	NA	NA	974.7	NA	NA		M	NA	NA	NA	NA
2019/11/20 18:29:00	AWS2	8.72	226	10.39	228	M	M	M	NA	NA	976.0	NA	NA		M	NA	NA	NA	NA
2019/11/20 18:30:00	AWS2	8.41	229	10.39	228	M	M	M	NA	NA	972.7	NA	NA		M	NA	NA	NA	NA
2019/11/20 18:31:00	AWS2	8.01	230	10.39	228	M	M	M	NA	NA	972.0	NA	NA		M	NA	NA	NA	NA
2019/11/20 18:32:00	AWS2	7.52	226	10.39	228	M	M	M	NA	NA	974.1	NA	NA		M	NA	NA	NA	NA
2019/11/20 18:33:00	AWS2	8.04	223	10.13	231	M	M	M	NA	NA	974.7	NA	NA		M	NA	NA	NA	NA
2019/11/20 18:34:00	AWS2	8.53	222	10.13	231	M	M	M	NA	NA	972.7	NA	NA		M	NA	NA	NA	NA
2019/11/20 18:35:00	AWS2	9.20	220	10.44	217	M	M	M	NA	NA	975.4	NA	NA		M	NA	NA	NA	NA
2019/11/20 18:36:00	AWS2	9.98	220	10.55	218	M	M	M	NA	NA	973.5	NA	NA		M	NA	NA	NA	NA
2019/11/20 18:37:00	AWS2	9.62	220	10.55	218	M	M	M	NA	NA	976.0	NA	NA		M	NA	NA	NA	NA
2019/11/20 18:38:00	AWS2	9.00	223	10.55	218	M	M	M	NA	NA	975.0	NA	NA		M	NA	NA	NA	NA
2019/11/20 18:39:00	AWS2	8.47	225	10.55	218	M	M	M	NA	NA	974.3	NA	NA		M	NA	NA	NA	NA
2019/11/20 18:40:00	AWS2	8.42	225	10.55	218	M	M	M	NA	NA	977.4	NA	NA		M	NA	NA	NA	NA
2019/11/20 18:41:00	AWS2	8.96	227	10.55	218	M	M	M	NA	NA	971.5	NA	NA		M	NA	NA	NA	NA
2019/11/20 18:42:00	AWS2	8.80	227	10.55	218	M	M	M	NA	NA	975.8	NA	NA		M	NA	NA	NA	NA
2019/11/20 18:43:00	AWS2	8.23	222	10.55	218	M	M	M	NA	NA	973.1	NA	NA		M	NA	NA	NA	NA
2019/11/20 18:44:00	AWS2	8.21	221	10.55	218	M	M	M	NA	NA	974.4	NA	NA		M	NA	NA	NA	NA
2019/11/20 18:45:00	AWS2	7.84	225	10.55	218	M	M	M	NA	NA	974.7	NA	NA		M	NA	NA	NA	NA
2019/11/20 18:46:00	AWS2	7.75	222	10.13	225	M	M	M	NA	NA	974.0	NA	NA		M	NA	NA	NA	NA
2019/11/20 18:47:00	AWS2	8.57	222	10.13	225	M	M	M	NA	NA	974.5	NA	NA		M	NA	NA	NA	NA
2019/11/20 18:48:00	AWS2	9.01	225	10.08	217	M	M	M	NA	NA	974.2	NA	NA		M	NA	NA	NA	NA
2019/11/20 18:49:00	AWS2	9.22	220	10.13	218	M	M	M	NA	NA	975.0	NA	NA		M	NA	NA	NA	NA
2019/11/20 18:50:00	AWS2	9.10	219	10.13	218	M	M	M	NA	NA	975.0	NA	NA		M	NA	NA	NA	NA
2019/11/20 18:51:00	AWS2	8.70	221	10.60	226	M	M	M	NA	NA	972.5	NA	NA		M	NA	NA	NA	NA
2019/11/20 18:52:00	AWS2	8.58	221	10.60	226	M	M	M	NA	NA	970.4	NA	NA		M	NA	NA	NA	NA
2019/11/20 18:53:00	AWS2	9.14	220	11.37	222	M	M	M	NA	NA	976.4	NA	NA		M	NA	NA	NA	NA
2019/11/20 18:54:00	AWS2	10.04	220	11.37	222	M	M	M	NA	NA	974.8	NA	NA		M	NA	NA	NA	NA
2019/11/20 18:55:00	AWS2	10.05	221	11.37	222	M	M	M	NA	NA	972.8	NA	NA		M	NA	NA	NA	NA
2019/11/20 18:56:00	AWS2	9.70	224	11.37	222	M	M	M	NA	NA	975.5	NA	NA		M	NA	NA	NA	NA
2019/11/20 18:57:00	AWS2	9.53	223	11.37	222	M	M	M	NA	NA	974.2	NA	NA		M	NA	NA	NA	NA
2019/11/20 18:58:00	AWS2	9.27	224	11.37	222	M	M	M	NA	NA	974.6	NA	NA		M	NA	NA	NA	NA
2019/11/20 18:59:00	AWS2	9.41	227	11.37	222	M	M	M	NA	NA	974.9	NA	NA		M	NA	NA	NA	NA
2019/11/20 19:00:00	AWS2	9.90	227	11.37	222	M	M	M	NA	NA	976.8	NA	NA		M	NA	NA	NA	NA
2019/11/20 19:01:00	AWS2	9.72	225	11.37	222	M	M	M	NA	NA	975.6	NA	NA		M	NA	NA	NA	NA
2019/11/20 19:02:00	AWS2	9.47	223	11.37	222	M	M	M	NA	NA	972.6	NA	NA		M	NA	NA	NA	NA
2019/11/20 19:03:00	AWS2	9.06	221	11.32	227	M	M	M	NA	NA	973.9	NA	NA		M	NA	NA	NA	NA
2019/11/20 19:04:00	AWS2	9.24	221	11.32	227	M	M	M	NA	NA	975.9	NA	NA		M	NA	NA	NA	NA
2019/11/20 19:05:00	AWS2	10.15	222	11.32	227	M	M	M	NA	NA	975.5	NA	NA		M	NA	NA	NA	NA
2019/11/20 19:06:00	AWS2	10.05	221	11.32	227	M	M	M	NA	NA	977.1	NA	NA		M	NA	NA	NA	NA
2019/11/20 19:07:00	AWS2	9.40	222	11.32	227	M	M	M	NA	NA	974.6	NA	NA		M	NA	NA	NA	NA
2019/11/20 19:08:00	AWS2	8.63	222	11.32	227	M	M	M	NA	NA	976.8	NA	NA		M	NA	NA	NA	NA
2019/11/20 19:09:00	AWS2	8.46	219	11.27	220	M	M	M	NA	NA	972.8	NA	NA		M	NA	NA	NA	NA
2019/11/20 19:10:00	AWS2	8.37	222	11.27	220	M	M	M	NA	NA	975.2	NA	NA		M	NA	NA	NA	NA
2019/11/20 19:11:00	AWS2	7.24	220	11.27	220	M	M	M	NA	NA	975.8	NA	NA		M	NA	NA	NA	NA
2019/11/20 19:12:00	AWS2	7.08	218	11.27	220	M	M	M	NA	NA	976.3	NA	NA		M	NA	NA	NA	NA
2019/11/20 19:13:00	AWS2	8.08	219	11.27	220	M	M	M	NA	NA	976.8	NA	NA		M	NA	NA	NA	NA
2019/11/20 19:14:00	AWS2	8.46	219	11.27	220	M	M	M	NA	NA	974.8	NA	NA		M	NA	NA	NA	NA
2019/11/20 19:15:00	AWS2	8.32	220	10.24	219	M	M	M	NA	NA	976.0	NA	NA		M	NA	NA	NA	NA
2019/11/20 19:16:00	AWS2	8.32	221	10.19	223	M	M	M	NA	NA	975.4	NA	NA		M	NA	NA	NA	NA
2019/11/20 19:17:01	AWS2	8.15	221	9.62	224	M	M	M	NA	NA	975.2	NA	NA		M	NA	NA	NA	NA
2019/11/20 19:18:00	AWS2	7.79	222	9.62	224	M	M	M	NA	NA	975.9	NA	NA		M	NA	NA	NA	NA
2019/11/20 19:19:00	AWS2	7.34	218	9.62	224	M	M	M	NA	NA	975.4	NA	NA		M	NA	NA	NA	NA
2019/11/20 19:20:00	AWS2	7.69	215	9.62	224	M	M	M	NA	NA	976.2	NA	NA		M	NA	NA	NA	NA
2019/11/20 19:21:00	AWS2	7.99	216	9.62	224	M	M	M	NA	NA	975.6	NA	NA		M	NA	NA	NA	NA
2019/11/20 19:22:00	AWS2	8.01	218	9.62	224	M	M	M	NA	NA	975.3	NA	NA		M	NA	NA	NA	NA
2019/11/20 19:23:00	AWS2	7.90	219	9.62	224	M	M	M	NA	NA	977.2	NA	NA		M	NA	NA	NA	NA
2019/11/20 19:24:00	AWS2	7.04	218	9.62	224	M	M	M	NA	NA	977.4	NA	NA		M	NA	NA	NA	NA
2019/11/20 19:25:00	AWS2	6.14	218	9.62	224	M	M	M	NA	NA	974.6	NA	NA		M	NA	NA	NA	NA
2019/11/20 19:26:00	AWS2	6.16	222	8.90	230	M	M	M	NA	NA	973.7	NA	NA		M	NA	NA	NA	NA
2019/11/20 19:27:00	AWS2	6.14	224	8.80	219	M	M	M	NA	NA	975.6	NA	NA		M	NA	NA	NA	NA
2019/11/20 19:28:00	AWS2	6.35	221	8.80	219	M	M	M	NA	NA	976.0	NA	NA		M	NA	NA	NA	NA
2019/11/20 19:29:00	AWS2	7.10	217	8.80	219	M	M	M	NA	NA	975.2	NA	NA		M	NA	NA	NA	NA
2019/11/20 19:30:00	AWS2	6.74	216	8.80	219	M	M	M	NA	NA	974.9	NA	NA		M	NA	NA	NA	NA
2019/11/20 19:31:00	AWS2	7.40	216	9.36	212	M	M	M	NA	NA	971.8	NA	NA		M	NA	NA	NA	NA
2019/11/20 19:32:00	AWS2	8.39	213	9.36	212	M	M	M	NA	NA	977.6	NA	NA		M	NA	NA	NA	NA
2019/11/20 19:33:00	AWS2	7.94	214	9.36	212	M	M	M	NA	NA	973.7	NA	NA		M	NA	NA	NA	NA
2019/11/20 19:34:00	AWS2	7.37	216	9.36	212	M	M	M	NA	NA	976.1	NA	NA		M	NA	NA	NA	NA
2019/11/20 19:35:00	AWS2	7.25	216	9.36	212	M	M	M	NA	NA	975.1	NA	NA		M	NA	NA	NA	NA
2019/11/20 19:36:00	AWS2	7.00	217	9.36	212	M	M	M	NA	NA	973.9	NA	NA		M	NA	NA	NA	NA
2019/11/20 19:37:00	AWS2	6.80	215	9.36	212	M	M	M	NA	NA	975.9	NA	NA		M	NA	NA	NA	NA
2019/11/20 19:38:00	AWS2	6.80	217	9.36	212	M	M	M	NA	NA	974.9	NA	NA		M	NA	NA	NA	NA
2019/11/20 19:39:00	AWS2	6.75	219	9.36	212	M	M	M	NA	NA	973.6	NA	NA		M	NA	NA	NA	NA
2019/11/20 19:40:00	AWS2	7.30	220	9.36	212	M	M	M	NA	NA	974.6	NA	NA		M	NA	NA	NA	NA
2019/11/20 19:41:00	AWS2	7.80	221	8.95	211	M	M	M	NA	NA	974.7	NA	NA		M	NA	NA	NA	NA
2019/11/20 19:42:00	AWS2	7.19	221	8.59	216	M	M	M	NA	NA	974.8	NA	NA		M	NA	NA	NA	NA
2019/11/20 19:43:00	AWS2	6.82	224	8.49	222	M	M	M	NA	NA	972.4	NA	NA		M	NA	NA	NA	NA
2019/11/20 19:44:00	AWS2	7.30	227	8.49	222	M	M	M	NA	NA	973.6	NA	NA		M	NA	NA	NA	NA
2019/11/20 19:45:00	AWS2	7.24	227	8.49	222	M	M	M	NA	NA	975.4	NA	NA		M	NA	NA	NA	NA
2019/11/20 19:46:00	AWS2	7.46	224	8.85	226	M	M	M	NA	NA	975.0	NA	NA		M	NA	NA	NA	NA
2019/11/20 19:47:00	AWS2	7.67	222	8.85	226	M	M	M	NA	NA	975.6	NA	NA		M	NA	NA	NA	NA
2019/11/20 19:48:00	AWS2	7.19	220	8.85	226	M	M	M	NA	NA	974.5	NA	NA		M	NA	NA	NA	NA
2019/11/20 19:49:00	AWS2	7.31	223	8.85	226	M	M	M	NA	NA	972.3	NA	NA		M	NA	NA	NA	NA
2019/11/20 19:50:00	AWS2	7.45	225	8.85	226	M	M	M	NA	NA	973.0	NA	NA		M	NA	NA	NA	NA
2019/11/20 19:51:00	AWS2	6.94	227	8.85	226	M	M	M	NA	NA	974.1	NA	NA		M	NA	NA	NA	NA
2019/11/20 19:52:00	AWS2	7.14	230	8.85	226	M	M	M	NA	NA	973.6	NA	NA		M	NA	NA	NA	NA
2019/11/20 19:53:00	AWS2	7.48	230	8.85	226	M	M	M	NA	NA	974.8	NA	NA		M	NA	NA	NA	NA
2019/11/20 19:54:00	AWS2	6.82	227	8.85	226	M	M	M	NA	NA	974.0	NA	NA		M	NA	NA	NA	NA
2019/11/20 19:55:00	AWS2	7.24	227	8.95	231	M	M	M	NA	NA	973.9	NA	NA		M	NA	NA	NA	NA
2019/11/20 19:56:00	AWS2	7.36	233	8.95	231	M	M	M	NA	NA	973.4	NA	NA		M	NA	NA	NA	NA
2019/11/20 19:57:00	AWS2	7.28	226	9.93	220	M	M	M	NA	NA	976.1	NA	NA		M	NA	NA	NA	NA
2019/11/20 19:58:00	AWS2	7.92	216	9.93	220	M	M	M	NA	NA	974.6	NA	NA		M	NA	NA	NA	NA
2019/11/20 19:59:00	AWS2	8.03	216	9.93	220	M	M	M	NA	NA	976.1	NA	NA		M	NA	NA	NA	NA
2019/11/20 20:00:00	AWS2	8.32	213	9.93	213	M	M	M	NA	NA	974.1	NA	NA		M	NA	NA	NA	NA
2019/11/20 20:01:00	AWS2	7.94	210	9.93	213	M	M	M	NA	NA	971.5	NA	NA		M	NA	NA	NA	NA
2019/11/20 20:02:00	AWS2	7.14	208	9.93	213	M	M	M	NA	NA	974.2	NA	NA		M	NA	NA	NA	NA
2019/11/20 20:03:00	AWS2	6.88	210	9.93	213	M	M	M	NA	NA	974.4	NA	NA		M	NA	NA	NA	NA
2019/11/20 20:04:00	AWS2	6.92	210	9.93	213	M	M	M	NA	NA	975.0	NA	NA		M	NA	NA	NA	NA
2019/11/20 20:05:00	AWS2	6.69	210	9.93	213	M	M	M	NA	NA	975.1	NA	NA		M	NA	NA	NA	NA
2019/11/20 20:06:00	AWS2	6.57	213	9.93	213	M	M	M	NA	NA	975.0	NA	NA		M	NA	NA	NA	NA
2019/11/20 20:07:00	AWS2	6.42	213	9.93	213	M	M	M	NA	NA	974.7	NA	NA		M	NA	NA	NA	NA
2019/11/20 20:08:00	AWS2	6.21	212	9.93	213	M	M	M	NA	NA	974.8	NA	NA		M	NA	NA	NA	NA
2019/11/20 20:09:00	AWS2	6.50	212	9.93	213	M	M	M	NA	NA	975.4	NA	NA		M	NA	NA	NA	NA
2019/11/20 20:10:00	AWS2	7.19	214	8.18	217	M	M	M	NA	NA	976.0	NA	NA		M	NA	NA	NA	NA
2019/11/20 20:11:00	AWS2	7.29	214	8.18	217	M	M	M	NA	NA	973.8	NA	NA		M	NA	NA	NA	NA
2019/11/20 20:12:00	AWS2	6.94	213	8.18	217	M	M	M	NA	NA	973.8	NA	NA		M	NA	NA	NA	NA
2019/11/20 20:13:00	AWS2	6.72	213	8.18	217	M	M	M	NA	NA	974.1	NA	NA		M	NA	NA	NA	NA
2019/11/20 20:14:00	AWS2	6.49	215	8.18	217	M	M	M	NA	NA	975.8	NA	NA		M	NA	NA	NA	NA
2019/11/20 20:15:00	AWS2	6.52	215	8.18	217	M	M	M	NA	NA	975.1	NA	NA		M	NA	NA	NA	NA
2019/11/20 20:16:00	AWS2	6.51	209	8.18	217	M	M	M	NA	NA	976.7	NA	NA		M	NA	NA	NA	NA
2019/11/20 20:17:00	AWS2	5.97	207	8.18	217	M	M	M	NA	NA	972.5	NA	NA		M	NA	NA	NA	NA
2019/11/20 20:18:00	AWS2	5.60	208	8.18	217	M	M	M	NA	NA	974.6	NA	NA		M	NA	NA	NA	NA
2019/11/20 20:19:00	AWS2	5.87	210	8.18	217	M	M	M	NA	NA	974.4	NA	NA		M	NA	NA	NA	NA
2019/11/20 20:20:00	AWS2	5.64	212	7.51	214	M	M	M	NA	NA	977.0	NA	NA		M	NA	NA	NA	NA
2019/11/20 20:21:00	AWS2	5.28	212	7.51	214	M	M	M	NA	NA	976.1	NA	NA		M	NA	NA	NA	NA
2019/11/20 20:22:00	AWS2	5.76	216	7.51	214	M	M	M	NA	NA	974.0	NA	NA		M	NA	NA	NA	NA
2019/11/20 20:23:00	AWS2	6.87	217	8.39	215	M	M	M	NA	NA	975.5	NA	NA		M	NA	NA	NA	NA
2019/11/20 20:24:00	AWS2	7.34	216	8.54	215	M	M	M	NA	NA	974.4	NA	NA		M	NA	NA	NA	NA
2019/11/20 20:25:00	AWS2	7.39	216	8.54	215	M	M	M	NA	NA	974.5	NA	NA		M	NA	NA	NA	NA
2019/11/20 20:26:00	AWS2	7.68	219	8.59	222	M	M	M	NA	NA	973.7	NA	NA		M	NA	NA	NA	NA
2019/11/20 20:27:00	AWS2	7.52	220	8.59	222	M	M	M	NA	NA	977.3	NA	NA		M	NA	NA	NA	NA
2019/11/20 20:28:00	AWS2	6.65	217	8.59	222	M	M	M	NA	NA	971.9	NA	NA		M	NA	NA	NA	NA
2019/11/20 20:29:00	AWS2	5.73	213	8.59	222	M	M	M	NA	NA	973.3	NA	NA		M	NA	NA	NA	NA
2019/11/20 20:30:00	AWS2	6.29	214	8.59	222	M	M	M	NA	NA	974.7	NA	NA		M	NA	NA	NA	NA
2019/11/20 20:31:00	AWS2	7.38	217	8.59	222	M	M	M	NA	NA	975.9	NA	NA		M	NA	NA	NA	NA
2019/11/20 20:32:00	AWS2	6.88	217	8.59	222	M	M	M	NA	NA	974.2	NA	NA		M	NA	NA	NA	NA
2019/11/20 20:33:00	AWS2	6.56	221	8.59	222	M	M	M	NA	NA	974.8	NA	NA		M	NA	NA	NA	NA
2019/11/20 20:34:00	AWS2	7.55	221	8.75	216	M	M	M	NA	NA	975.2	NA	NA		M	NA	NA	NA	NA
2019/11/20 20:35:00	AWS2	7.79	220	8.75	216	M	M	M	NA	NA	976.6	NA	NA		M	NA	NA	NA	NA
2019/11/20 20:36:00	AWS2	7.58	224	8.95	221	M	M	M	NA	NA	974.7	NA	NA		M	NA	NA	NA	NA
2019/11/20 20:37:00	AWS2	7.96	225	10.03	220	M	M	M	NA	NA	974.3	NA	NA		M	NA	NA	NA	NA
2019/11/20 20:38:00	AWS2	8.03	225	10.03	220	M	M	M	NA	NA	973.8	NA	NA		M	NA	NA	NA	NA
2019/11/20 20:39:00	AWS2	7.70	228	10.03	220	M	M	M	NA	NA	973.7	NA	NA		M	NA	NA	NA	NA
2019/11/20 20:40:00	AWS2	7.28	227	10.03	220	M	M	M	NA	NA	974.0	NA	NA		M	NA	NA	NA	NA
2019/11/20 20:41:00	AWS2	7.26	225	10.03	220	M	M	M	NA	NA	973.5	NA	NA		M	NA	NA	NA	NA
2019/11/20 20:42:00	AWS2	7.59	224	10.03	220	M	M	M	NA	NA	973.0	NA	NA		M	NA	NA	NA	NA
2019/11/20 20:43:00	AWS2	7.42	222	10.03	220	M	M	M	NA	NA	972.9	NA	NA		M	NA	NA	NA	NA
2019/11/20 20:44:00	AWS2	7.11	219	10.03	220	M	M	M	NA	NA	975.8	NA	NA		M	NA	NA	NA	NA
2019/11/20 20:45:00	AWS2	7.19	215	10.03	220	M	M	M	NA	NA	976.9	NA	NA		M	NA	NA	NA	NA
2019/11/20 20:46:00	AWS2	7.45	213	10.03	220	M	M	M	NA	NA	977.9	NA	NA		M	NA	NA	NA	NA
2019/11/20 20:47:00	AWS2	7.21	213	8.49	217	M	M	M	NA	NA	975.5	NA	NA		M	NA	NA	NA	NA
2019/11/20 20:48:00	AWS2	6.67	212	8.49	217	M	M	M	NA	NA	977.3	NA	NA		M	NA	NA	NA	NA
2019/11/20 20:49:00	AWS2	6.47	211	8.49	217	M	M	M	NA	NA	977.1	NA	NA		M	NA	NA	NA	NA
2019/11/20 20:50:00	AWS2	6.82	214	8.49	217	M	M	M	NA	NA	975.5	NA	NA		M	NA	NA	NA	NA
2019/11/20 20:51:00	AWS2	7.07	214	8.49	217	M	M	M	NA	NA	977.8	NA	NA		M	NA	NA	NA	NA
2019/11/20 20:52:00	AWS2	7.14	217	8.49	217	M	M	M	NA	NA	975.6	NA	NA		M	NA	NA	NA	NA
2019/11/20 20:53:00	AWS2	6.91	220	8.49	217	M	M	M	NA	NA	976.3	NA	NA		M	NA	NA	NA	NA
2019/11/20 20:54:00	AWS2	6.37	225	8.49	217	M	M	M	NA	NA	975.9	NA	NA		M	NA	NA	NA	NA
2019/11/20 20:55:00	AWS2	6.61	230	8.33	213	M	M	M	NA	NA	977.4	NA	NA		M	NA	NA	NA	NA
2019/11/20 20:56:00	AWS2	7.24	230	8.39	229	M	M	M	NA	NA	975.6	NA	NA		M	NA	NA	NA	NA
2019/11/20 20:57:00	AWS2	7.19	224	8.39	229	M	M	M	NA	NA	977.4	NA	NA		M	NA	NA	NA	NA
2019/11/20 20:58:00	AWS2	7.44	223	8.39	227	M	M	M	NA	NA	975.9	NA	NA		M	NA	NA	NA	NA
2019/11/20 20:59:00	AWS2	7.35	231	8.39	227	M	M	M	NA	NA	977.0	NA	NA		M	NA	NA	NA	NA
2019/11/20 21:00:00	AWS2	6.79	230	8.39	227	M	M	M	NA	NA	976.3	NA	NA		M	NA	NA	NA	NA
2019/11/20 21:01:00	AWS2	7.16	230	8.39	227	M	M	M	NA	NA	975.1	NA	NA		M	NA	NA	NA	NA
2019/11/20 21:02:00	AWS2	6.71	233	8.39	227	M	M	M	NA	NA	976.0	NA	NA		M	NA	NA	NA	NA
2019/11/20 21:03:00	AWS2	6.17	231	8.39	227	M	M	M	NA	NA	976.2	NA	NA		M	NA	NA	NA	NA
2019/11/20 21:04:00	AWS2	6.03	226	8.39	227	M	M	M	NA	NA	976.2	NA	NA		M	NA	NA	NA	NA
2019/11/20 21:05:00	AWS2	5.99	221	8.39	227	M	M	M	NA	NA	976.3	NA	NA		M	NA	NA	NA	NA
2019/11/20 21:06:00	AWS2	6.42	223	8.39	227	M	M	M	NA	NA	975.9	NA	NA		M	NA	NA	NA	NA
2019/11/20 21:07:00	AWS2	6.95	224	8.39	227	M	M	M	NA	NA	977.5	NA	NA		M	NA	NA	NA	NA
2019/11/20 21:08:00	AWS2	7.42	219	8.33	220	M	M	M	NA	NA	976.9	NA	NA		M	NA	NA	NA	NA
2019/11/20 21:09:00	AWS2	6.66	216	8.33	220	M	M	M	NA	NA	976.9	NA	NA		M	NA	NA	NA	NA
2019/11/20 21:10:00	AWS2	6.54	218	8.33	220	M	M	M	NA	NA	978.5	NA	NA		M	NA	NA	NA	NA
2019/11/20 21:11:00	AWS2	7.02	220	8.33	220	M	M	M	NA	NA	978.9	NA	NA		M	NA	NA	NA	NA
2019/11/20 21:12:00	AWS2	6.69	219	8.33	220	M	M	M	NA	NA	976.0	NA	NA		M	NA	NA	NA	NA
2019/11/20 21:13:00	AWS2	6.44	218	8.33	220	M	M	M	NA	NA	977.7	NA	NA		M	NA	NA	NA	NA
2019/11/20 21:14:00	AWS2	5.98	221	8.33	220	M	M	M	NA	NA	976.0	NA	NA		M	NA	NA	NA	NA
2019/11/20 21:15:00	AWS2	5.58	225	8.33	220	M	M	M	NA	NA	977.3	NA	NA		M	NA	NA	NA	NA
2019/11/20 21:16:00	AWS2	5.86	227	8.33	220	M	M	M	NA	NA	978.0	NA	NA		M	NA	NA	NA	NA
2019/11/20 21:17:00	AWS2	6.03	229	8.33	220	M	M	M	NA	NA	976.7	NA	NA		M	NA	NA	NA	NA
2019/11/20 21:18:00	AWS2	5.88	230	8.18	219	M	M	M	NA	NA	976.8	NA	NA		M	NA	NA	NA	NA
2019/11/20 21:19:00	AWS2	5.99	230	8.18	219	M	M	M	NA	NA	977.6	NA	NA		M	NA	NA	NA	NA
2019/11/20 21:20:00	AWS2	6.15	230	7.25	221	M	M	M	NA	NA	978.6	NA	NA		M	NA	NA	NA	NA
2019/11/20 21:21:00	AWS2	6.35	228	7.25	221	M	M	M	NA	NA	978.5	NA	NA		M	NA	NA	NA	NA
2019/11/20 21:22:00	AWS2	6.52	227	7.31	227	M	M	M	NA	NA	976.2	NA	NA		M	NA	NA	NA	NA
2019/11/20 21:23:00	AWS2	6.54	227	7.31	233	M	M	M	NA	NA	977.7	NA	NA		M	NA	NA	NA	NA
2019/11/20 21:24:00	AWS2	6.46	226	7.51	220	M	M	M	NA	NA	979.2	NA	NA		M	NA	NA	NA	NA
2019/11/20 21:25:00	AWS2	6.46	222	7.51	220	M	M	M	NA	NA	978.6	NA	NA		M	NA	NA	NA	NA
2019/11/20 21:26:00	AWS2	6.12	220	7.51	220	M	M	M	NA	NA	979.2	NA	NA		M	NA	NA	NA	NA
2019/11/20 21:27:00	AWS2	5.76	222	7.51	220	M	M	M	NA	NA	976.7	NA	NA		M	NA	NA	NA	NA
2019/11/20 21:28:00	AWS2	5.81	221	7.51	220	M	M	M	NA	NA	977.3	NA	NA		M	NA	NA	NA	NA
2019/11/20 21:29:00	AWS2	6.08	218	7.51	220	M	M	M	NA	NA	976.5	NA	NA		M	NA	NA	NA	NA
2019/11/20 21:30:00	AWS2	5.63	220	7.51	220	M	M	M	NA	NA	976.6	NA	NA		M	NA	NA	NA	NA
2019/11/20 21:31:00	AWS2	5.38	218	7.51	220	M	M	M	NA	NA	977.3	NA	NA		M	NA	NA	NA	NA
2019/11/20 21:32:01	AWS2	5.57	213	7.51	220	M	M	M	NA	NA	977.5	NA	NA		M	NA	NA	NA	NA
2019/11/20 21:33:00	AWS2	5.24	212	7.51	220	M	M	M	NA	NA	977.7	NA	NA		M	NA	NA	NA	NA
2019/11/20 21:34:00	AWS2	5.69	217	7.10	215	M	M	M	NA	NA	977.6	NA	NA		M	NA	NA	NA	NA
2019/11/20 21:35:00	AWS2	6.00	221	6.79	211	M	M	M	NA	NA	978.4	NA	NA		M	NA	NA	NA	NA
2019/11/20 21:36:00	AWS2	5.25	220	6.79	211	M	M	M	NA	NA	978.7	NA	NA		M	NA	NA	NA	NA
2019/11/20 21:37:01	AWS2	5.25	220	6.79	211	M	M	M	NA	NA	976.5	NA	NA		M	NA	NA	NA	NA
2019/11/20 21:38:00	AWS2	5.43	224	6.79	211	M	M	M	NA	NA	977.8	NA	NA		M	NA	NA	NA	NA
2019/11/20 21:39:00	AWS2	5.42	226	6.79	211	M	M	M	NA	NA	975.3	NA	NA		M	NA	NA	NA	NA
2019/11/20 21:40:00	AWS2	5.42	227	6.79	211	M	M	M	NA	NA	979.6	NA	NA		M	NA	NA	NA	NA
2019/11/20 21:41:00	AWS2	4.75	226	6.74	224	M	M	M	NA	NA	977.8	NA	NA		M	NA	NA	NA	NA
2019/11/20 21:42:00	AWS2	4.58	223	6.74	224	M	M	M	NA	NA	975.0	NA	NA		M	NA	NA	NA	NA
2019/11/20 21:43:00	AWS2	4.88	216	6.74	224	M	M	M	NA	NA	978.8	NA	NA		M	NA	NA	NA	NA
2019/11/20 21:44:00	AWS2	5.57	212	6.48	215	M	M	M	NA	NA	977.6	NA	NA		M	NA	NA	NA	NA
2019/11/20 21:45:00	AWS2	6.25	214	6.74	218	M	M	M	NA	NA	974.5	NA	NA		M	NA	NA	NA	NA
2019/11/20 21:46:00	AWS2	5.66	216	6.74	218	M	M	M	NA	NA	976.7	NA	NA		M	NA	NA	NA	NA
2019/11/20 21:47:00	AWS2	5.02	219	6.74	218	M	M	M	NA	NA	977.2	NA	NA		M	NA	NA	NA	NA
2019/11/20 21:48:00	AWS2	5.30	222	6.74	218	M	M	M	NA	NA	975.9	NA	NA		M	NA	NA	NA	NA
2019/11/20 21:49:00	AWS2	5.74	220	6.74	218	M	M	M	NA	NA	976.8	NA	NA		M	NA	NA	NA	NA
2019/11/20 21:50:00	AWS2	6.22	223	7.41	223	M	M	M	NA	NA	976.3	NA	NA		M	NA	NA	NA	NA
2019/11/20 21:51:00	AWS2	6.55	232	7.41	229	M	M	M	NA	NA	979.2	NA	NA		M	NA	NA	NA	NA
2019/11/20 21:52:00	AWS2	6.52	231	7.41	229	M	M	M	NA	NA	976.9	NA	NA		M	NA	NA	NA	NA
2019/11/20 21:53:00	AWS2	6.63	228	7.41	229	M	M	M	NA	NA	976.5	NA	NA		M	NA	NA	NA	NA
2019/11/20 21:54:00	AWS2	6.58	227	7.41	229	M	M	M	NA	NA	977.7	NA	NA		M	NA	NA	NA	NA
2019/11/20 21:55:00	AWS2	6.65	223	7.72	221	M	M	M	NA	NA	974.9	NA	NA		M	NA	NA	NA	NA
2019/11/20 21:56:00	AWS2	6.94	220	7.72	221	M	M	M	NA	NA	979.4	NA	NA		M	NA	NA	NA	NA
2019/11/20 21:57:00	AWS2	6.30	221	7.72	221	M	M	M	NA	NA	977.3	NA	NA		M	NA	NA	NA	NA
2019/11/20 21:58:00	AWS2	5.97	227	7.72	221	M	M	M	NA	NA	977.5	NA	NA		M	NA	NA	NA	NA
2019/11/20 21:59:00	AWS2	6.21	232	7.72	221	M	M	M	NA	NA	977.0	NA	NA		M	NA	NA	NA	NA
2019/11/20 22:00:00	AWS2	6.36	233	7.72	221	M	M	M	NA	NA	978.6	NA	NA		M	NA	NA	NA	NA
2019/11/20 22:01:00	AWS2	6.28	230	7.72	221	M	M	M	NA	NA	980.0	NA	NA		M	NA	NA	NA	NA
2019/11/20 22:02:00	AWS2	6.00	229	7.72	221	M	M	M	NA	NA	976.9	NA	NA		M	NA	NA	NA	NA
2019/11/20 22:03:00	AWS2	6.07	233	7.72	221	M	M	M	NA	NA	978.8	NA	NA		M	NA	NA	NA	NA
2019/11/20 22:04:00	AWS2	5.90	234	7.72	221	M	M	M	NA	NA	978.1	NA	NA		M	NA	NA	NA	NA
2019/11/20 22:07:41	AWS2	M	M	M	M	M	M	M	NA	NA	M	NA	NA		M	NA	NA	NA	NA
2019/11/20 22:08:00	AWS2	M	M	M	M	M	M	M	NA	NA	M	NA	NA		M	NA	NA	NA	NA
2019/11/20 22:09:01	AWS2	M	M	M	M	M	M	M	NA	NA	977.8	NA	NA		M	NA	NA	NA	NA
2019/11/20 22:10:02	AWS2	5.73	219	M	M	M	M	M	NA	NA	976.7	NA	NA		M	NA	NA	NA	NA
2019/11/20 22:11:01	AWS2	5.82	218	M	M	M	M	M	NA	NA	977.9	NA	NA		M	NA	NA	NA	NA
2019/11/20 22:12:02	AWS2	5.87	216	M	M	M	M	M	NA	NA	975.3	NA	NA		M	NA	NA	NA	NA
2019/11/20 22:13:02	AWS2	5.35	214	M	M	M	M	M	NA	NA	975.0	NA	NA		M	NA	NA	NA	NA
2019/11/20 22:14:02	AWS2	4.76	215	M	M	M	M	M	NA	NA	972.4	NA	NA		M	NA	NA	NA	NA
2019/11/20 22:15:01	AWS2	4.89	220	M	M	M	M	M	NA	NA	975.2	NA	NA		M	NA	NA	NA	NA
2019/11/20 22:16:02	AWS2	5.46	221	6.94	212	M	M	M	NA	NA	974.4	NA	NA		M	NA	NA	NA	NA
2019/11/20 22:17:02	AWS2	6.06	222	6.94	212	M	M	M	NA	NA	976.2	NA	NA		M	NA	NA	NA	NA
2019/11/20 22:18:01	AWS2	6.40	223	6.94	212	M	M	M	NA	NA	973.7	NA	NA		M	NA	NA	NA	NA
2019/11/20 22:19:02	AWS2	5.99	220	6.94	212	M	M	M	NA	NA	974.4	NA	NA		M	NA	NA	NA	NA
2019/11/20 22:20:01	AWS2	5.31	221	6.94	212	M	M	M	NA	NA	974.4	NA	NA		M	NA	NA	NA	NA
2019/11/20 22:21:02	AWS2	4.72	223	6.84	222	M	M	M	NA	NA	973.0	NA	NA		M	NA	NA	NA	NA
2019/11/20 22:22:01	AWS2	4.56	219	6.84	222	M	M	M	NA	NA	976.0	NA	NA		M	NA	NA	NA	NA
2019/11/20 22:23:01	AWS2	5.08	223	6.84	222	M	M	M	NA	NA	975.1	NA	NA		M	NA	NA	NA	NA
2019/11/20 22:24:01	AWS2	5.46	227	6.84	222	M	M	M	NA	NA	974.0	NA	NA		M	NA	NA	NA	NA
2019/11/20 22:25:02	AWS2	5.42	221	6.84	222	M	M	M	NA	NA	974.3	NA	NA		M	NA	NA	NA	NA
2019/11/20 22:26:02	AWS2	5.19	219	6.84	222	M	M	M	NA	NA	975.0	NA	NA		M	NA	NA	NA	NA
2019/11/20 22:27:02	AWS2	4.93	221	6.84	222	M	M	M	NA	NA	974.9	NA	NA		M	NA	NA	NA	NA
2019/11/20 22:28:02	AWS2	5.02	225	6.38	223	M	M	M	NA	NA	973.3	NA	NA		M	NA	NA	NA	NA
2019/11/20 22:29:02	AWS2	5.29	230	6.38	223	M	M	M	NA	NA	972.9	NA	NA		M	NA	NA	NA	NA
2019/11/20 22:30:02	AWS2	5.15	230	6.38	223	M	M	M	NA	NA	972.9	NA	NA		M	NA	NA	NA	NA
2019/11/20 22:31:02	AWS2	4.68	226	6.38	223	M	M	M	NA	NA	973.5	NA	NA		M	NA	NA	NA	NA
2019/11/20 22:32:02	AWS2	4.79	224	6.38	223	M	M	M	NA	NA	973.7	NA	NA		M	NA	NA	NA	NA
2019/11/20 22:33:02	AWS2	5.11	225	6.38	223	M	M	M	NA	NA	973.4	NA	NA		M	NA	NA	NA	NA
2019/11/20 22:34:02	AWS2	4.91	221	6.17	214	M	M	M	NA	NA	975.3	NA	NA		M	NA	NA	NA	NA
2019/11/20 22:35:02	AWS2	4.95	217	6.07	230	M	M	M	NA	NA	971.3	NA	NA		M	NA	NA	NA	NA
2019/11/20 22:36:02	AWS2	4.92	223	6.07	230	M	M	M	NA	NA	972.5	NA	NA		M	NA	NA	NA	NA
2019/11/20 22:37:01	AWS2	5.00	230	6.07	230	M	M	M	NA	NA	973.0	NA	NA		M	NA	NA	NA	NA
2019/11/20 22:38:02	AWS2	5.45	233	6.12	234	M	M	M	NA	NA	973.6	NA	NA		M	NA	NA	NA	NA
2019/11/20 22:39:01	AWS2	5.36	233	6.12	234	M	M	M	NA	NA	976.4	NA	NA		M	NA	NA	NA	NA
2019/11/20 22:40:01	AWS2	5.22	231	6.12	234	M	M	M	NA	NA	975.0	NA	NA		M	NA	NA	NA	NA
2019/11/20 22:41:02	AWS2	5.31	229	6.12	234	M	M	M	NA	NA	974.5	NA	NA		M	NA	NA	NA	NA
2019/11/20 22:42:01	AWS2	5.30	233	6.12	234	M	M	M	NA	NA	976.6	NA	NA		M	NA	NA	NA	NA
2019/11/20 22:43:01	AWS2	5.59	235	6.38	225	M	M	M	NA	NA	974.2	NA	NA		M	NA	NA	NA	NA
2019/11/20 22:44:01	AWS2	6.17	229	7.05	226	M	M	M	NA	NA	975.8	NA	NA		M	NA	NA	NA	NA
2019/11/20 22:45:01	AWS2	6.24	227	7.05	226	M	M	M	NA	NA	974.3	NA	NA		M	NA	NA	NA	NA
2019/11/20 22:46:01	AWS2	5.91	231	7.05	226	M	M	M	NA	NA	974.5	NA	NA		M	NA	NA	NA	NA
2019/11/20 22:47:01	AWS2	5.55	232	7.05	226	M	M	M	NA	NA	971.6	NA	NA		M	NA	NA	NA	NA
2019/11/20 22:48:01	AWS2	5.47	234	7.05	226	M	M	M	NA	NA	974.4	NA	NA		M	NA	NA	NA	NA
2019/11/20 22:49:01	AWS2	5.37	233	7.05	226	M	M	M	NA	NA	975.0	NA	NA		M	NA	NA	NA	NA
2019/11/20 22:50:01	AWS2	5.47	234	7.05	226	M	M	M	NA	NA	976.2	NA	NA		M	NA	NA	NA	NA
2019/11/20 22:51:01	AWS2	5.62	236	7.05	226	M	M	M	NA	NA	976.1	NA	NA		M	NA	NA	NA	NA
2019/11/20 22:52:01	AWS2	6.32	235	8.08	234	M	M	M	NA	NA	977.0	NA	NA		M	NA	NA	NA	NA
2019/11/20 22:53:02	AWS2	7.01	231	8.08	234	M	M	M	NA	NA	973.0	NA	NA		M	NA	NA	NA	NA
2019/11/20 22:54:01	AWS2	6.38	226	8.08	234	M	M	M	NA	NA	974.6	NA	NA		M	NA	NA	NA	NA
2019/11/20 22:55:01	AWS2	5.68	227	8.08	234	M	M	M	NA	NA	973.1	NA	NA		M	NA	NA	NA	NA
2019/11/20 22:56:01	AWS2	5.92	229	8.08	234	M	M	M	NA	NA	972.4	NA	NA		M	NA	NA	NA	NA
2019/11/20 22:57:02	AWS2	6.27	226	8.08	234	M	M	M	NA	NA	972.6	NA	NA		M	NA	NA	NA	NA
2019/11/20 22:58:02	AWS2	5.86	224	8.08	234	M	M	M	NA	NA	976.5	NA	NA		M	NA	NA	NA	NA
2019/11/20 22:59:01	AWS2	5.67	224	8.08	234	M	M	M	NA	NA	973.7	NA	NA		M	NA	NA	NA	NA
2019/11/20 23:00:02	AWS2	5.74	224	8.08	234	M	M	M	NA	NA	973.2	NA	NA		M	NA	NA	NA	NA
2019/11/20 23:01:01	AWS2	5.50	224	8.08	234	M	M	M	NA	NA	978.3	NA	NA		M	NA	NA	NA	NA
2019/11/20 23:02:01	AWS2	5.49	221	7.61	230	M	M	M	NA	NA	977.4	NA	NA		M	NA	NA	NA	NA
2019/11/20 23:03:01	AWS2	5.94	223	7.25	223	M	M	M	NA	NA	975.7	NA	NA		M	NA	NA	NA	NA
2019/11/20 23:04:01	AWS2	6.22	223	8.49	228	M	M	M	NA	NA	973.5	NA	NA		M	NA	NA	NA	NA
2019/11/20 23:05:01	AWS2	6.79	218	8.49	228	M	M	M	NA	NA	974.4	NA	NA		M	NA	NA	NA	NA
2019/11/20 23:06:00	AWS2	7.27	217	8.49	228	M	M	M	NA	NA	974.0	NA	NA		M	NA	NA	NA	NA
2019/11/20 23:07:04	AWS2	6.58	215	8.49	228	M	M	M	NA	NA	976.4	NA	NA		M	NA	NA	NA	NA
2019/11/20 23:08:01	AWS2	5.87	213	8.49	228	M	M	M	NA	NA	974.8	NA	NA		M	NA	NA	NA	NA
2019/11/20 23:09:01	AWS2	6.03	215	8.49	228	M	M	M	NA	NA	974.2	NA	NA		M	NA	NA	NA	NA
2019/11/20 23:10:01	AWS2	6.01	214	8.49	228	M	M	M	NA	NA	974.0	NA	NA		M	NA	NA	NA	NA
2019/11/20 23:11:01	AWS2	6.01	212	8.49	228	M	M	M	NA	NA	975.2	NA	NA		M	NA	NA	NA	NA
2019/11/20 23:12:02	AWS2	6.36	212	8.49	228	M	M	M	NA	NA	974.8	NA	NA		M	NA	NA	NA	NA
2019/11/20 23:13:02	AWS2	6.26	216	8.49	228	M	M	M	NA	NA	973.8	NA	NA		M	NA	NA	NA	NA
2019/11/20 23:14:01	AWS2	5.51	215	8.23	226	M	M	M	NA	NA	971.8	NA	NA		M	NA	NA	NA	NA
2019/11/20 23:15:01	AWS2	5.37	211	7.72	216	M	M	M	NA	NA	973.1	NA	NA		M	NA	NA	NA	NA
2019/11/20 23:16:01	AWS2	5.97	216	7.61	212	M	M	M	NA	NA	973.8	NA	NA		M	NA	NA	NA	NA
2019/11/20 23:17:01	AWS2	6.32	218	7.61	212	M	M	M	NA	NA	973.6	NA	NA		M	NA	NA	NA	NA
2019/11/20 23:18:01	AWS2	6.44	216	7.61	212	M	M	M	NA	NA	974.4	NA	NA		M	NA	NA	NA	NA
2019/11/20 23:19:02	AWS2	6.63	216	7.61	212	M	M	M	NA	NA	974.5	NA	NA		M	NA	NA	NA	NA
2019/11/20 23:20:02	AWS2	6.41	218	7.61	212	M	M	M	NA	NA	973.2	NA	NA		M	NA	NA	NA	NA
2019/11/20 23:21:02	AWS2	6.13	223	7.61	212	M	M	M	NA	NA	972.9	NA	NA		M	NA	NA	NA	NA
2019/11/20 23:22:01	AWS2	6.33	227	7.51	224	M	M	M	NA	NA	978.5	NA	NA		M	NA	NA	NA	NA
2019/11/20 23:23:01	AWS2	6.87	226	7.92	223	M	M	M	NA	NA	977.0	NA	NA		M	NA	NA	NA	NA
2019/11/20 23:24:02	AWS2	6.96	224	7.92	223	M	M	M	NA	NA	974.1	NA	NA		M	NA	NA	NA	NA
2019/11/20 23:25:02	AWS2	6.40	221	7.92	223	M	M	M	NA	NA	973.6	NA	NA		M	NA	NA	NA	NA
2019/11/20 23:26:01	AWS2	6.20	221	7.92	223	M	M	M	NA	NA	976.1	NA	NA		M	NA	NA	NA	NA
2019/11/20 23:27:02	AWS2	5.92	226	7.92	223	M	M	M	NA	NA	974.3	NA	NA		M	NA	NA	NA	NA
2019/11/20 23:28:02	AWS2	5.61	227	7.92	223	M	M	M	NA	NA	979.5	NA	NA		M	NA	NA	NA	NA
2019/11/20 23:29:02	AWS2	5.38	226	7.92	223	M	M	M	NA	NA	978.0	NA	NA		M	NA	NA	NA	NA
2019/11/20 23:30:02	AWS2	5.58	228	7.92	223	M	M	M	NA	NA	976.2	NA	NA		M	NA	NA	NA	NA
2019/11/20 23:31:02	AWS2	5.68	229	7.92	223	M	M	M	NA	NA	978.6	NA	NA		M	NA	NA	NA	NA
2019/11/20 23:32:02	AWS2	6.03	227	7.92	223	M	M	M	NA	NA	977.7	NA	NA		M	NA	NA	NA	NA
2019/11/20 23:33:02	AWS2	6.68	224	7.56	225	M	M	M	NA	NA	978.8	NA	NA		M	NA	NA	NA	NA
2019/11/20 23:34:02	AWS2	6.51	223	7.31	228	M	M	M	NA	NA	976.1	NA	NA		M	NA	NA	NA	NA
2019/11/20 23:35:02	AWS2	6.11	226	7.31	228	M	M	M	NA	NA	979.4	NA	NA		M	NA	NA	NA	NA
2019/11/20 23:36:02	AWS2	5.62	228	7.31	228	M	M	M	NA	NA	976.8	NA	NA		M	NA	NA	NA	NA
2019/11/20 23:37:02	AWS2	5.53	227	7.31	228	M	M	M	NA	NA	977.9	NA	NA		M	NA	NA	NA	NA
2019/11/20 23:38:02	AWS2	5.65	225	7.31	228	M	M	M	NA	NA	979.5	NA	NA		M	NA	NA	NA	NA
2019/11/20 23:39:02	AWS2	5.95	227	7.31	228	M	M	M	NA	NA	976.9	NA	NA		M	NA	NA	NA	NA
2019/11/20 23:40:02	AWS2	6.38	227	7.31	228	M	M	M	NA	NA	980.5	NA	NA		M	NA	NA	NA	NA
2019/11/20 23:41:01	AWS2	6.54	229	7.31	228	M	M	M	NA	NA	978.1	NA	NA		M	NA	NA	NA	NA
2019/11/20 23:42:02	AWS2	6.86	230	7.56	230	M	M	M	NA	NA	979.2	NA	NA		M	NA	NA	NA	NA
2019/11/20 23:43:02	AWS2	6.69	227	7.56	230	M	M	M	NA	NA	980.3	NA	NA		M	NA	NA	NA	NA
2019/11/20 23:44:02	AWS2	6.72	227	7.72	230	M	M	M	NA	NA	977.1	NA	NA		M	NA	NA	NA	NA
2019/11/20 23:45:02	AWS2	7.16	226	7.77	227	M	M	M	NA	NA	976.5	NA	NA		M	NA	NA	NA	NA
2019/11/20 23:46:02	AWS2	6.89	226	7.77	227	M	M	M	NA	NA	977.6	NA	NA		M	NA	NA	NA	NA
2019/11/20 23:47:02	AWS2	6.40	224	7.77	227	M	M	M	NA	NA	978.4	NA	NA		M	NA	NA	NA	NA
2019/11/20 23:48:02	AWS2	6.18	222	7.77	227	M	M	M	NA	NA	978.1	NA	NA		M	NA	NA	NA	NA
2019/11/20 23:49:02	AWS2	6.12	222	7.77	227	M	M	M	NA	NA	977.1	NA	NA		M	NA	NA	NA	NA
2019/11/20 23:50:02	AWS2	6.21	222	7.77	227	M	M	M	NA	NA	978.4	NA	NA		M	NA	NA	NA	NA
2019/11/20 23:51:01	AWS2	6.86	223	8.49	222	M	M	M	NA	NA	977.5	NA	NA		M	NA	NA	NA	NA
2019/11/20 23:52:01	AWS2	6.88	221	8.49	222	M	M	M	NA	NA	977.5	NA	NA		M	NA	NA	NA	NA
2019/11/20 23:53:01	AWS2	6.08	221	8.49	222	M	M	M	NA	NA	978.2	NA	NA		M	NA	NA	NA	NA
2019/11/20 23:54:00	AWS2	5.90	222	8.49	222	M	M	M	NA	NA	978.1	NA	NA		M	NA	NA	NA	NA
2019/11/20 23:55:01	AWS2	5.58	224	8.49	222	M	M	M	NA	NA	976.5	NA	NA		M	NA	NA	NA	NA
2019/11/20 23:56:01	AWS2	5.69	228	8.49	222	M	M	M	NA	NA	978.4	NA	NA		M	NA	NA	NA	NA
2019/11/20 23:57:01	AWS2	6.49	229	8.49	222	M	M	M	NA	NA	977.7	NA	NA		M	NA	NA	NA	NA
2019/11/20 23:58:00	AWS2	6.71	226	8.49	222	M	M	M	NA	NA	979.1	NA	NA		M	NA	NA	NA	NA
2019/11/20 23:59:01	AWS2	6.38	223	8.49	222	M	M	M	NA	NA	977.3	NA	NA		M	NA	NA	NA	NA